[[{"header":{"parameterUnit":"m.s-1","parameterCategory":1,"la1":30.6,"la2":28.766,"lo1":-90.7593,"lo2":-88.6598,"dx":0.0162,"dy":0.0183,"nx":116,"ny":114,"refTime":"2023-01-23T06:00:00:Z","depth":0,"parameterNumber":2,"parameterNumberName":"U-component_of_WINDS"},"data":[0.0,0.0,0.0,0.0,0.0,0.0,0.0,0.0,0.0,0.0,0.0,0.0,0.0,0.0,0.0,0.0,0.0,0.0,0.0,0.0,0.0,0.0,0.0,0.0,0.0,0.0,0.0,0.0,0.0,0.0,0.0,0.0,0.0,0.0,0.0,0.0,0.0,0.0,0.0,0.0,0.0,0.0,0.0,0.0,0.0,0.0,0.0,0.0,0.0,0.0,0.0,0.0,0.0,0.0,0.0,0.0,0.0,0.0,0.0,0.0,0.0,0.0,0.0,0.0,0.0,0.0,0.0,0.0,0.0,0.0,0.0,0.0,0.0,0.0,0.0,0.0,0.0,0.0,0.0,0.0,0.0,0.0,0.0,0.0,0.0,0.0,0.0,0.0,0.0,0.0,0.0,0.0,0.0,0.0,0.0,0.0,0.0,0.0,0.0,0.0,0.0,0.0,0.0,0.0,0.0,0.0,0.0,0.0,0.0,0.0,0.0,0.0,0.0,0.0,0.0,0.0,0.0,0.0,0.0,0.0,0.0,0.0,0.0,0.0,0.0,0.0,0.0,0.0,0.0,0.0,0.0,0.0,0.0,0.0,0.0,0.0,0.0,0.0,0.0,0.0,0.0,0.0,0.0,0.0,0.0,0.0,0.0,0.0,0.0,0.0,0.0,0.0,0.0,0.0,0.0,0.0,0.0,0.0,0.0,0.0,0.0,0.0,0.0,0.0,0.0,0.0,0.0,0.0,0.0,0.0,0.0,0.0,0.0,0.0,0.0,0.0,0.0,0.0,0.0,0.0,0.0,0.0,0.0,0.0,0.0,0.0,0.0,0.0,0.0,0.0,0.0,0.0,0.0,0.0,0.0,0.0,0.0,0.0,0.0,0.0,0.0,0.0,0.0,0.0,0.0,0.0,0.0,0.0,0.0,0.0,0.0,0.0,0.0,0.0,0.0,0.0,0.0,0.0,0.0,0.0,0.0,0.0,0.0,0.0,0.0,0.0,0.0,0.0,0.0,0.0,0.0,0.0,0.0,0.0,0.0,0.0,0.0,0.0,0.0,0.0,0.0,0.0,0.0,0.0,0.0,0.0,0.0,0.0,0.0,0.0,0.0,0.0,0.0,0.0,0.0,0.0,0.0,0.0,0.0,0.0,0.0,0.0,0.0,0.0,0.0,0.0,0.0,0.0,0.0,0.0,0.0,0.0,0.0,0.0,0.0,0.0,0.0,0.0,0.0,0.0,0.0,0.0,0.0,0.0,0.0,0.0,0.0,0.0,0.0,0.0,0.0,0.0,0.0,0.0,0.0,0.0,0.0,0.0,0.0,0.0,0.0,0.0,0.0,0.0,0.0,0.0,0.0,0.0,0.0,0.0,0.0,0.0,0.0,0.0,0.0,0.0,0.0,0.0,0.0,0.0,0.0,0.0,0.0,0.0,0.0,0.0,0.0,0.0,0.0,0.0,0.0,0.0,0.0,0.0,0.0,0.0,0.0,0.0,0.0,0.0,0.0,0.0,0.0,0.0,0.0,0.0,0.0,0.0,0.0,0.0,0.0,0.0,0.0,0.0,0.0,0.0,0.0,0.0,0.0,0.0,0.0,0.0,0.0,0.0,0.0,0.0,0.0,0.0,0.0,0.0,0.0,0.0,0.0,0.0,0.0,0.0,0.0,0.0,0.0,0.0,0.0,0.0,0.0,0.0,0.0,0.0,0.0,0.0,0.0,0.0,0.0,0.0,0.0,0.0,0.0,0.0,0.0,0.0,0.0,0.0,0.0,0.0,0.0,0.0,0.0,0.0,0.0,0.0,0.0,0.0,0.0,0.0,0.0,0.0,0.0,0.0,0.0,0.0,0.0,0.0,0.0,0.0,0.0,0.0,0.0,0.0,0.0,0.0,0.0,0.0,0.0,0.0,0.0,0.0,0.0,0.0,0.0,0.0,0.0,0.0,0.0,0.0,0.0,0.0,0.0,0.0,0.0,0.0,0.0,0.0,0.0,0.0,0.0,0.0,0.0,0.0,0.0,0.0,0.0,0.0,0.0,0.0,0.0,0.0,0.0,0.0,0.0,0.0,0.0,0.0,0.0,0.0,0.0,0.0,0.0,0.0,0.0,0.0,0.0,0.0,0.0,0.0,0.0,0.0,0.0,0.0,0.0,0.0,0.0,0.0,0.0,0.0,0.0,0.0,0.0,0.0,0.0,0.0,0.0,0.0,0.0,0.0,0.0,0.0,0.0,0.0,0.0,0.0,0.0,0.0,0.0,0.0,0.0,0.0,0.0,0.0,0.0,0.0,0.0,0.0,0.0,0.0,0.0,0.0,0.0,0.0,0.0,0.0,0.0,0.0,0.0,0.0,0.0,0.0,0.0,0.0,0.0,0.0,0.0,0.0,0.0,0.0,0.0,0.0,0.0,0.0,0.0,0.0,0.0,0.0,0.0,0.0,0.0,0.0,0.0,0.0,0.0,0.0,0.0,0.0,0.0,0.0,0.0,0.0,0.0,0.0,0.0,0.0,0.0,0.0,0.0,0.0,0.0,0.0,0.0,0.0,0.0,0.0,0.0,0.0,0.0,0.0,0.0,0.0,0.0,0.0,0.0,0.0,0.0,0.0,0.0,0.0,0.0,0.0,0.0,0.0,0.0,0.0,0.0,0.0,0.0,0.0,0.0,0.0,0.0,0.0,0.0,0.0,0.0,0.0,0.0,0.0,0.0,0.0,0.0,0.0,0.0,0.0,0.0,0.0,0.0,0.0,0.0,0.0,0.0,0.0,0.0,0.0,0.0,0.0,0.0,0.0,0.0,0.0,0.0,0.0,0.0,0.0,0.0,0.0,0.0,0.0,0.0,0.0,0.0,0.0,0.0,0.0,0.0,0.0,0.0,0.0,0.0,0.0,0.0,0.0,0.0,0.0,0.0,0.0,0.0,0.0,0.0,0.0,0.0,0.0,0.0,0.0,0.0,0.0,0.0,0.0,0.0,0.0,0.0,0.0,0.0,0.0,0.0,0.0,0.0,0.0,0.0,0.0,0.0,0.0,0.0,0.0,0.0,0.0,0.0,0.0,0.0,0.0,0.0,0.0,0.0,0.0,0.0,0.0,0.0,0.0,0.0,0.0,0.0,0.0,0.0,0.0,0.0,0.0,0.0,0.0,0.0,0.0,0.0,0.0,0.0,0.0,0.0,0.0,0.0,0.0,0.0,0.0,0.0,0.0,0.0,0.0,0.0,0.0,0.0,0.0,0.0,0.0,0.0,0.0,0.0,0.0,0.0,0.0,0.0,0.0,0.0,0.0,0.0,0.0,0.0,0.0,0.0,0.0,0.0,0.0,0.0,0.0,0.0,0.0,0.0,0.0,0.0,0.0,0.0,0.0,0.0,0.0,0.0,0.0,0.0,0.0,0.0,0.0,0.0,0.0,0.0,0.0,0.0,0.0,0.0,0.0,0.0,0.0,0.0,0.0,0.0,0.0,0.0,0.0,0.0,0.0,0.0,0.0,0.0,0.0,0.0,0.0,0.0,0.0,0.0,0.0,0.0,0.0,0.0,0.0,0.0,0.0,0.0,0.0,0.0,0.0,0.0,0.0,0.0,0.0,0.0,0.0,0.0,0.0,0.0,0.0,0.0,0.0,0.0,0.0,0.0,0.0,0.0,0.0,0.0,0.0,0.0,0.0,0.0,0.0,0.0,0.0,0.0,0.0,0.0,0.0,0.0,0.0,0.0,0.0,0.0,0.0,0.0,0.0,0.0,0.0,0.0,0.0,0.0,0.0,0.0,0.0,0.0,0.0,0.0,0.0,0.0,0.0,0.0,0.0,0.0,0.0,0.0,0.0,0.0,0.0,0.0,0.0,0.0,0.0,0.0,0.0,0.0,0.0,0.0,0.0,0.0,0.0,0.0,0.0,0.0,0.0,0.0,0.0,0.0,0.0,0.0,0.0,0.0,0.0,0.0,0.0,0.0,0.0,0.0,0.0,0.0,0.0,0.0,0.0,0.0,0.0,0.0,0.0,0.0,0.0,0.0,0.0,0.0,0.0,0.0,0.0,0.0,0.0,0.0,0.0,0.0,0.0,0.0,0.0,0.0,0.0,0.0,0.0,0.0,0.0,0.0,0.0,0.0,0.0,0.0,0.0,0.0,0.0,0.0,0.0,0.0,0.0,0.0,0.0,0.0,0.0,0.0,0.0,0.0,0.0,0.0,0.0,0.0,0.0,0.0,0.0,0.0,0.0,0.0,0.0,0.0,0.0,0.0,0.0,0.0,0.0,0.0,0.0,0.0,0.0,0.0,0.0,0.0,0.0,0.0,0.0,0.0,0.0,0.0,0.0,0.0,0.0,0.0,0.0,0.0,0.0,0.0,0.0,0.0,0.0,0.0,0.0,0.0,0.0,0.0,0.0,0.0,0.0,0.0,0.0,0.0,0.0,0.0,0.0,0.0,0.0,0.0,0.0,0.0,0.0,0.0,0.0,0.0,0.0,0.0,0.0,0.0,0.0,0.0,0.0,0.0,0.0,0.0,0.0,0.0,0.0,0.0,0.0,0.0,0.0,0.0,0.0,0.0,0.0,0.0,0.0,0.0,0.0,0.0,0.0,0.0,0.0,0.0,0.0,0.0,0.0,0.0,0.0,0.0,0.0,0.0,0.0,0.0,0.0,0.0,0.0,0.0,0.0,0.0,0.0,0.0,0.0,0.0,0.0,0.0,0.0,0.0,0.0,0.0,0.0,0.0,0.0,0.0,0.0,0.0,0.0,0.0,0.0,0.0,0.0,0.0,0.0,0.0,0.0,0.0,0.0,0.0,0.0,0.0,0.0,0.0,0.0,0.0,0.0,0.0,0.0,0.0,0.0,0.0,0.0,0.0,0.0,0.0,0.0,0.0,0.0,0.0,0.0,0.0,0.0,0.0,0.0,0.0,0.0,0.0,0.0,0.0,0.0,0.0,0.0,0.0,0.0,0.0,0.0,0.0,0.0,0.0,0.0,0.0,0.0,0.0,0.0,0.0,0.0,0.0,0.0,0.0,0.0,0.0,0.0,0.0,0.0,0.0,0.0,0.0,0.0,0.0,0.0,0.0,0.0,0.0,0.0,0.0,0.0,0.0,0.0,0.0,0.0,0.0,0.0,0.0,0.0,0.0,0.0,0.0,0.0,0.0,0.0,0.0,0.0,0.0,0.0,0.0,0.0,0.0,0.0,0.0,0.0,0.0,0.0,0.0,0.0,0.0,0.0,0.0,0.0,0.0,0.0,0.0,0.0,0.0,0.0,0.0,0.0,0.0,0.0,0.0,0.0,0.0,0.0,0.0,0.0,0.0,0.0,0.0,0.0,0.0,0.0,0.0,0.0,0.0,0.0,0.0,0.0,0.0,0.0,0.0,0.0,0.0,0.0,0.0,0.0,0.0,0.0,0.0,0.0,0.0,0.0,0.0,0.0,0.0,0.0,0.0,0.0,0.0,0.0,0.0,0.0,0.0,0.0,0.0,0.0,0.0,0.0,0.0,0.0,0.0,0.0,0.0,0.0,0.0,0.0,0.0,0.0,0.0,0.0,0.0,0.0,0.0,0.0,0.0,0.0,0.0,0.0,0.0,0.0,0.0,0.0,0.0,0.0,0.0,0.0,0.0,0.0,0.0,0.0,0.0,0.0,0.0,0.0,0.0,0.0,0.0,0.0,0.0,0.0,0.0,0.0,0.0,0.0,0.0,0.0,0.0,0.0,0.0,0.0,0.0,0.0,0.0,0.0,0.0,0.0,0.0,0.0,0.0,0.0,0.0,0.0,0.0,0.0,0.0,0.0,0.0,0.0,0.0,0.0,0.0,0.0,0.0,0.0,0.0,0.0,0.0,0.0,0.0,0.0,0.0,0.0,0.0,0.0,0.0,0.0,0.0,0.0,0.0,0.0,0.0,0.0,0.0,0.0,0.0,0.0,0.0,0.0,0.0,0.0,0.0,0.0,0.0,0.0,0.0,0.0,0.0,0.0,0.0,0.0,0.0,0.0,0.0,0.0,0.0,0.0,0.0,0.0,0.0,0.0,0.0,0.0,0.0,0.0,0.0,0.0,0.0,0.0,0.0,0.0,0.0,0.0,0.0,0.0,0.0,0.0,1.8215,0.0,0.0,0.0,0.0,0.0,0.0,0.0,0.0,0.0,0.0,0.0,0.0,0.0,0.0,0.0,0.0,0.0,0.0,0.0,0.0,0.0,0.0,0.0,0.0,0.0,0.0,0.0,0.0,0.0,0.0,0.0,0.0,0.0,0.0,0.0,0.0,0.0,0.0,0.0,0.0,0.0,0.0,0.0,0.0,0.0,0.0,0.0,0.0,0.0,0.0,0.0,0.0,0.0,0.0,0.0,0.0,0.0,0.0,0.0,0.0,0.0,0.0,0.0,0.0,0.0,0.0,0.0,0.0,0.0,0.0,0.0,0.0,0.0,0.0,0.0,0.0,0.0,0.0,0.0,0.0,0.0,0.0,0.0,0.0,0.0,0.0,0.0,0.0,0.0,0.0,0.0,0.0,0.0,0.0,0.0,0.0,0.0,0.0,0.0,0.0,0.0,0.0,0.0,0.0,0.0,0.0,0.0,0.0,0.0,0.0,0.0,0.0,0.0,0.0,0.0,0.0,1.8959,0.0,0.0,0.0,0.0,0.0,0.0,0.0,0.0,0.0,0.0,0.0,0.0,0.0,0.0,0.0,0.0,0.0,0.0,0.0,0.0,0.0,0.0,0.0,0.0,0.0,0.0,0.0,0.0,0.0,0.0,0.0,0.0,0.0,0.0,0.0,0.0,0.0,0.0,0.0,0.0,0.0,0.0,0.0,0.0,1.4526,0.0,0.0,0.0,0.0,0.0,0.0,0.0,0.0,0.0,0.0,0.0,0.0,0.0,0.0,0.0,0.0,0.0,0.0,0.0,0.0,0.0,0.0,0.0,0.0,0.0,0.0,0.0,0.0,0.0,0.0,0.0,0.0,0.0,0.0,0.0,0.0,0.0,0.0,0.0,0.0,0.0,0.0,0.0,0.0,0.0,0.0,0.0,0.0,0.0,0.0,0.0,0.0,0.0,0.0,0.0,0.0,0.0,0.0,0.0,0.0,0.0,0.0,0.0,0.0,1.9793,2.0497,2.0497,2.0502,2.0491,2.0506,2.0116,1.9557,0.0,0.0,0.0,0.0,0.0,0.0,0.0,0.0,0.0,0.0,0.0,0.0,0.0,0.0,0.0,0.0,0.0,0.0,0.0,0.0,0.0,0.0,0.0,0.0,0.0,0.0,0.0,0.0,0.0,0.0,0.0,0.0,0.0,0.0,0.0,0.0,0.0,0.0,0.0,0.0,0.0,0.0,0.0,1.4433,1.4504,0.0,0.0,0.0,0.0,0.0,0.0,0.0,0.0,0.0,0.0,0.0,0.0,0.0,0.0,0.0,0.0,0.0,0.0,0.0,0.0,0.0,0.0,0.0,0.0,0.0,0.0,0.0,0.0,0.0,0.0,0.0,0.0,0.0,0.0,0.0,0.0,0.0,0.0,0.0,0.0,0.0,0.0,1.8854,1.8096,0.0,0.0,0.0,0.0,0.0,0.0,0.0,0.0,0.0,0.0,0.0,0.0,0.0,0.0,2.0156,2.0152,2.021,2.0327,2.0322,2.0381,2.0497,2.0497,2.0495,2.0499,2.0506,0.0,2.0344,2.046,0.0,0.0,0.0,0.0,0.0,0.0,0.0,0.0,0.0,0.0,0.0,0.0,0.0,0.0,0.0,0.0,0.0,0.0,0.0,0.0,0.0,0.0,0.0,0.0,0.0,0.0,0.0,0.0,0.0,0.0,0.0,0.0,0.0,0.0,0.0,0.0,0.0,0.0,0.0,0.0,0.0,0.0,0.0,0.0,0.0,0.0,0.0,0.0,0.0,0.0,0.0,0.0,0.0,0.0,0.0,0.0,0.0,0.0,0.0,0.0,0.0,0.0,0.0,0.0,0.0,0.0,0.0,0.0,0.0,0.0,0.0,0.0,0.0,0.0,0.0,0.0,0.0,0.0,0.0,0.0,0.0,0.0,0.0,0.0,0.0,2.0256,1.989,1.9501,1.9465,1.9451,0.0,0.0,0.0,0.0,0.0,0.0,0.0,0.0,0.0,1.993,1.989,2.0064,2.0434,2.0438,2.0446,2.0446,2.0446,2.0446,2.0446,2.0446,2.0438,2.0434,2.0434,2.0439,2.0454,2.0484,2.0508,2.0511,0.0,0.0,0.0,0.0,0.0,2.0506,0.0,0.0,0.0,0.0,0.0,0.0,0.0,0.0,0.0,0.0,0.0,0.0,0.0,0.0,0.0,0.0,0.0,0.0,0.0,0.0,0.0,0.0,0.0,0.0,0.0,0.0,0.0,0.0,0.0,0.0,0.0,0.0,0.0,0.0,0.0,0.0,0.0,0.0,0.0,0.0,0.0,0.0,0.0,0.0,0.0,0.0,0.0,0.0,0.0,0.0,0.0,0.0,0.0,0.0,0.0,0.0,0.0,0.0,0.0,0.0,0.0,0.0,0.0,0.0,0.0,0.0,0.0,0.0,0.0,0.0,0.0,0.0,0.0,0.0,0.0,0.0,0.0,2.0555,2.0581,2.0594,2.0583,2.0566,0.0,0.0,0.0,0.0,0.0,0.0,2.0411,2.0399,2.0417,2.0446,2.0417,2.0392,2.0377,2.0372,2.0379,2.0379,2.0373,2.0366,2.0366,2.0366,2.0366,2.0366,2.0366,2.0366,2.0377,2.0443,2.0472,2.0464,2.0424,2.0434,2.0478,2.0473,2.0472,2.048,0.0,0.0,0.0,0.0,0.0,0.0,0.0,0.0,0.0,0.0,0.0,0.0,0.0,0.0,0.0,0.0,0.0,0.0,0.0,0.0,0.0,0.0,0.0,0.0,0.0,0.0,0.0,0.0,0.0,0.0,0.0,0.0,0.0,0.0,0.0,0.0,0.0,0.0,0.0,0.0,0.0,0.0,0.0,0.0,0.0,0.0,0.0,0.0,0.0,0.0,0.0,0.0,0.0,0.0,0.0,0.0,0.0,0.0,0.0,0.0,0.0,0.0,0.0,0.0,0.0,0.0,0.0,0.0,0.0,0.0,0.0,0.0,0.0,0.0,0.0,0.0,0.0,0.0,0.0,2.0597,2.0547,0.0,0.0,0.0,0.0,2.0399,2.0411,2.0392,2.0399,2.0399,2.0379,2.0308,2.0379,2.0379,2.0308,2.0308,2.0308,2.0308,2.0308,2.032,2.032,2.032,2.032,2.032,2.032,2.032,2.0308,2.0377,2.0418,2.0399,2.0394,2.0396,2.0411,2.0408,2.0418,2.041,0.0,0.0,0.0,0.0,0.0,0.0,0.0,0.0,0.0,0.0,0.0,0.0,0.0,0.0,0.0,0.0,0.0,0.0,0.0,0.0,0.0,0.0,0.0,0.0,0.0,0.0,0.0,0.0,0.0,0.0,0.0,0.0,0.0,0.0,0.0,0.0,0.0,0.0,0.0,0.0,0.0,0.0,0.0,0.0,0.0,0.0,0.0,0.0,0.0,0.0,0.0,0.0,0.0,0.0,0.0,0.0,0.0,0.0,0.0,0.0,0.0,0.0,0.0,0.0,0.0,0.0,0.0,0.0,0.0,0.0,0.0,0.0,0.0,0.0,0.0,0.0,0.0,0.0,0.0,2.0529,2.0472,0.0,0.0,2.0418,2.0404,2.0404,2.0366,2.0334,2.0334,2.0334,2.0314,2.0308,2.0308,2.0308,2.0308,2.0308,2.0308,2.0308,2.0301,2.0294,2.0294,2.0294,2.0294,2.0294,2.0294,2.0294,2.0301,2.0321,2.0334,2.0334,2.0334,2.0366,2.0398,2.039,2.0748,2.124,0.0,0.0,0.0,0.0,0.0,0.0,0.0,0.0,0.0,0.0,0.0,0.0,0.0,0.0,0.0,0.0,0.0,0.0,0.0,0.0,0.0,0.0,0.0,0.0,0.0,0.0,0.0,0.0,0.0,0.0,0.0,0.0,0.0,0.0,0.0,0.0,0.0,0.0,0.0,0.0,0.0,0.0,1.9338,0.0,0.0,0.0,0.0,0.0,0.0,0.0,0.0,0.0,0.0,0.0,0.0,0.0,0.0,0.0,0.0,0.0,0.0,0.0,0.0,0.0,0.0,0.0,0.0,0.0,0.0,0.0,0.0,0.0,0.0,0.0,0.0,0.0,0.0,0.0,2.0503,2.0526,2.0456,2.0402,2.0411,2.0385,2.0364,2.0364,2.0332,2.0294,2.0294,2.0294,2.0294,2.0306,2.0294,2.0294,2.0306,2.0299,2.0299,2.0306,2.0272,2.0272,2.0284,2.0573,2.0708,2.0727,2.1016,2.114,2.114,2.114,2.114,2.1128,2.0834,2.0952,2.123,2.1243,2.161,2.2105,0.0,0.0,0.0,0.0,0.0,0.0,0.0,0.0,0.0,0.0,0.0,0.0,0.0,0.0,0.0,0.0,0.0,0.0,0.0,0.0,0.0,0.0,0.0,0.0,0.0,0.0,0.0,0.0,0.0,0.0,0.0,0.0,0.0,0.0,0.0,0.0,0.0,0.0,0.0,0.0,0.0,0.0,1.9213,0.0,0.0,0.0,0.0,0.0,0.0,0.0,0.0,0.0,0.0,0.0,0.0,0.0,0.0,0.0,0.0,0.0,0.0,0.0,0.0,0.0,0.0,0.0,0.0,0.0,0.0,0.0,0.0,0.0,0.0,0.0,0.0,0.0,2.0594,2.0536,2.051,2.0585,2.0483,2.0394,2.0404,2.0341,2.0294,2.0294,2.0294,2.0294,2.0294,2.0294,2.0306,2.0304,2.0306,2.0306,2.0304,2.0319,2.0339,2.0335,2.0304,2.0288,2.0307,2.1144,2.1547,2.1585,2.243,2.2794,2.2793,2.2793,2.2812,2.2763,2.1957,2.2138,2.2909,2.2902,2.291,2.2936,0.0,0.0,0.0,0.0,0.0,0.0,0.0,0.0,0.0,0.0,0.0,0.0,0.0,0.0,0.0,0.0,0.0,0.0,0.0,0.0,0.0,0.0,0.0,0.0,0.0,0.0,0.0,0.0,0.0,0.0,0.0,0.0,0.0,0.0,0.0,0.0,0.0,0.0,0.0,0.0,0.0,0.0,1.4828,0.0,0.0,0.0,0.0,0.0,0.0,0.0,0.0,0.0,0.0,0.0,0.0,0.0,0.0,0.0,0.0,0.0,0.0,0.0,0.0,0.0,0.0,0.0,0.0,0.0,0.0,0.0,0.0,0.0,0.0,0.0,0.0,2.0594,2.0594,2.0536,2.0483,2.0454,2.0418,2.0379,2.0334,2.0311,2.0308,2.0308,2.0308,2.0308,2.0308,2.0308,2.0308,2.03,2.0308,2.0281,2.0227,2.0845,2.1163,2.1174,2.1751,2.201,2.2029,2.2259,2.2374,2.2374,2.2623,2.2719,2.2729,2.2729,2.3093,2.3583,2.2774,2.2615,2.2835,2.2824,2.3253,2.3941,0.0,0.0,0.0,0.0,0.0,0.0,0.0,0.0,0.0,0.0,0.0,0.0,0.0,0.0,0.0,0.0,0.0,0.0,0.0,0.0,0.0,0.0,0.0,0.0,0.0,0.0,0.0,0.0,0.0,0.0,0.0,0.0,0.0,0.0,0.0,0.0,0.0,0.0,0.0,0.0,0.0,0.0,1.0104,1.0245,1.1866,1.4054,1.3457,1.4896,1.7309,1.9031,0.0,0.0,0.0,0.0,0.0,0.0,0.0,0.0,0.0,0.0,0.0,0.0,0.0,0.0,0.0,0.0,0.0,0.0,0.0,0.0,0.0,0.0,0.0,0.0,2.0572,2.0568,2.0568,2.0543,2.0522,2.0456,2.0415,2.0365,2.032,2.0262,2.0269,2.0269,2.0269,2.0269,2.0269,2.0269,2.0433,2.0798,2.0798,2.0943,2.1242,2.1751,2.1991,2.2,2.2489,2.269,2.2709,2.3054,2.3207,0.0,2.359,2.3753,2.3744,2.3744,2.4051,0.0,0.0,0.0,0.0,0.0,2.4229,2.4783,0.0,0.0,0.0,0.0,0.0,0.0,0.0,0.0,0.0,0.0,0.0,0.0,0.0,0.0,0.0,0.0,0.0,0.0,0.0,0.0,0.0,0.0,0.0,0.0,0.0,0.0,0.0,0.0,0.0,0.0,0.0,0.0,0.0,0.0,0.0,0.0,0.0,0.0,0.0,0.0,0.0,0.0,0.5225,0.5553,0.599,0.6901,1.0476,1.2141,1.3324,1.7485,0.0,0.0,0.0,0.0,0.0,0.0,0.0,0.0,0.0,0.0,0.0,0.0,0.0,0.0,0.0,0.0,0.0,0.0,0.0,0.0,0.0,0.0,0.0,0.0,2.0551,2.0501,2.0499,2.0547,2.0566,2.0519,2.0456,2.038,2.0308,2.0242,2.0205,2.0197,2.0293,2.0342,2.0342,0.0,0.0,0.0,0.0,2.1981,2.2681,2.2786,2.2843,2.2853,2.2929,2.2986,2.3005,2.3722,2.4047,2.4085,2.4862,2.5198,2.5201,2.5201,2.5201,2.5135,2.4427,2.461,2.5321,2.538,2.5406,0.0,0.0,0.0,0.0,0.0,0.0,0.0,0.0,0.0,0.0,0.0,0.0,0.0,0.0,0.0,0.0,0.0,0.0,0.0,0.0,0.0,0.0,0.0,0.0,0.0,0.0,0.0,0.0,0.0,0.0,0.0,0.0,0.0,0.0,0.0,0.0,0.0,0.0,0.0,0.0,0.0,0.0,0.0,0.0845,0.1123,0.3236,0.5727,0.3588,0.4918,0.8385,1.2972,1.456,1.519,1.8619,0.0,0.0,0.0,0.0,0.0,0.0,0.0,0.0,0.0,0.0,0.0,0.0,0.0,0.0,0.0,0.0,0.0,0.0,0.0,0.0,2.052,2.0557,2.0554,2.0499,2.0519,2.0511,2.0499,2.0484,2.0425,2.0314,2.0287,2.0269,2.0197,2.084,2.1243,2.1243,2.1866,0.0,2.246,2.248,2.2547,2.2709,2.335,2.3665,2.3681,0.0,0.0,2.4725,2.4866,2.4943,2.4962,2.5126,2.5203,2.5203,2.5203,2.5195,2.519,2.5098,2.5157,2.5321,2.538,2.5398,2.5397,0.0,0.0,0.0,0.0,0.0,0.0,0.0,0.0,0.0,0.0,0.0,0.0,0.0,0.0,0.0,0.0,0.0,0.0,0.0,0.0,0.0,0.0,0.0,0.0,0.0,0.0,0.0,0.0,0.0,0.0,0.0,0.0,0.0,0.0,0.0,0.0,0.0,0.0,0.0,0.0,0.0,0.0,-0.4456,-0.3722,-0.2251,-0.0457,0.0214,0.1619,0.3909,0.8657,1.0218,1.094,1.5168,1.6594,1.7118,0.0,0.0,0.0,0.0,0.0,0.0,0.0,0.0,0.0,0.0,0.0,0.0,0.0,0.0,2.0549,0.0,0.0,2.0546,2.0503,2.0537,2.0547,2.05,2.0497,2.051,2.0508,2.0461,2.0575,2.0865,2.0901,2.1034,2.1388,2.1799,2.2048,2.2048,2.2421,2.2842,2.3282,2.3301,2.3511,2.3951,2.4342,2.4553,2.4549,2.5,2.5191,2.5191,2.5191,2.5191,2.5191,2.5191,2.5191,2.5191,2.5191,2.5203,2.5195,2.5239,2.5271,2.5292,2.5341,2.537,2.5398,0.0,0.0,0.0,0.0,0.0,0.0,0.0,0.0,0.0,0.0,0.0,0.0,0.0,0.0,0.0,0.0,0.0,0.0,0.0,0.0,0.0,0.0,0.0,0.0,0.0,0.0,0.0,0.0,0.0,0.0,0.0,0.0,0.0,0.0,0.0,0.0,0.0,0.0,0.0,0.0,0.0,0.0,-0.8635,-0.7572,-0.7196,-0.6645,-0.2399,-0.1003,-0.0469,0.4247,0.5815,0.6689,1.1724,1.3404,1.4358,1.8618,1.9966,0.0,0.0,0.0,0.0,0.0,0.0,0.0,0.0,0.0,2.0523,2.0588,2.0594,2.0593,2.0593,2.0599,2.0585,2.0505,2.0495,2.0553,2.0702,2.0733,2.0791,2.0966,2.0783,2.0947,2.1695,2.1751,2.1989,2.2583,2.2743,2.2827,2.2827,2.2991,2.3411,2.4118,2.4148,2.4492,2.5191,2.5191,2.5191,2.5191,2.5191,2.5191,2.5191,2.5191,2.5191,2.5191,2.5191,2.5191,2.5191,2.5191,2.5191,2.5191,2.5195,2.5239,2.5282,2.5311,2.5322,2.5389,0.0,0.0,0.0,0.0,0.0,0.0,0.0,0.0,0.0,0.0,0.0,0.0,0.0,0.0,0.0,0.0,0.0,0.0,0.0,0.0,0.0,0.0,0.0,0.0,0.0,0.0,0.0,0.0,0.0,0.0,0.0,0.0,0.0,0.0,0.0,0.0,0.0,0.0,0.0,0.0,0.0,0.0,-0.8895,-0.8357,-0.8028,-0.7709,-0.6514,-0.5931,-0.5086,-0.0621,0.1171,0.2887,1.0879,1.3485,1.4452,1.8786,0.0,2.0041,0.0,0.0,0.0,2.0398,2.0385,2.0416,0.0,0.0,2.0527,2.0594,2.0597,2.0593,2.0593,2.0594,2.0582,2.0505,2.051,2.0753,2.1473,2.1561,2.1852,2.2624,2.2027,2.1865,2.2668,2.2697,2.266,2.269,2.3294,2.3667,2.3667,2.4395,2.4865,2.496,2.5015,2.5096,2.5191,2.5191,2.5191,2.5191,2.5191,2.5191,2.5191,2.5191,2.5191,2.5191,2.5191,2.5191,2.5191,2.5191,2.5191,2.5191,2.5191,2.5206,2.5222,2.5282,2.5312,2.5313,0.0,0.0,0.0,0.0,0.0,0.0,0.0,0.0,0.0,0.0,0.0,0.0,0.0,0.0,0.0,0.0,0.0,0.0,0.0,0.0,0.0,0.0,0.0,0.0,0.0,0.0,0.0,0.0,0.0,0.0,0.0,0.0,0.0,0.0,0.0,0.0,0.0,0.0,0.0,0.0,0.0,0.0,-0.9496,-0.8935,-0.8643,-0.848,-0.7724,-0.7308,0.0,0.0,-0.3703,-0.2218,0.3779,0.7614,1.0764,1.5017,1.8087,0.0,2.0269,0.0,0.0,0.0,2.0434,2.0467,2.05,2.049,2.0525,2.0585,2.0605,2.0604,2.0602,2.0602,2.0586,0.0,2.0935,2.137,2.1662,2.2131,2.2765,2.3599,2.3386,2.3295,2.3608,2.3624,2.378,2.4178,2.4502,2.4651,2.4626,2.495,2.5137,2.5107,2.5139,2.5151,2.5151,2.5144,2.5137,2.5137,2.518,2.5191,2.5191,2.5191,2.5191,2.5191,2.5191,2.5191,2.5191,2.5191,2.5191,2.5191,2.5191,2.5195,2.519,2.5241,2.5273,2.5313,0.0,0.0,0.0,0.0,0.0,0.0,0.0,0.0,0.0,0.0,0.0,0.0,0.0,0.0,0.0,0.0,0.0,0.0,0.0,0.0,0.0,0.0,0.0,0.0,0.0,0.0,0.0,0.0,0.0,0.0,0.0,0.0,0.0,0.0,0.0,0.0,0.0,0.0,0.0,0.0,0.0,0.0,-0.998,-0.9457,-0.9226,-0.9016,-0.8129,-0.7716,0.0,0.0,-0.6677,-0.5549,-0.1265,0.2505,0.6168,1.0481,1.4924,1.8716,1.9969,0.0,0.0,2.0408,2.0458,2.0476,2.0503,2.0508,2.0524,2.0585,2.0602,2.0604,2.0605,2.0605,0.0,2.0824,2.1366,2.1913,2.2369,2.294,2.3637,2.4467,2.4563,2.4563,2.4556,2.454,2.4711,2.5265,2.5284,2.5243,2.5209,2.5209,2.5195,2.5101,2.512,2.5107,2.5101,2.5107,2.5088,2.5088,2.5156,2.5168,2.5168,2.5191,2.5191,2.5191,2.5191,2.5191,2.5191,2.5191,2.5191,2.5191,2.5191,2.5195,2.5209,2.5201,2.5243,2.5293,0.0,0.0,0.0,0.0,0.0,0.0,0.0,0.0,0.0,0.0,0.0,0.0,0.0,0.0,0.0,0.0,0.0,0.0,0.0,0.0,0.0,0.0,0.0,0.0,0.0,0.0,0.0,0.0,0.0,0.0,0.0,0.0,0.0,0.0,0.0,0.0,0.0,0.0,0.0,0.0,0.0,0.0,-1.0088,-1.0019,-0.9753,-0.9355,-0.8283,0.0,0.0,0.0,-0.6774,-0.5711,-0.1293,0.0211,0.0,0.5937,1.049,0.0,0.0,0.0,2.0417,2.0473,2.0444,2.0418,2.0481,2.0505,2.0526,2.0598,2.0594,2.0594,2.0594,2.0599,2.085,2.1636,2.1725,2.2289,2.3972,2.4199,2.4486,2.5356,2.5453,2.5453,0.0,2.5337,2.5283,2.5293,2.5244,2.5192,2.5192,2.5252,2.5231,2.5096,2.5157,2.516,2.5101,2.5101,2.5101,2.5101,2.5088,2.5113,2.5113,2.5168,2.5191,2.5191,2.5191,2.5191,2.5191,2.5191,2.5191,2.5191,2.5191,2.5206,2.5192,2.5192,2.5252,2.5292,0.0,0.0,0.0,0.0,0.0,0.0,0.0,0.0,0.0,0.0,0.0,0.0,0.0,0.0,0.0,0.0,0.0,0.0,0.0,0.0,0.0,0.0,0.0,0.0,0.0,0.0,0.0,0.0,0.0,0.0,0.0,0.0,0.0,0.0,0.0,0.0,0.0,0.0,0.0,0.0,0.0,0.0,-1.0428,-1.04,-1.0166,-0.9744,0.0,0.0,0.0,0.0,0.0,0.0,-0.4654,0.0,0.0,0.5888,0.0,0.0,0.0,0.0,2.0354,2.042,2.0456,2.0474,2.0495,2.0502,2.0526,2.0583,2.0565,2.0722,2.1357,2.0941,2.0982,2.2377,2.2536,2.2908,2.4082,2.4706,2.5163,2.5472,2.5511,0.0,0.0,0.0,0.0,2.5421,2.5415,2.5369,2.5265,2.5253,2.519,2.5087,2.5076,2.5057,2.5037,2.5044,2.5025,2.5025,2.5076,2.5101,2.5113,2.5168,2.5191,2.5191,2.5191,2.5191,2.5191,2.5191,2.5191,2.5191,2.5191,2.5195,2.5209,2.5201,2.5252,2.5292,0.0,0.0,0.0,0.0,0.0,0.0,0.0,0.0,0.0,0.0,0.0,0.0,0.0,0.0,0.0,0.0,0.0,0.0,0.0,0.0,0.0,0.0,0.0,0.0,0.0,0.0,0.0,0.0,0.0,0.0,0.0,0.0,0.0,0.0,0.0,0.0,0.0,0.0,0.0,0.0,0.0,0.0,-1.0916,-1.084,-1.0582,0.0,0.0,0.0,0.0,0.0,0.0,0.0,0.0,0.0,0.0,0.0,0.0,0.0,0.0,1.8203,2.034,2.0386,2.0453,2.0506,2.0492,2.05,2.0524,2.0585,2.0566,2.0722,2.1324,2.0946,2.1087,2.2765,2.2984,2.3346,2.4536,2.5139,2.5464,2.5511,2.5511,0.0,0.0,0.0,0.0,2.5511,2.5511,2.5456,2.5376,2.5322,2.5243,2.5141,2.5082,2.5038,2.501,2.5004,2.4999,2.4993,2.5063,2.5101,2.5113,2.5168,2.5191,2.521,2.5125,2.5082,2.5082,2.5082,2.5082,2.5101,2.5168,2.5195,2.5209,2.5201,2.5233,2.5302,0.0,0.0,0.0,0.0,0.0,0.0,0.0,0.0,0.0,0.0,0.0,0.0,0.0,0.0,0.0,0.0,0.0,0.0,0.0,0.0,0.0,0.0,0.0,0.0,0.0,0.0,0.0,0.0,0.0,0.0,0.0,0.0,0.0,0.0,0.0,0.0,0.0,0.0,0.0,0.0,0.0,0.0,-1.1479,-1.133,0.0,0.0,0.0,0.0,0.0,0.0,0.0,0.0,0.0,0.0,0.0,0.0,0.0,0.9169,1.7735,2.0224,2.0395,2.0391,2.0449,2.0506,2.049,2.0495,2.0519,2.0585,2.0605,2.0605,0.0,0.0,2.1168,2.2885,2.3069,2.3611,2.5342,2.5485,2.5429,0.0,0.0,0.0,0.0,0.0,0.0,2.5511,0.0,2.5511,2.5511,2.5484,2.5406,2.5212,2.5212,2.5122,2.501,2.501,2.5004,2.4993,2.507,2.5095,2.5113,2.5168,2.5191,2.518,2.4987,2.4902,2.4915,2.4902,2.4902,2.4929,2.5125,2.5206,2.5192,2.5192,2.5243,2.5303,0.0,0.0,0.0,0.0,0.0,0.0,0.0,0.0,0.0,0.0,0.0,0.0,0.0,0.0,0.0,0.0,0.0,0.0,0.0,0.0,0.0,0.0,0.0,0.0,0.0,0.0,0.0,0.0,0.0,0.0,0.0,0.0,0.0,0.0,0.0,0.0,0.0,0.0,0.0,0.0,0.0,0.0,-1.1616,0.0,0.0,0.0,0.0,0.0,0.0,0.0,0.0,0.0,0.0,0.0,-0.4257,0.0,0.0,0.85,1.3995,1.7849,2.034,2.032,2.0376,2.0449,2.0483,2.0497,2.0529,2.0582,2.0558,2.0732,0.0,0.0,0.0,2.3552,2.3367,0.0,2.5209,2.5418,0.0,0.0,0.0,2.5511,2.5511,2.5511,0.0,0.0,2.5511,2.5511,2.5511,2.5404,2.5303,2.5192,2.5145,2.5088,2.501,2.501,2.5004,2.4993,2.507,2.5095,2.5113,2.5168,2.5191,2.518,2.4987,2.4987,2.5113,2.4974,2.4987,2.5125,2.518,2.5206,2.5192,2.5192,2.5243,2.5303,0.0,0.0,0.0,0.0,0.0,0.0,0.0,0.0,0.0,0.0,0.0,0.0,0.0,0.0,0.0,0.0,0.0,0.0,0.0,0.0,0.0,0.0,0.0,0.0,0.0,0.0,0.0,0.0,0.0,0.0,0.0,0.0,0.0,0.0,0.0,0.0,0.0,0.0,0.0,0.0,0.0,0.0,0.0,0.0,0.0,0.0,0.0,0.0,0.0,0.0,0.0,-0.6295,-0.6349,-0.597,-0.467,-0.0287,0.0,0.8299,1.2633,1.6997,2.0341,2.0334,2.0366,2.0418,2.0471,2.0506,2.0516,2.0596,2.0572,0.0,0.0,0.0,0.0,0.0,0.0,0.0,2.5205,2.5432,2.5404,0.0,2.5456,0.0,2.5511,2.5511,2.5511,0.0,2.5511,2.5511,2.5511,2.544,2.535,2.5254,2.5203,2.5134,2.5044,2.5004,2.5004,2.4993,2.507,2.5095,2.5113,2.5168,2.5191,2.518,0.0,2.4974,2.5101,2.4993,2.5,2.5106,2.5113,2.5172,2.5222,2.5138,2.5182,2.5303,0.0,0.0,0.0,0.0,0.0,0.0,0.0,0.0,0.0,0.0,0.0,0.0,0.0,0.0,0.0,0.0,0.0,0.0,0.0,0.0,0.0,0.0,0.0,0.0,0.0,0.0,0.0,0.0,0.0,0.0,0.0,0.0,0.0,0.0,0.0,0.0,0.0,0.0,0.0,0.0,0.0,0.0,0.0,0.0,0.0,0.0,0.0,0.0,0.0,0.0,-0.7848,-0.6683,-0.6349,-0.6093,-0.4949,-0.0215,0.4116,0.8334,1.2618,1.7029,2.038,2.039,2.0385,2.0428,2.046,2.049,2.05,2.0562,0.0,0.0,2.059,0.0,2.1112,2.2732,0.0,2.3508,2.5236,2.5443,2.5397,2.5393,2.5401,2.5429,2.5484,2.5511,2.5511,2.5511,2.5511,2.5511,2.5511,2.5511,2.544,2.5302,2.5293,2.5224,2.5113,2.5038,2.4999,2.5025,2.507,2.5107,2.5113,2.5168,2.5191,2.518,0.0,0.0,2.5038,2.5006,2.5,2.5031,2.5032,2.513,2.5271,2.5111,2.5157,2.5303,0.0,0.0,0.0,0.0,0.0,0.0,0.0,0.0,0.0,0.0,0.0,0.0,0.0,0.0,0.0,0.0,0.0,0.0,0.0,0.0,0.0,0.0,0.0,0.0,0.0,0.0,0.0,0.0,0.0,0.0,0.0,0.0,0.0,0.0,0.0,0.0,0.0,0.0,0.0,0.0,0.0,0.0,0.0,0.0,0.0,0.0,0.0,0.0,0.0,0.0,-0.7931,-0.6894,-0.6683,-0.6392,-0.5204,-0.0501,0.3981,0.8334,1.2618,1.6989,2.0321,2.0314,2.0366,2.0408,2.0413,2.0425,0.0,0.0,0.0,2.0525,2.0525,2.0552,0.0,2.2663,0.0,0.0,0.0,0.0,0.0,0.0,0.0,0.0,0.0,0.0,0.0,0.0,0.0,0.0,2.5511,2.5511,2.544,2.5302,2.5254,2.5179,2.5101,2.5087,2.5094,2.507,2.5088,2.5125,2.518,2.5191,2.5191,2.518,0.0,0.0,2.5153,2.5044,2.5082,2.516,2.5179,2.522,2.5311,2.5261,2.5262,2.5303,0.0,0.0,0.0,0.0,0.0,0.0,0.0,0.0,0.0,0.0,0.0,0.0,0.0,0.0,0.0,0.0,0.0,0.0,0.0,0.0,0.0,0.0,0.0,0.0,0.0,0.0,0.0,0.0,0.0,0.0,0.0,0.0,0.0,0.0,0.0,0.0,0.0,0.0,0.0,0.0,0.0,0.0,0.0,0.0,0.0,0.0,0.0,0.0,0.0,0.0,-0.8013,-0.7189,-0.681,-0.6598,-0.5506,-0.0729,0.3866,0.8287,1.2537,1.6934,2.0308,2.0306,2.032,2.034,2.0347,0.0,0.0,0.0,0.0,2.0453,2.0453,0.0,0.0,0.0,0.0,0.0,0.0,0.0,0.0,0.0,0.0,0.0,0.0,0.0,0.0,0.0,0.0,0.0,2.5511,2.5511,2.5476,2.5412,2.5322,2.5244,2.5203,2.5192,2.5212,2.5201,2.5243,2.5274,2.5303,2.5262,2.525,2.525,2.5111,0.0,2.5209,2.5164,2.5198,2.5243,2.5141,2.5182,2.5283,2.5171,2.5203,2.5303,0.0,0.0,0.0,0.0,0.0,0.0,0.0,0.0,0.0,0.0,0.0,0.0,0.0,0.0,0.0,0.0,0.0,0.0,0.0,0.0,0.0,0.0,0.0,0.0,0.0,0.0,0.0,0.0,0.0,0.0,0.0,0.0,0.0,0.0,0.0,0.0,0.0,0.0,0.0,0.0,0.0,0.0,0.0,0.0,0.0,0.0,0.0,0.0,0.0,0.0,-0.8021,-0.7356,-0.6894,-0.6725,-0.576,-0.0926,0.3735,0.8215,1.2447,1.688,2.0294,2.0292,2.0304,2.0292,2.0295,2.0302,0.0,0.0,0.0,2.0381,2.0381,0.0,0.0,0.0,0.0,0.0,0.0,0.0,0.0,0.0,0.0,0.0,0.0,0.0,0.0,0.0,0.0,0.0,2.5511,2.5511,2.5511,2.5511,2.5404,2.5339,2.5311,2.5312,2.5312,2.5311,2.5374,2.5398,2.5406,2.5359,2.5322,2.5322,2.5243,0.0,0.0,2.5273,2.5302,2.5274,2.5141,2.5163,2.5274,2.5111,2.5163,2.5303,0.0,0.0,0.0,0.0,0.0,0.0,0.0,0.0,0.0,0.0,0.0,0.0,0.0,0.0,0.0,0.0,0.0,0.0,0.0,0.0,0.0,0.0,0.0,0.0,0.0,0.0,0.0,0.0,0.0,0.0,0.0,0.0,0.0,0.0,0.0,0.0,0.0,0.0,0.0,0.0,0.0,0.0,0.0,0.0,0.0,0.0,0.0,0.0,0.0,0.0,0.0,-0.7209,-0.7027,-0.6852,-0.5807,-0.1183,0.0,0.0,1.2447,1.688,2.0294,2.0294,2.0299,2.0304,2.0311,0.0,0.0,0.0,2.0308,2.0314,2.0314,2.0405,0.0,0.0,0.0,0.0,0.0,0.0,0.0,0.0,0.0,0.0,0.0,0.0,0.0,0.0,0.0,0.0,0.0,2.5511,2.5511,2.5511,2.5484,2.5456,2.5393,2.539,2.539,2.5393,2.5398,2.5406,2.5387,2.5379,2.5395,2.5391,0.0,0.0,0.0,2.5332,2.5302,2.5303,2.5274,2.5274,2.5303,2.5274,2.5274,2.5303,0.0,0.0,0.0,0.0,0.0,0.0,0.0,0.0,0.0,0.0,0.0,0.0,0.0,0.0,0.0,0.0,0.0,0.0,0.0,0.0,0.0,0.0,0.0,0.0,0.0,0.0,0.0,0.0,0.0,0.0,0.0,0.0,0.0,0.0,0.0,0.0,0.0,0.0,0.0,0.0,0.0,0.0,0.0,0.0,0.0,0.0,0.0,0.0,0.0,0.0,0.0,0.0,-0.7724,-0.7398,0.0,0.0,0.3377,0.7968,1.239,1.6879,2.0292,2.0296,2.0308,2.03,2.03,0.0,0.0,0.0,2.0235,2.0242,2.0242,2.0347,2.0701,0.0,0.0,0.0,0.0,0.0,0.0,0.0,0.0,0.0,0.0,0.0,0.0,0.0,0.0,0.0,0.0,2.5511,2.5511,2.5511,2.5495,2.549,2.5464,2.5493,2.5511,2.5525,2.5568,2.5579,2.5579,2.5499,2.5466,2.5456,0.0,0.0,0.0,2.5303,2.5293,2.5303,2.5303,2.5303,2.5303,2.5303,2.5303,2.5313,0.0,0.0,0.0,0.0,0.0,0.0,0.0,0.0,0.0,0.0,0.0,0.0,0.0,0.0,0.0,0.0,0.0,0.0,0.0,0.0,0.0,0.0,0.0,0.0,0.0,0.0,0.0,0.0,0.0,0.0,0.0,0.0,0.0,0.0,0.0,0.0,0.0,0.0,0.0,0.0,0.0,0.0,0.0,0.0,0.0,0.0,0.0,0.0,0.0,0.0,0.0,0.0,0.0,0.0,0.0,0.0,0.3199,0.7805,1.2355,1.6885,2.0296,2.03,2.0292,2.0312,0.0,0.0,0.0,2.0192,2.0195,2.0197,2.0197,2.028,2.0553,0.0,0.0,0.0,0.0,0.0,0.0,0.0,0.0,0.0,0.0,0.0,0.0,0.0,0.0,0.0,0.0,2.5524,2.5517,2.5492,2.549,2.5499,2.5531,2.5585,2.561,2.5639,2.5671,2.5699,2.5703,2.5591,2.5554,2.5525,0.0,0.0,0.0,2.5313,2.5303,2.5303,2.5322,2.5313,2.5303,2.5322,2.5322,2.5341,0.0,0.0,0.0,0.0,0.0,0.0,0.0,0.0,0.0,0.0,0.0,0.0,0.0,0.0,0.0,0.0,0.0,0.0,0.0,0.0,0.0,0.0,0.0,0.0,0.0,0.0,0.0,0.0,0.0,0.0,0.0,0.0,0.0,0.0,0.0,0.0,0.0,0.0,0.0,0.0,0.0,0.0,0.0,0.0,0.0,0.0,0.0,0.0,0.0,0.0,0.0,0.0,0.0,0.0,0.0,0.0,0.303,0.7794,1.2348,1.6879,2.0304,2.0304,2.0308,2.0312,0.0,0.0,0.0,2.0192,2.0195,2.0197,2.0197,2.0265,2.0308,2.0308,0.0,0.0,0.0,0.0,0.0,0.0,0.0,0.0,0.0,0.0,0.0,0.0,0.0,0.0,0.0,2.56,2.556,2.5492,2.549,2.5531,2.5601,2.5595,2.5639,2.5699,2.5699,2.5703,2.5691,2.5691,2.5664,0.0,0.0,0.0,0.0,2.5331,2.5303,2.5313,2.5361,2.5361,2.5313,2.5361,2.5398,2.5398,0.0,0.0,0.0,0.0,0.0,0.0,0.0,0.0,0.0,0.0,0.0,0.0,0.0,0.0,0.0,0.0,0.0,0.0,0.0,0.0,0.0,0.0,0.0,0.0,0.0,0.0,0.0,0.0,0.0,0.0,0.0,0.0,0.0,0.0,0.0,0.0,0.0,0.0,0.0,0.0,0.0,0.0,0.0,0.0,0.0,0.0,0.0,0.0,0.0,0.0,0.0,0.0,0.0,0.0,0.0,0.0,0.0,0.0,0.4328,1.0161,1.5739,1.5837,1.8024,2.019,2.0277,0.0,0.0,2.0205,2.0208,2.0182,2.0144,2.0195,2.0246,2.0282,2.1797,0.0,0.0,0.0,0.0,0.0,0.0,0.0,0.0,0.0,0.0,0.0,0.0,0.0,0.0,0.0,2.5589,2.557,2.5562,2.5585,2.5595,2.5658,2.5671,2.5699,2.5699,2.5703,2.5694,2.5694,0.0,0.0,0.0,0.0,0.0,2.5446,2.5432,2.5432,2.5453,2.5456,2.5421,2.5415,2.5397,2.5502,0.0,0.0,0.0,0.0,0.0,0.0,0.0,0.0,0.0,0.0,0.0,0.0,0.0,0.0,0.0,0.0,0.0,0.0,0.0,0.0,0.0,0.0,0.0,0.0,0.0,0.0,0.0,0.0,0.0,0.0,0.0,0.0,0.0,0.0,0.0,0.0,0.0,0.0,0.0,0.0,0.0,0.0,0.0,0.0,0.0,0.0,0.0,0.0,0.0,0.0,0.0,0.0,0.0,0.0,0.0,0.0,0.0,0.0,0.0,1.0669,1.6001,1.6088,1.808,0.0,0.0,0.0,0.0,0.0,0.0,2.0155,2.0117,2.0124,2.0184,2.0272,2.1731,0.0,0.0,0.0,0.0,0.0,0.0,0.0,0.0,0.0,0.0,0.0,0.0,0.0,0.0,0.0,2.5637,2.5639,2.5604,2.5604,2.5595,2.5675,2.5707,2.5691,2.5691,2.5697,2.5704,2.5704,0.0,0.0,0.0,0.0,0.0,2.5504,2.5492,2.5493,2.5524,2.5515,2.5503,2.5479,2.5481,2.5608,0.0,0.0,0.0,0.0,0.0,0.0,0.0,0.0,0.0,0.0,0.0,0.0,0.0,0.0,0.0,0.0,0.0,0.0,0.0,0.0,0.0,0.0,0.0,0.0,0.0,0.0,0.0,0.0,0.0,0.0,0.0,0.0,0.0,0.0,0.0,0.0,0.0,0.0,0.0,0.0,0.0,0.0,0.0,0.0,0.0,0.0,0.0,0.0,0.0,0.0,0.0,0.0,0.0,0.0,0.0,0.0,0.0,0.0,0.0,0.0,0.0,0.0,0.0,0.0,0.0,0.0,0.0,0.0,0.0,0.0,0.0,2.0088,2.0133,2.0262,0.0,0.0,0.0,0.0,0.0,0.0,0.0,0.0,0.0,0.0,0.0,0.0,0.0,0.0,0.0,0.0,2.5703,2.5703,2.5648,2.5609,2.5609,2.5664,2.5697,2.571,2.571,2.5693,2.5698,2.5698,0.0,0.0,0.0,0.0,0.0,2.5515,2.5511,2.5511,2.559,2.5575,2.5514,2.5577,2.56,2.573,0.0,0.0,0.0,0.0,0.0,0.0,0.0,0.0,0.0,0.0,0.0,0.0,0.0,0.0,0.0,0.0,0.0,0.0,0.0,0.0,0.0,0.0,0.0,0.0,0.0,0.0,0.0,0.0,0.0,0.0,0.0,0.0,0.0,0.0,0.0,0.0,0.0,0.0,0.0,0.0,0.0,0.0,0.0,0.0,0.0,0.0,0.0,0.0,0.0,0.0,0.0,0.0,0.0,0.0,0.0,0.0,0.0,0.0,0.0,0.0,0.0,0.0,0.0,0.0,0.0,0.0,0.0,0.0,0.0,0.0,0.0,0.0,0.0,0.0,0.0,0.0,0.0,0.0,0.0,0.0,0.0,0.0,0.0,0.0,0.0,0.0,0.0,0.0,0.0,0.0,2.57,2.57,2.5679,2.5687,2.5687,2.5691,2.5697,2.571,2.571,2.5693,2.5698,2.5698,0.0,0.0,0.0,0.0,2.5648,2.5648,2.5645,2.5658,2.5671,2.5664,2.5648,2.5609,2.5605,2.5814,0.0,0.0,0.0,0.0,0.0,0.0,0.0,0.0,0.0,0.0,0.0,0.0,0.0,0.0,0.0,0.0,0.0,0.0,0.0,0.0,0.0,0.0,0.0,0.0,0.0,0.0,0.0,0.0,0.0,0.0,0.0,0.0,0.0,0.0,0.0,0.0,0.0,0.0,0.0,0.0,0.0,0.0,0.0,0.0,0.0,0.0,-0.7244,0.0,0.0,-0.7663,-0.7363,-0.6937,0.0,0.0,0.0,0.0,0.0,0.0,0.0,0.0,0.0,0.0,0.0,0.0,0.0,0.0,0.0,0.0,0.0,0.0,0.0,0.0,0.0,0.0,0.0,0.0,0.0,0.0,0.0,0.0,0.0,0.0,0.0,0.0,0.0,0.0,0.0,0.0,0.0,0.0,2.5644,2.5641,2.5641,2.5663,2.5707,2.5707,2.569,2.5698,2.5698,2.5701,2.5703,2.5703,0.0,0.0,0.0,0.0,2.5707,2.5707,2.5707,2.5707,2.5701,2.5691,2.5702,2.5652,2.5646,2.5881,0.0,0.0,0.0,0.0,0.0,0.0,0.0,0.0,0.0,0.0,0.0,0.0,0.0,0.0,0.0,0.0,0.0,0.0,0.0,0.0,0.0,0.0,0.0,0.0,0.0,0.0,0.0,0.0,0.0,0.0,0.0,0.0,0.0,0.0,0.0,0.0,0.0,0.0,0.0,0.0,0.0,0.0,0.0,0.0,0.0,0.0,0.0,0.0,0.0,-0.7245,-0.7321,-0.7356,-0.7021,0.0,0.0,0.0,0.0,0.0,0.0,0.0,0.0,0.0,0.0,0.0,0.0,0.0,0.0,0.0,0.0,0.0,0.0,0.0,0.0,0.0,0.0,0.0,0.0,0.0,0.0,0.0,0.0,0.0,0.0,0.0,0.0,0.0,0.0,0.0,0.0,0.0,0.0,2.5601,2.5601,2.564,2.5672,2.567,2.5672,2.5676,2.5676,2.5676,2.5696,2.5694,0.0,0.0,0.0,0.0,2.5709,2.5707,2.5707,2.5707,2.5697,2.5702,2.5703,2.5703,2.5703,2.5937,0.0,0.0,0.0,0.0,0.0,0.0,0.0,0.0,0.0,0.0,0.0,0.0,0.0,0.0,0.0,0.0,0.0,0.0,0.0,0.0,0.0,0.0,0.0,0.0,0.0,0.0,0.0,0.0,0.0,0.0,0.0,0.0,0.0,0.0,0.0,0.0,0.0,0.0,0.0,0.0,0.0,0.0,0.0,0.0,0.0,0.0,0.0,0.0,0.0,-0.6562,-0.6781,-0.6907,-0.655,0.0,0.0,0.0,0.0,0.0,0.0,0.0,0.0,0.0,0.0,0.0,0.0,0.0,0.0,0.0,0.0,0.0,0.0,0.0,0.0,0.0,0.0,0.0,0.0,0.0,0.0,0.0,0.0,0.0,0.0,0.0,0.0,0.0,0.0,0.0,0.0,0.0,0.0,2.5593,2.5593,2.5603,2.5618,2.562,2.562,2.5618,2.5618,2.5618,2.5618,2.5662,2.5703,0.0,0.0,2.5698,2.5698,2.5691,2.5707,2.5707,2.5709,2.5698,2.5703,2.5703,2.5703,2.5957,0.0,0.0,0.0,0.0,0.0,0.0,0.0,0.0,0.0,0.0,0.0,0.0,0.0,0.0,0.0,0.0,0.0,0.0,0.0,0.0,0.0,0.0,0.0,0.0,0.0,0.0,0.0,0.0,0.0,0.0,0.0,0.0,0.0,0.0,0.0,0.0,0.0,0.0,0.0,0.0,0.0,0.0,0.0,0.0,0.0,0.0,0.0,0.0,0.0,0.0,-0.6605,-0.6956,-0.6337,0.0,0.0,0.0,0.0,0.0,0.5695,0.9906,0.0,0.0,0.0,0.0,0.0,0.0,0.0,0.0,0.0,0.0,0.0,0.0,0.0,0.0,0.0,0.0,0.0,0.0,0.0,0.0,0.0,0.0,0.0,0.0,0.0,0.0,0.0,0.0,0.0,0.0,0.0,0.0,2.56,2.5604,2.5598,2.5601,2.56,2.5609,2.5609,2.5607,2.5605,2.5631,2.5655,2.5657,0.0,2.5661,2.5698,2.5701,2.5703,2.5707,2.5707,2.5698,2.5703,2.5703,2.6308,2.722,0.0,0.0,0.0,0.0,0.0,0.0,0.0,0.0,0.0,0.0,0.0,0.0,0.0,0.0,0.0,0.0,0.0,0.0,0.0,0.0,0.0,0.0,0.0,0.0,0.0,0.0,0.0,0.0,0.0,0.0,0.0,0.0,0.0,0.0,0.0,0.0,0.0,0.0,0.0,0.0,0.0,0.0,0.0,0.0,0.0,0.0,0.0,0.0,0.0,0.0,0.0,0.0,0.0,0.0,0.0,0.0,0.044,0.2985,0.7215,1.0631,0.0,0.0,0.0,0.0,0.0,0.0,0.0,0.0,0.0,0.0,0.0,0.0,0.0,0.0,0.0,0.0,0.0,0.0,0.0,0.0,0.0,0.0,0.0,0.0,0.0,0.0,0.0,0.0,0.0,0.0,0.0,0.0,2.557,2.557,2.557,2.557,2.5581,2.559,2.559,2.5606,2.56,2.5597,2.5597,2.5603,2.5619,2.5652,2.5699,2.5693,2.57,2.5698,2.5698,2.5702,2.5703,2.5703,2.679,2.8301,0.0,0.0,0.0,0.0,0.0,0.0,0.0,0.0,0.0,0.0,0.0,0.0,0.0,0.0,0.0,0.0,0.0,0.0,0.0,0.0,0.0,0.0,0.0,0.0,0.0,0.0,0.0,0.0,0.0,0.0,0.0,0.0,0.0,0.0,0.0,0.0,0.0,0.0,0.0,0.0,0.0,0.0,0.0,0.0,0.0,0.0,0.0,0.0,0.0,0.0,0.0,0.0,0.0,0.0,0.0,0.0,0.9147,0.7282,1.1518,1.2811,0.0,0.0,0.0,0.0,0.0,0.0,0.0,0.0,0.0,0.0,0.0,0.0,0.0,0.0,0.0,0.0,0.0,0.0,0.0,0.0,0.0,0.0,0.0,0.0,0.0,0.0,0.0,0.0,0.0,0.0,0.0,0.0,0.0,2.5518,2.5518,2.5518,2.5538,2.5593,2.5593,2.5607,2.5589,2.5602,2.5608,2.5608,2.5665,2.5689,2.5691,2.5703,2.5701,2.5691,2.5691,2.5699,2.5703,2.5696,2.68,2.8298,0.0,0.0,0.0,0.0,0.0,0.0,0.0,0.0,0.0,0.0,0.0,0.0,0.0,0.0,0.0,0.0,0.0,0.0,0.0,0.0,0.0,0.0,0.0,0.0,0.0,0.0,0.0,0.0,0.0,0.0,0.0,0.0,0.0,0.0,0.0,0.0,0.0,0.0,0.0,0.0,0.0,0.0,0.0,0.0,0.0,0.0,0.0,0.0,0.0,0.0,0.0,0.0,0.0,0.0,0.0,0.0,0.7704,0.7674,1.1894,1.2993,1.3564,0.0,0.0,0.0,0.0,0.0,0.0,0.0,0.0,0.0,0.0,0.0,0.0,0.0,0.0,0.0,0.0,0.0,0.0,0.0,0.0,0.0,0.0,0.0,0.0,0.0,0.0,0.0,0.0,0.0,0.0,0.0,0.0,2.5544,2.5499,2.5499,2.5499,2.5531,2.5531,2.5531,2.5544,2.5536,2.5526,2.5484,2.555,2.5601,2.5643,2.5678,2.5707,2.5707,2.5707,2.5696,2.5702,2.5698,2.6806,2.8301,0.0,0.0,0.0,0.0,0.0,0.0,0.0,0.0,0.0,0.0,0.0,0.0,0.0,0.0,0.0,0.0,0.0,0.0,0.0,0.0,0.0,0.0,0.0,0.0,0.0,0.0,0.0,0.0,0.0,0.0,0.0,0.0,0.0,0.0,0.0,0.0,0.0,0.0,0.0,0.0,0.0,0.0,0.0,0.0,0.0,0.0,0.0,0.0,0.0,0.0,0.0,0.0,0.0,0.0,0.0,0.0,0.0,0.8728,1.1723,1.2516,1.3277,0.0,0.0,0.0,0.0,0.0,0.0,0.0,0.0,0.0,0.0,0.0,0.0,0.0,0.0,0.0,0.0,0.0,0.0,0.0,0.0,0.0,0.0,0.0,0.0,0.0,0.0,0.0,0.0,0.0,0.0,0.0,0.0,0.0,2.5441,2.5441,2.5441,2.543,2.549,2.5498,2.5505,2.5503,2.5461,2.5401,2.5459,2.5531,2.5576,2.5622,2.5648,2.5673,2.5683,2.5691,2.5697,2.5697,2.6806,2.8303,0.0,0.0,0.0,0.0,0.0,0.0,0.0,0.0,0.0,0.0,0.0,0.0,0.0,0.0,0.0,0.0,0.0,0.0,0.0,0.0,0.0,0.0,0.0,0.0,0.0,0.0,0.0,0.0,0.0,0.0,0.0,0.0,0.0,0.0,0.0,0.0,0.0,0.0,0.0,0.0,0.0,0.0,0.0,0.0,0.0,0.0,0.0,0.0,0.0,0.0,0.0,0.0,0.0,0.0,0.0,0.0,1.4055,1.1215,1.1474,1.1644,0.0,0.0,0.0,0.0,0.0,0.0,0.0,0.0,0.0,0.0,0.0,0.0,0.0,0.0,0.0,0.0,0.0,0.0,0.0,0.0,0.0,0.0,0.0,0.0,0.0,0.0,0.0,0.0,0.0,0.0,0.0,0.0,0.0,0.0,2.5303,2.5303,2.5303,2.5302,2.544,2.5499,2.5495,2.5495,2.5461,2.5401,2.5474,2.5503,2.5504,2.5498,2.5532,2.5604,2.5673,2.5707,2.5707,2.5707,2.68,2.8281,0.0,0.0,0.0,0.0,0.0,0.0,0.0,0.0,0.0,0.0,0.0,0.0,0.0,0.0,0.0,0.0,0.0,0.0,0.0,0.0,0.0,0.0,0.0,0.0,0.0,0.0,0.0,0.0,0.0,0.0,0.0,0.0,0.0,0.0,0.0,0.0,0.0,0.0,0.0,0.0,0.0,0.0,0.0,0.0,0.0,0.0,0.0,0.0,0.0,0.0,0.0,0.0,0.0,0.0,0.0,0.0,1.5134,1.5056,1.5145,0.0,0.0,0.0,0.0,0.0,0.0,0.0,0.0,0.0,0.0,0.0,0.0,0.0,0.0,0.0,0.0,0.0,0.0,0.0,0.0,0.0,0.0,0.0,0.0,0.0,0.0,0.0,0.0,0.0,0.0,0.0,0.0,0.0,0.0,0.0,2.516,2.5253,2.5303,2.5303,2.5387,2.5445,2.5495,2.5453,2.5421,2.5395,2.5465,2.5474,2.5423,2.5478,2.5506,2.5538,2.556,2.5561,2.5561,2.5561,2.6665,2.8154,0.0,0.0,0.0,0.0,0.0,0.0,0.0,0.0,0.0,0.0,0.0,0.0,0.0,0.0,0.0,0.0,0.0,0.0,0.0,0.0,0.0,0.0,0.0,0.0,0.0,0.0,0.0,0.0,0.0,0.0,0.0,0.0,0.0,0.0,0.0,0.0,0.0,0.0,0.0,0.0,0.0,0.0,0.0,0.0,0.0,0.0,0.0,0.0,0.0,0.0,0.0,0.0,0.0,0.0,0.0,0.0,1.4846,1.5704,0.0,0.0,0.0,0.0,0.0,0.0,0.0,0.0,0.0,0.0,0.0,0.0,0.0,0.0,0.0,0.0,0.0,0.0,0.0,0.0,0.0,0.0,0.0,0.0,0.0,0.0,0.0,0.0,0.0,0.0,0.0,0.0,0.0,0.0,0.0,0.0,2.5096,2.5179,2.5261,2.5292,2.5369,2.5421,2.5464,2.5421,2.5395,2.5397,2.5418,2.539,2.536,2.5393,2.5426,2.5418,2.5446,2.5454,2.5454,2.5453,2.659,2.809,0.0,0.0,0.0,0.0,0.0,0.0,0.0,0.0,0.0,0.0,0.0,0.0,0.0,0.0,0.0,0.0,0.0,0.0,0.0,0.0,0.0,0.0,0.0,0.0,0.0,0.0,0.0,0.0,0.0,0.0,0.0,0.0,0.0,0.0,0.0,0.0,0.0,0.0,0.0,0.0,0.0,0.0,0.0,0.0,0.0,0.0,0.0,0.0,0.0,0.0,0.0,0.0,0.0,0.0,0.0,1.2926,1.357,0.0,0.0,0.0,0.0,0.0,0.0,0.0,0.0,0.0,0.0,0.0,0.0,0.0,0.0,0.0,0.0,0.0,0.0,0.0,0.0,0.0,0.0,0.0,0.0,0.0,0.0,0.0,0.0,0.0,0.0,0.0,0.0,0.0,0.0,0.0,0.0,0.0,2.5049,2.5063,2.513,0.0,2.5322,2.536,2.5369,2.5378,2.5397,2.5389,2.5331,2.5311,2.5292,2.5293,2.5301,2.5301,2.5364,2.5374,2.5374,2.5401,2.6521,2.8049,0.0,0.0,0.0,0.0,0.0,0.0,0.0,0.0,0.0,0.0,0.0,0.0,0.0,0.0,0.0,0.0,0.0,0.0,0.0,0.0,0.0,0.0,0.0,0.0,0.0,0.0,0.0,0.0,0.0,0.0,0.0,0.0,0.0,0.0,0.0,0.0,0.0,0.0,0.0,0.0,0.0,0.0,0.0,0.0,0.0,0.0,0.0,0.0,0.0,0.0,0.0,0.0,0.8706,0.9944,1.1291,1.1839,1.259,0.0,0.0,0.0,0.0,0.0,0.0,0.0,0.0,0.0,0.0,0.0,0.0,0.0,0.0,0.0,0.0,0.0,0.0,0.0,0.0,0.0,0.0,0.0,0.0,0.0,0.0,0.0,0.0,0.0,0.0,0.0,0.0,0.0,0.0,0.0,0.0,2.4742,2.4794,2.4842,2.4883,0.0,2.4987,2.5061,2.5164,2.5332,2.538,2.5331,2.5311,2.5282,2.5222,2.5224,2.5214,2.5222,2.5243,2.5234,2.5244,2.5293,2.64,2.7875,0.0,0.0,0.0,0.0,0.0,0.0,0.0,0.0,0.0,0.0,0.0,0.0,0.0,0.0,0.0,0.0,0.0,0.0,0.0,0.0,0.0,0.0,0.0,0.0,0.0,0.0,0.0,0.0,0.0,0.0,0.0,0.0,0.0,0.0,0.0,0.0,0.0,0.0,0.0,0.0,0.0,0.0,0.0,0.0,0.0,0.0,0.0,0.0,0.0,0.0,0.0,0.0,0.0,0.0,1.057,1.1372,1.1959,0.0,0.0,0.0,0.0,0.0,0.0,0.0,0.0,0.0,0.0,0.0,0.0,0.0,0.0,0.0,0.0,0.0,0.0,0.0,0.0,0.0,0.0,0.0,0.0,0.0,0.0,0.0,0.0,0.0,0.0,0.0,0.0,0.0,0.0,0.0,2.4666,2.4679,2.4704,2.4741,2.4766,2.4847,2.485,2.4923,2.505,2.5231,2.5283,2.5252,2.5261,2.5231,2.519,2.5198,2.5206,2.5195,2.5195,2.5195,2.5195,2.5203,2.6304,2.7791,0.0,0.0,0.0,0.0,0.0,0.0,0.0,0.0,0.0,0.0,0.0,0.0,0.0,0.0,0.0,0.0,0.0,0.0,0.0,0.0,0.0,0.0,0.0,0.0,0.0,0.0,0.0,0.0,0.0,0.0,0.0,0.0,0.0,0.0,0.0,0.0,0.0,0.0,0.0,0.0,0.0,0.0,0.0,0.0,0.0,0.0,0.0,0.0,0.0,0.0,0.0,0.0,0.0,0.0,1.0089,1.1084,1.1468,1.1715,0.0,0.0,0.0,0.0,0.0,0.0,0.0,0.0,0.0,0.0,0.0,0.0,0.0,0.0,0.0,0.0,0.0,0.0,0.0,0.0,0.0,0.0,0.0,0.0,0.0,0.0,0.0,0.0,0.0,0.0,0.0,0.0,2.4634,2.465,2.4599,2.4613,2.4666,2.4651,2.4697,2.4818,2.478,2.4836,2.4936,2.5115,2.5201,2.5201,2.5198,2.5206,2.5206,2.5191,2.5168,2.5168,2.5156,2.5156,2.5125,2.5082,2.6187,2.7719,0.0,0.0,0.0,0.0,0.0,0.0,0.0,0.0,0.0,0.0,0.0,0.0,0.0,0.0,0.0,0.0,0.0,0.0,0.0,0.0,0.0,0.0,0.0,0.0,0.0,0.0,0.0,0.0,0.0,0.0,0.0,0.0,0.0,0.0,0.0,0.0,0.0,0.0,0.0,0.0,0.0,0.0,0.0,0.0,0.0,0.0,0.0,0.0,0.0,0.0,0.0,0.0,0.0,0.0,0.0,0.0,0.0,0.0,0.0,0.0,0.0,0.0,0.0,0.0,0.0,0.0,0.0,0.0,0.0,0.0,0.0,0.0,0.0,0.0,0.0,0.0,0.0,0.0,0.0,0.0,0.0,0.0,0.0,0.0,0.0,0.0,0.0,0.0,0.0,2.4248,2.4339,2.4517,2.4517,2.4515,2.4528,2.4462,2.4446,2.4464,2.4639,2.4727,2.4741,2.5057,2.5195,2.5198,2.5198,2.5195,2.5191,2.5139,2.5114,2.5095,2.4993,2.4929,2.4929,2.4915,2.6005,2.7443,0.0,0.0,0.0,0.0,0.0,0.0,0.0,0.0,0.0,0.0,0.0,0.0,0.0,0.0,0.0,0.0,0.0,0.0,0.0,0.0,0.0,0.0,0.0,0.0,0.0,0.0,0.0,0.0,0.0,0.0,0.0,0.6628,0.6804,0.0,0.0,0.0,0.0,0.0,0.0,0.0,0.0,0.0,0.0,0.0,0.0,0.0,0.0,0.0,0.0,0.0,0.0,0.0,0.0,0.0,0.0,0.0,0.0,0.0,0.0,0.0,0.0,0.0,0.0,0.0,0.0,0.0,0.0,0.0,0.0,0.0,0.0,0.0,0.0,0.0,0.0,0.0,0.0,0.0,0.0,0.0,0.0,0.0,0.0,0.0,0.0,0.0,0.0,0.0,2.4097,2.4079,2.421,2.4447,2.4393,2.4357,2.4338,2.4339,2.4321,2.4284,2.4459,2.4505,2.4489,2.476,2.498,2.5144,2.5144,2.5101,2.5032,2.5006,2.4993,2.498,2.4915,2.4902,2.4902,2.4847,2.592,2.7384,0.0,0.0,0.0,0.0,0.0,0.0,0.0,0.0,0.0,0.0,0.0,0.0,0.0,0.0,0.0,0.0,0.0,0.0,0.0,0.0,0.0,0.0,0.0,0.0,0.0,0.0,0.0,0.0,0.0,0.0,0.6367,0.668,0.6932,0.0,0.71,0.0,0.0,0.0,0.0,0.0,0.0,0.0,0.0,0.0,0.0,0.0,0.0,0.0,0.0,0.0,0.0,0.0,0.0,0.0,0.0,0.0,0.0,0.0,0.0,0.0,0.0,0.0,0.0,0.0,0.0,0.0,0.0,0.0,0.0,0.0,0.0,0.0,0.0,0.0,0.0,0.0,0.0,0.0,0.0,0.0,0.0,0.0,0.0,0.0,0.0,0.0,0.0,0.0,2.3941,2.3903,2.402,2.4339,2.4303,2.4266,2.421,2.421,2.421,2.4154,2.4302,2.4355,2.4319,2.4491,2.4685,2.4884,2.4972,2.4966,2.4902,2.4874,2.4874,2.4874,2.4847,2.4847,2.4832,2.4794,2.5865,2.7343,0.0,0.0,0.0,0.0,0.0,0.0,0.0,0.0,0.0,0.0,0.0,0.0,0.0,0.0,0.0,0.0,0.0,0.0,0.0,0.0,0.0,0.0,0.0,0.0,0.0,0.0,0.0,0.0,0.0,0.0,0.66,0.6915,0.7223,0.746,0.728,0.7118,0.6979,0.0,0.0,0.0,0.0,0.0,0.0,0.0,0.0,0.0,0.0,0.0,0.0,0.0,0.0,0.0,0.0,0.0,0.0,0.0,0.0,0.0,0.0,0.0,0.0,0.0,0.0,0.0,0.0,0.0,0.0,0.0,0.0,0.0,0.0,0.0,0.0,0.0,0.0,0.0,0.0,0.0,0.0,0.0,0.0,0.0,0.0,0.0,0.0,0.0,0.0,0.0,2.3522,2.3544,2.3738,2.4192,2.4209,2.419,2.419,2.4074,2.4016,2.4016,2.421,2.4303,2.4303,2.4441,2.4403,2.4264,2.4586,2.4785,2.4902,2.4837,2.4808,2.4794,2.4738,2.4723,2.4723,2.4707,2.5759,2.7221,0.0,0.0,0.0,0.0,0.0,0.0,0.0,0.0,0.0,0.0,0.0,0.0,0.0,0.0,0.0,0.0,0.0,0.0,0.0,0.0,0.0,0.0,0.0,0.0,0.0,0.0,0.0,0.0,0.0,0.6569,0.6922,0.7037,0.7211,0.7412,0.7251,0.7118,0.6979,0.6774,0.0,0.0,0.0,0.0,0.0,0.0,0.0,0.0,0.0,0.0,0.0,0.0,0.0,0.0,0.0,0.0,0.0,0.0,0.0,0.0,0.0,0.0,0.0,0.0,0.0,0.0,0.0,0.0,0.0,0.0,0.0,0.0,0.0,0.0,0.0,0.0,0.0,0.0,0.0,0.0,0.0,0.0,0.0,0.0,0.0,0.0,0.0,0.0,0.0,0.0,2.3164,2.333,2.3562,2.386,2.3998,2.4074,2.4074,2.3976,2.3976,2.3996,2.4018,2.4037,2.4037,2.4002,2.4002,2.402,2.4042,2.4174,2.4388,2.4442,2.4528,2.461,2.4578,2.461,2.4782,2.5327,2.6228,2.7279,0.0,0.0,0.0,0.0,0.0,0.0,0.0,0.0,0.0,0.0,0.0,0.0,0.0,0.0,0.0,0.0,0.0,0.0,0.0,0.0,0.0,0.0,0.0,0.0,0.0,0.0,0.0,0.0,0.0,0.0,0.0,0.0,0.727,0.737,0.7251,0.0,0.0,0.0,0.0,0.6416,0.0,0.0,0.695,0.0,0.0,0.0,0.0,0.0,0.0,0.0,0.0,0.0,0.0,0.0,0.0,0.0,0.0,0.0,0.0,0.0,0.0,0.0,0.0,0.0,0.0,0.0,0.0,0.0,0.0,0.0,0.0,0.0,0.0,0.0,0.0,0.0,0.0,0.0,0.0,0.0,0.0,0.0,0.0,0.0,0.0,0.0,0.0,0.0,2.2952,2.3084,2.3307,2.361,2.3732,2.3834,2.3896,2.3813,2.381,2.3894,2.3852,2.3813,2.3831,2.375,2.3707,2.3685,2.3664,2.3795,2.404,2.4192,2.4302,2.4426,2.4461,2.4545,2.4773,2.5633,2.6458,2.7284,0.0,0.0,0.0,0.0,0.0,0.0,0.0,0.0,0.0,0.0,0.0,0.0,0.0,0.0,0.0,0.0,0.0,0.0,0.0,0.0,0.0,0.0,0.0,0.0,0.0,0.0,0.0,0.0,0.0,0.0,0.0,0.0,0.7412,0.0,0.7251,0.709,0.6872,0.0,0.6483,0.6459,0.0,0.695,0.7021,0.0,0.0,0.0,0.7712,0.7795,0.0,0.0,0.0,0.0,0.0,0.0,0.0,0.0,0.0,0.0,0.0,0.0,0.0,0.0,0.0,0.0,0.0,0.0,0.0,0.0,0.0,0.0,0.0,0.0,0.0,0.0,0.0,0.0,0.0,0.0,0.0,0.0,0.0,0.0,0.0,0.0,0.0,0.0,0.0,2.2237,2.2841,2.2773,2.296,2.3459,2.3422,2.3491,2.3692,2.3571,2.3585,2.37,2.37,2.37,2.37,2.37,2.3544,2.3313,2.343,2.3642,2.3885,2.402,2.4154,2.4303,2.4373,2.4459,2.4692,2.5533,2.6373,2.7232,0.0,0.0,0.0,0.0,0.0,0.0,0.0,0.0,0.0,0.0,0.0,0.0,0.0,0.0,0.0,0.0,0.0,0.0,0.0,0.0,0.6626,0.676,0.6964,0.0,0.0,0.0,0.0,0.0,0.0,0.0,0.0,0.0,0.0,0.0,0.7118,0.6992,0.6914,0.6859,0.0,0.0,0.6963,0.7125,0.0,0.0,0.0,0.0,0.0,0.7712,0.0,0.0,0.8234,0.8724,0.0,0.0,0.0,0.0,0.0,0.0,1.0881,0.0,0.0,0.0,0.0,0.0,0.0,0.0,0.0,0.0,0.0,0.0,0.0,0.0,0.0,0.0,0.0,0.0,0.0,0.0,0.0,0.0,0.0,0.0,0.0,0.0,0.0,0.0,2.1499,2.1899,2.2169,2.2429,2.2781,2.3283,2.3277,2.3348,2.3549,2.3539,2.3517,2.3562,2.3562,2.3562,2.3544,2.3453,2.3383,2.3289,2.3241,2.3247,2.333,2.3553,2.3834,2.4079,2.4099,2.432,2.4767,2.6205,2.6896,2.7307,0.0,0.0,0.0,0.0,0.0,0.0,0.0,0.0,0.0,0.0,0.0,0.0,0.0,0.0,0.0,0.0,0.0,0.0,0.0,0.643,0.6565,0.6681,0.6887,0.6991,0.0,0.0,0.0,0.0,0.0,0.0,0.0,0.0,0.0,0.0,0.0,0.0,0.0,0.0,0.0,0.0,0.7047,0.0,0.0,0.7587,0.7712,0.0,0.0,0.0,0.7795,0.7904,0.8308,0.0,0.0,0.0,0.0,0.0,0.0,0.0,0.0,0.0,0.0,0.0,0.0,0.0,0.0,1.1431,0.0,0.0,0.0,0.0,0.0,0.0,0.0,0.0,0.0,0.0,0.0,0.0,0.0,0.0,0.0,0.0,0.0,0.0,0.0,0.0,2.0733,2.1199,2.1811,2.2068,2.2466,2.301,2.2985,2.3102,2.3407,2.336,2.336,2.3424,2.3424,2.3424,2.3407,2.3336,2.3265,2.3217,2.3126,2.3095,2.3119,2.3265,2.3576,2.3921,2.3979,2.4229,2.4754,2.6413,2.7028,2.7252,0.0,0.0,0.0,0.0,0.0,0.0,0.0,0.0,0.0,0.0,0.0,0.0,0.0,0.0,0.0,0.0,0.0,0.0,0.0,0.6485,0.6709,0.6702,0.6738,0.676,0.676,0.0,0.0,0.0,0.0,0.0,0.0,0.0,0.0,0.0,0.0,0.0,0.0,0.0,0.0,0.68,0.709,0.7209,0.0,0.0,0.7712,0.0,0.7712,0.7795,0.7912,0.7995,0.8349,0.0,0.9421,0.9873,0.0,0.0,1.0843,0.0,0.0,0.0,0.0,0.0,0.0,0.0,1.1601,1.159,1.1675,0.0,0.0,0.0,0.0,0.0,0.0,0.0,0.0,0.0,0.0,0.0,0.0,0.0,0.0,0.0,0.0,0.0,1.9047,2.0019,2.0045,2.049,2.1601,2.1738,2.2073,2.2721,2.2632,2.2816,2.3265,2.3144,2.3144,2.3265,2.3265,2.3265,2.3265,2.3265,2.3217,2.3095,2.3095,2.3095,2.3095,2.3095,2.3348,2.3774,2.3876,2.4134,2.4579,2.619,2.6821,2.7081,0.0,0.0,0.0,0.0,0.0,0.0,0.0,0.0,0.0,0.0,0.0,0.0,0.0,0.0,0.0,0.0,0.0,0.0,0.0,0.6578,0.6644,0.6702,0.6957,0.7064,0.7032,0.7223,0.0,0.0,0.0,0.0,0.0,0.0,0.0,0.0,0.0,0.0,0.0,0.0,0.0,0.7132,0.7293,0.0,0.7489,0.7746,0.7878,0.787,0.7904,0.7938,0.8062,0.0,0.8797,0.9047,0.0,0.0,0.0,0.0,0.0,0.0,0.0,0.0,0.0,0.0,0.0,0.0,1.1195,1.1223,1.1298,0.0,0.0,0.0,0.0,0.0,0.0,0.0,0.0,0.0,0.0,0.0,0.0,0.0,0.0,0.0,0.0,0.0,1.7983,1.8776,2.0004,2.0863,2.1214,2.1481,2.1857,2.2292,2.2398,2.2632,2.3052,2.2995,2.2944,2.2995,2.2995,2.302,2.307,2.307,2.3052,2.3095,2.3095,2.3095,2.3095,2.3045,2.3182,2.3486,2.3508,2.3624,2.3958,2.5516,2.6289,2.6799,0.0,0.0,0.0,0.0,0.0,0.0,0.0,0.0,0.0,0.0,0.0,0.0,0.0,0.0,0.0,0.0,0.0,0.0,0.0,0.0,0.6672,0.6705,0.7095,0.7268,0.7235,0.7376,0.7454,0.0,0.0,0.0,0.0,0.0,0.0,0.0,0.0,0.0,0.0,0.0,0.698,0.7017,0.7306,0.0,0.7614,0.7829,0.7912,0.7946,0.7979,0.8028,0.8152,0.848,0.8766,0.0,0.0,0.9403,0.964,0.0,1.0283,1.04,0.0,0.0,0.0,1.0891,0.0,0.0,0.0,1.1223,1.1335,0.0,0.0,0.0,0.0,0.0,0.0,0.0,0.0,0.0,0.0,0.0,0.0,0.0,0.0,0.0,0.0,0.0,1.7042,1.8345,1.9594,2.0528,2.0974,2.1214,2.1509,2.1878,2.1969,2.2141,2.25,2.2473,2.2527,2.266,2.266,2.2756,2.2944,2.2944,2.297,2.2995,2.2995,2.2995,2.2995,2.2952,2.3003,2.3126,2.3277,2.3677,2.4284,2.5476,2.6367,2.7159,0.0,0.0,0.0,0.0,0.0,0.0,0.0,0.0,0.0,0.0,0.0,0.0,0.0,0.0,0.0,0.0,0.0,0.0,0.0,0.0,0.0,0.6556,0.7027,0.7245,0.7245,0.7328,0.7335,0.0,0.0,0.0,0.0,0.0,0.0,0.0,0.0,0.0,0.0,0.0,0.0,0.6796,0.0,0.7593,0.7817,0.8111,0.824,0.8303,0.8277,0.8346,0.8461,0.8651,0.0,0.9064,0.923,0.9426,0.0,0.0,0.0,0.0,0.0,0.0,0.0,0.0,0.0,1.112,0.0,0.0,0.0,1.1774,0.0,0.0,0.0,0.0,0.0,0.0,0.0,0.0,0.0,0.0,0.0,0.0,0.0,0.0,0.0,0.0,1.6503,1.8254,1.9139,1.9987,2.0812,2.099,2.123,2.1538,2.1552,2.1718,2.1969,2.1969,2.2096,2.2368,2.2368,2.2537,2.2893,2.2893,2.2893,2.2893,2.2893,2.2893,2.2893,2.2893,2.2868,2.2842,2.3084,2.3744,2.4635,2.5475,2.6501,2.7549,0.0,0.0,0.0,0.0,0.0,0.0,0.0,0.0,0.0,0.0,0.0,0.0,0.0,0.0,0.0,0.0,0.0,0.0,0.5567,0.0,0.0,0.6081,0.6507,0.6732,0.6605,0.6999,0.7167,0.7063,0.0,0.0,0.0,0.0,0.0,0.0,0.6258,0.0,0.0,0.0,0.7062,0.0,0.7517,0.795,0.0,0.8977,0.9323,0.9326,0.9252,0.9233,0.9326,0.0,0.9683,0.9713,0.0,1.0033,0.0,0.0,0.0,0.0,0.0,0.0,0.0,0.0,1.1298,0.0,0.0,0.0,1.1448,1.1579,0.0,0.0,0.0,0.0,0.0,0.0,0.0,0.0,0.0,0.0,0.0,0.0,0.0,0.0,0.0,0.0,0.0,1.8223,1.8949,1.976,2.0679,2.0844,2.1071,2.1417,2.1493,2.1645,2.1911,2.184,2.1969,2.222,2.222,2.2429,2.2816,2.2816,2.2825,2.2893,2.2893,2.2893,2.2893,2.2842,2.2816,2.2816,2.2825,2.3293,2.4021,2.5068,2.6161,2.7273,0.0,0.0,0.0,0.0,0.0,0.0,0.0,0.0,0.0,0.0,0.0,0.0,0.0,0.0,0.0,0.0,0.0,0.467,0.0,0.0,0.0,0.0,0.5744,0.0,0.6044,0.6215,0.6428,0.6592,0.6167,0.0,0.0,0.0,0.0,0.0,0.6145,0.0,0.6245,0.0,0.0,0.0,0.0,0.0,0.0,0.8707,0.9313,0.9915,1.0024,1.0017,1.0041,0.0,1.0332,0.0,0.0,0.0,0.0,0.0,0.0,0.0,0.0,0.0,0.0,0.0,0.0,0.0,0.0,0.0,1.1812,0.0,0.0,0.0,0.0,0.0,0.0,0.0,0.0,0.0,0.0,0.0,0.0,0.0,0.0,0.0,0.0,0.0,0.0,0.0,0.0,1.9244,2.0429,2.0677,2.086,2.099,2.1071,2.1166,2.1245,2.123,2.137,2.1675,2.2071,2.2588,2.3157,2.3545,2.3596,2.335,2.335,2.3108,2.2659,2.2632,2.2649,2.2684,2.3141,2.3788,2.454,2.4993,2.6222,2.7754,0.0,0.0,0.0,0.0,0.0,0.0,0.0,0.0,0.0,0.0,0.0,0.0,0.4924,0.4794,0.0,0.0,0.0,0.3928,0.0,0.0,0.4498,0.0,0.5129,0.0,0.0,0.0,0.5974,0.6284,0.0,0.0,0.0,0.0,0.0,0.0,0.0,0.6152,0.613,0.0,0.0,0.6595,0.7656,0.8039,0.812,0.8767,0.9496,1.0204,1.0537,1.0651,1.0719,1.0814,1.1012,0.0,1.109,0.0,0.0,0.0,0.0,0.0,1.3027,0.0,0.0,0.0,0.0,0.0,0.0,0.0,0.0,0.0,0.0,0.0,0.0,0.0,0.0,0.0,0.0,0.0,0.0,0.0,0.0,0.0,0.0,0.0,0.0,0.0,0.0,0.0,1.8097,0.0,2.0227,2.0475,2.0626,2.0644,2.0744,2.0761,2.0761,2.0794,2.1053,2.1568,2.207,2.2719,2.3513,2.3972,2.3944,2.3488,2.3488,2.3107,2.2515,2.2515,2.2515,2.2583,2.3374,2.4185,2.4947,2.5299,2.6514,2.7992,0.0,0.5241,0.0,0.0,0.0,0.0,0.0,0.0,0.0,0.0,0.0,0.0,0.0,0.0,0.0,0.0,0.0,0.37,0.37,0.0,0.405,0.0,0.0,0.5284,0.0,0.0,0.6186,0.6186,0.0,0.0,0.0,0.0,0.0,0.0,0.0,0.5925,0.6635,0.714,0.7052,0.6662,0.7547,0.8016,0.8331,0.0,1.0168,1.0086,1.0743,0.0,0.0,1.1628,1.1744,0.0,0.0,0.0,0.0,0.0,0.0,0.0,0.0,0.0,0.0,1.4262,0.0,0.0,0.0,0.0,1.3554,0.0,0.0,0.0,0.0,0.0,0.0,0.0,0.0,0.0,0.0,0.0,0.0,0.0,0.0,0.0,0.0,0.0,0.0,1.7625,1.7794,0.0,2.0193,2.0304,2.0357,2.0494,2.0644,2.0693,2.0693,2.0777,2.1276,2.2264,2.228,2.2785,2.3687,2.372,2.3456,2.3009,2.3009,2.2803,2.2515,2.2515,2.2515,2.2583,2.3317,2.4069,2.4846,2.6103,2.7045,2.7742,0.0,0.0,0.0,0.0,0.0,0.0,0.0,0.511,0.0,0.0,0.0,0.0,0.0,0.0,0.2884,0.0,0.0,0.2962,0.328,0.3377,0.0,0.0,0.0,0.4677,0.0,0.0,0.0,0.5585,0.0,0.0,0.0,0.0,0.0,0.0,0.0,0.6086,0.0,0.0,0.0,0.0,0.0,0.7614,0.7678,0.0,0.0,0.9927,1.0234,1.0662,0.0,1.1394,1.1745,1.221,1.2528,1.248,1.2401,1.2765,1.2972,0.0,0.0,0.0,1.3387,1.438,0.0,0.0,0.0,0.0,0.0,0.0,0.0,0.0,0.0,0.0,0.0,0.0,0.0,0.0,0.0,0.0,0.0,0.0,0.0,0.0,0.0,0.0,0.0,1.7558,1.82,1.8948,0.0,2.02,2.0304,2.0373,2.0509,2.0577,2.0577,2.108,2.1494,2.1869,2.2733,2.349,2.4055,2.4487,2.4319,2.3681,2.3681,2.3167,2.2366,2.2366,2.2366,2.2496,2.3777,2.439,2.4743,2.579,2.6727,2.7547,0.4451,0.0,0.0,0.0,0.0,0.0,0.0,0.0,0.0,0.0,0.3212,0.0,0.2786,0.0,0.2354,0.0,0.2281,0.2549,0.3061,0.2953,0.0,0.4179,0.4172,0.0,0.0,0.0,0.0,0.0,0.4939,0.5083,0.0,0.0,0.0,0.0,0.0,0.0,0.0,0.0,0.6944,0.0,0.0,0.7396,0.0,0.0,0.8613,0.9262,0.0,1.0332,1.0954,1.1087,1.1663,1.2305,1.2436,1.256,1.2621,1.2621,1.2858,1.3216,1.345,1.3331,0.0,1.4468,1.4261,0.0,1.4869,0.0,0.0,0.0,0.0,0.0,0.0,0.0,0.0,0.0,0.0,0.0,0.0,0.0,0.0,0.0,0.0,0.0,0.0,0.0,1.6088,1.7785,1.8235,1.8796,0.0,0.0,2.015,2.022,2.0589,2.0798,2.0817,2.1584,2.2103,2.2337,2.3195,2.3842,2.4325,2.4768,2.4521,2.3737,2.3737,2.3217,2.231,2.231,2.231,2.2446,2.396,2.4567,2.4686,2.5851,2.6708,2.7289,0.0,0.0,0.0,0.0,0.4854,0.0,0.0,0.0,0.3191,0.0,0.2699,0.2336,0.2336,0.2217,0.2116,0.212,0.212,0.0,0.2983,0.2667,0.0,0.0,0.3937,0.412,0.4827,0.0,0.0,0.0,0.5219,0.5188,0.0,0.0,0.0,0.0,0.6205,0.0,0.6881,0.6872,0.7129,0.7456,0.7456,0.7456,0.7456,0.7265,0.0,0.8236,0.9069,0.9958,1.071,1.0773,1.1413,1.2243,1.2305,1.2428,1.2621,1.256,1.256,1.2744,1.3277,1.345,1.3623,1.4433,0.0,0.0,0.0,0.0,1.5284,0.0,0.0,0.0,0.0,0.0,0.0,0.0,0.0,0.0,0.0,0.0,0.0,0.0,0.0,0.0,0.0,1.444,1.5383,1.8229,1.7929,1.8268,0.0,0.0,0.0,2.0126,2.0942,2.1353,2.1445,2.2232,2.2954,2.3577,2.3608,2.3927,2.4498,2.4498,2.4037,2.3294,2.3294,2.2899,2.2254,2.2254,2.2271,2.2439,2.3887,2.4526,2.4794,2.6413,2.6975,2.6975,0.3581,0.3708,0.3908,0.0,0.4134,0.3965,0.0,0.0,0.0,0.0,0.2319,0.174,0.174,0.1302,0.107,0.1204,0.1102,0.0,0.0,0.0,0.0,0.3047,0.3539,0.3834,0.3908,0.4555,0.0,0.5046,0.0,0.0,0.5579,0.0,0.0,0.0,0.0,0.0,0.6539,0.6535,0.681,0.7265,0.7265,0.7265,0.0,0.0,0.733,0.7269,0.7652,0.8361,0.9186,0.9831,1.0647,1.1461,1.2112,1.2428,1.256,1.2428,1.2498,1.2621,1.2613,1.2736,1.2972,1.3623,1.3795,1.3974,0.0,0.0,0.0,0.0,0.0,0.0,0.0,0.0,0.0,0.0,0.0,0.0,0.0,0.0,0.0,0.0,0.0,0.0,1.395,1.499,1.6153,1.73,1.8435,1.9254,0.0,0.0,0.0,2.0609,2.1409,2.185,2.1835,2.257,2.3078,2.3247,2.3835,2.4174,2.4359,2.4359,2.3842,2.2921,2.2921,2.2403,2.157,2.157,2.1851,2.2408,2.365,2.496,2.6184,2.6622,2.6775,2.6775,0.3628,0.0,0.0,0.345,0.0,0.0,0.3462,0.0,0.0,0.2315,0.1584,0.0,0.1033,0.0734,0.0586,0.0816,0.0708,0.0,0.0,0.0,0.0,0.2681,0.2832,0.3024,0.3308,0.377,0.0,0.4642,0.0,0.0,0.5488,0.0,0.0,0.0,0.0,0.5974,0.0,0.6413,0.6718,0.7016,0.7037,0.0,0.0,0.7134,0.7068,0.6946,0.7012,0.7652,0.8425,0.9069,0.9952,1.1024,1.1476,1.1988,1.2375,1.2305,1.2367,1.2436,1.2428,1.2498,1.2683,1.3042,1.3094,1.3277,1.3974,1.4195,1.4305,0.0,0.0,0.0,0.0,0.0,0.0,0.0,0.0,0.0,0.0,0.0,0.0,0.0,0.0,0.0,1.4071,1.5466,1.676,1.7612,1.8592,1.9381,0.0,0.0,0.0,2.1212,2.1952,2.2379,2.2434,2.3209,2.357,2.3585,2.4092,2.4302,2.4302,2.4302,2.3763,2.2791,2.2791,2.2232,2.1308,2.1308,2.1697,2.2426,2.3885,2.5364,2.6691,2.6691,2.6691,2.6691,0.0,0.0,0.0,0.0,0.0,0.0,0.0,0.2108,0.0,0.1331,0.0,0.0536,0.0429,0.0386,0.0449,0.0617,0.0,0.0902,0.1634,0.1189,0.1362,0.2433,0.2038,0.2129,0.2777,0.2802,0.0,0.0,0.0,0.0,0.0,0.0,0.0,0.0,0.0,0.0,0.0,0.6448,0.6665,0.0,0.6811,0.6881,0.6881,0.6745,0.6811,0.6881,0.6881,0.7396,0.8107,0.8425,0.9442,1.071,1.0773,1.1413,1.212,1.2182,1.2243,1.2305,1.2498,1.256,1.256,1.256,1.2621,1.2797,1.3425,1.3537,1.3657,1.3914,1.4323,1.4264,0.0,0.0,0.0,0.0,0.0,0.0,0.0,0.0,0.0,0.0,0.0,0.0,0.0,1.5995,1.7146,1.8303,1.8622,1.9228,0.0,0.0,0.0,0.0,2.255,0.0,2.3076,0.0,2.4166,2.4166,2.4234,2.4276,2.4276,2.4317,2.3723,2.2718,2.2718,2.2128,2.1182,2.1182,2.1682,2.2637,2.4393,2.573,2.6691,2.6691,2.6691,2.6691,0.0,0.0,0.0,0.0,0.0,0.1513,0.1604,0.1594,0.1594,0.1539,0.0885,0.0,0.0389,0.0279,0.028,0.0449,0.0345,0.0,0.0,0.0,0.0,0.1275,0.1647,0.1956,0.2077,0.2641,0.3325,0.0,0.4205,0.4668,0.0,0.0,0.0,0.0,0.0,0.0,0.5771,0.6133,0.0,0.6694,0.6728,0.6811,0.6881,0.6881,0.6811,0.6741,0.6881,0.7073,0.7461,0.8231,0.9128,1.0085,1.0647,1.1413,1.2058,1.1934,1.1996,1.212,1.2189,1.2243,1.2367,1.256,1.2621,1.2621,1.2736,1.2797,1.2797,1.2858,1.2981,1.3147,1.3485,0.0,0.0,0.0,0.0,0.0,0.0,0.0,0.0,0.0,0.0,0.0,0.0,0.0,0.0,0.0,0.0,0.0,0.0,0.0,0.0,0.0,0.0,0.0,0.0,0.0,0.0,2.3882,2.4124,2.4208,2.4208,2.4276,2.3603,2.2399,2.2399,2.1662,2.046,2.046,2.1589,2.3435,2.4866,2.5952,2.6691,2.6691,2.6691,2.6691,0.0,0.0,0.0,0.0,0.0,0.0,0.0,0.0541,0.0,0.0825,0.0472,0.0177,0.0177,0.0059,0.0059,0.0295,0.0239,0.0302,0.0543,0.0613,0.0741,0.0865,0.1128,0.0,0.1327,0.169,0.2238,0.2952,0.346,0.4087,0.0,0.0,0.0,0.0,0.0,0.5199,0.0,0.0,0.0,0.6475,0.6506,0.6613,0.6618,0.6618,0.6613,0.6548,0.6745,0.6876,0.7003,0.7652,0.8425,0.9256,0.9888,1.0661,1.1365,1.1677,1.1872,1.1996,1.2058,1.2182,1.2305,1.2428,1.2498,1.2621,1.2621,1.2621,1.2621,1.2621,1.2621,1.2858,1.3786,1.4619,0.0,0.0,0.0,0.0,0.0,0.0,0.0,0.0,0.0,0.0,0.0,0.0,0.0,0.0,0.0,0.0,0.0,0.0,0.0,0.0,0.0,0.0,0.0,0.0,0.0,2.3797,2.3982,2.4082,2.4082,2.4109,2.3402,2.2133,2.2133,2.1384,2.0192,2.088,2.1926,2.3175,2.4503,2.5577,2.6332,2.6332,2.647,2.6691,0.0,-0.0063,0.0,0.0,-0.05,0.0,-0.0754,-0.0813,-0.0621,0.0,0.0,-0.0123,-0.0123,-0.0247,-0.0247,0.0062,0.0124,0.0187,0.0374,0.0564,0.063,0.063,0.0773,0.0782,0.0717,0.08,0.1144,0.0,0.2748,0.3551,0.0,0.0,0.0,0.0,0.0,0.0,0.0,0.0,0.6232,0.6281,0.6359,0.642,0.642,0.642,0.642,0.6416,0.6613,0.6675,0.6741,0.7003,0.7717,0.8554,0.9069,0.9843,1.0611,1.1303,1.1615,1.1809,1.1996,1.212,1.2243,1.2305,1.2436,1.2621,1.2621,1.2621,1.2621,1.2621,1.2621,1.292,1.3914,1.4323,0.0,0.0,0.0,0.0,0.0,0.0,0.0,0.0,0.0,0.0,0.0,0.0,0.0,0.0,0.0,0.0,2.2147,2.2407,0.0,0.0,0.0,2.3538,2.3595,0.0,2.3739,0.0,2.3882,2.3982,2.3982,2.3982,2.3254,2.1994,2.1994,2.1311,2.0309,2.1508,2.2309,2.292,2.4139,2.5121,2.5852,2.5941,2.6191,2.6505,0.0,0.0,0.0,0.0,0.0,0.0,0.0,-0.2342,-0.1964,-0.0433,-0.037,-0.0432,-0.0432,-0.0494,-0.0432,-0.0247,-0.0253,-0.0064,0.0257,0.0461,0.0535,0.0535,0.0671,0.0739,0.0537,0.0673,0.1144,0.0,0.0,0.3551,0.4284,0.0,0.0,0.0,0.0,0.0,0.0,0.5813,0.6241,0.6396,0.6412,0.642,0.642,0.642,0.642,0.642,0.6416,0.6548,0.6675,0.6741,0.7391,0.8236,0.8296,0.9326,1.0548,1.0611,1.1115,1.1622,1.1809,1.1996,1.2127,1.2243,1.2436,1.2621,1.2621,1.2621,1.2621,1.2621,1.2621,1.285,1.3597,1.3442,1.37,0.0,0.0,0.0,0.0,0.0,0.0,0.0,0.0,0.0,0.0,0.0,0.0,0.0,0.0,2.1744,2.2176,2.2834,2.3304,2.3509,0.0,2.3595,2.3595,2.3595,0.0,2.3595,2.3739,2.3839,2.3839,2.394,2.3254,2.1994,2.1994,2.1584,2.0962,2.169,2.2601,2.3576,2.4326,2.4887,2.5335,2.5689,2.5868,2.5941,0.0,0.0,0.0,0.0,0.0,0.0,0.0,-0.292,-0.2756,-0.2144,-0.201,-0.1881,-0.1815,-0.1558,-0.1298,-0.1104,-0.0657,-0.0332,-0.0066,0.0134,0.027,0.0404,0.0472,0.0472,0.0404,0.0472,0.0674,0.0,0.0,0.2547,0.288,0.3515,0.0,0.0,0.0,0.3955,0.4307,0.4835,0.536,0.5815,0.5815,0.6017,0.642,0.642,0.642,0.642,0.642,0.6482,0.6548,0.6548,0.7003,0.7652,0.8042,0.8683,0.939,0.9779,1.0415,1.0926,1.0989,1.1553,1.212,1.2189,1.2375,1.2621,1.2621,1.2621,1.2621,1.2621,1.2621,1.2744,1.3208,1.3381,1.3674,0.0,0.0,0.0,0.0,0.0,0.0,0.0,0.0,0.0,0.0,0.0,0.0,0.0,0.0,2.2002,2.2422,2.2832,2.3157,2.3363,0.0,2.3363,2.3538,2.3538,2.3538,2.3538,2.3653,2.3696,2.3696,2.3739,2.3032,2.1768,2.0994,2.0722,2.0865,2.1527,2.2294,2.3107,2.3747,2.4282,2.4736,2.491,2.5313,2.5832,-0.342,0.0,-0.3751,0.0,-0.3751,-0.3749,-0.3749,-0.3818,-0.3818,-0.3818,-0.3749,-0.3416,-0.288,-0.2479,-0.2213,-0.1945,-0.1277,-0.074,-0.0539,-0.0135,0.0135,0.0202,0.027,0.0,0.0202,0.027,0.027,0.027,0.1344,0.0,0.1944,0.0,0.0,0.0,0.3068,0.3292,0.3586,0.3987,0.455,0.508,0.508,0.5348,0.5818,0.6017,0.6083,0.6148,0.635,0.642,0.642,0.642,0.6679,0.7134,0.7652,0.8107,0.849,0.9069,0.9709,1.0231,1.0421,1.1108,1.1856,1.2058,1.2313,1.256,1.256,1.256,1.256,1.256,1.2621,1.2683,1.2867,1.3147,1.3554,1.3992,0.0,0.0,0.0,0.0,0.0,0.0,0.0,1.7975,1.7975,0.0,0.0,0.0,0.0,0.0,2.2463,2.2797,0.0,0.0,0.0,0.0,0.0,2.3466,2.3466,2.3466,2.3523,2.3566,2.3551,2.3206,2.2547,2.1635,2.0483,2.0378,2.1051,2.171,2.2368,2.2996,2.343,2.3837,2.4184,2.4323,2.4768,2.5368,-0.4028,-0.4558,-0.5024,-0.4827,-0.4957,-0.5087,-0.5087,-0.5223,-0.5362,-0.5362,-0.5362,-0.4821,-0.3351,-0.3215,-0.3017,-0.2684,-0.2012,-0.1476,-0.1143,-0.0202,0.0202,0.0,0.0,0.0202,0.0,0.0202,0.027,0.027,0.0,0.0,0.1877,0.0,0.2223,0.241,0.241,0.2615,0.2954,0.3685,0.4151,0.4287,0.4287,0.4287,0.442,0.5147,0.5411,0.5477,0.6148,0.642,0.642,0.642,0.6548,0.6741,0.6881,0.7526,0.8236,0.8425,0.9,0.9646,1.0288,1.0717,1.1212,1.1926,1.2182,1.2367,1.256,1.2436,1.2367,1.256,1.2621,1.2621,1.2621,1.2621,1.2981,1.4034,0.0,0.0,0.0,0.0,0.0,0.0,1.8073,1.8344,1.7767,0.0,0.0,0.0,0.0,0.0,0.0,0.0,0.0,2.3082,2.3246,0.0,2.3319,2.3319,2.3319,2.3319,2.3466,2.3509,2.3465,2.2267,2.171,2.1665,2.0991,2.1081,2.1739,2.2398,2.3026,2.3595,2.3595,2.3595,2.3681,2.4135,2.4302,2.4385,-0.5292,-0.5355,-0.5418,-0.5352,-0.5355,-0.5292,-0.5292,-0.5359,-0.5428,-0.5428,-0.5428,-0.5226,-0.4755,-0.422,-0.3885,0.0,-0.3019,-0.2216,0.0,-0.1008,-0.0539,0.0,0.0067,0.0067,0.0,0.0067,0.0067,0.0067,0.0,0.0,0.0,0.1333,0.1533,0.1679,0.1664,0.1799,0.2017,0.2418,0.2887,0.3422,0.3487,0.3818,0.4353,0.455,0.4619,0.4683,0.4885,0.4951,0.5017,0.5547,0.5745,0.5943,0.6679,0.7204,0.7591,0.7782,0.8296,0.8877,0.9069,0.9952,1.0899,1.1156,1.167,1.2182,1.2367,1.2436,1.2498,1.256,1.2621,1.2621,1.2621,1.2621,1.2858,1.3623,1.3974,0.0,0.0,0.0,0.0,0.0,0.0,1.7755,0.0,1.8247,0.0,0.0,0.0,0.0,0.0,0.0,0.0,0.0,2.2963,0.0,2.3171,2.3157,2.3157,2.3171,2.329,2.3363,2.3319,2.2114,2.1813,2.217,2.1147,2.1335,2.2383,2.2634,2.3041,2.3595,2.3595,2.3595,2.3595,2.3782,2.4036,2.4302,-0.5888,-0.5822,-0.5683,-0.5617,-0.5554,-0.5491,-0.5428,-0.5428,-0.5342,-0.5281,-0.5274,-0.5254,-0.5199,-0.4803,0.0,-0.4546,-0.3661,-0.2794,-0.1883,-0.1431,-0.0782,-0.0065,0.0,0.0,0.0,0.0,0.0,0.0,0.0261,0.0525,0.0797,0.0994,0.1132,0.121,0.121,0.1344,0.148,0.1614,0.2017,0.2621,0.2684,0.3019,0.3556,0.382,0.3885,0.3951,0.422,0.4287,0.4353,0.4815,0.5147,0.5543,0.621,0.6675,0.7068,0.7396,0.7782,0.8166,0.8425,0.9442,1.0458,1.071,1.1413,1.2058,1.2182,1.2436,1.2621,1.2621,1.2621,1.2621,1.2621,1.2621,1.2744,1.3216,1.3752,1.446,1.5459,0.0,0.0,0.0,0.0,0.0,0.0,1.8139,0.0,0.0,0.0,0.0,0.0,0.0,0.0,2.2526,2.2783,0.0,2.3037,2.3037,2.3037,2.3037,2.3157,2.329,2.3319,2.2073,2.1876,2.2524,2.1505,2.168,2.2739,2.2921,2.3251,2.3595,2.3595,2.3595,2.3595,2.3595,2.3782,2.4036,-0.5954,-0.5954,0.0,0.0,-0.5617,0.0,-0.5411,-0.5411,-0.5291,-0.5135,-0.5114,-0.5064,-0.4935,-0.4911,-0.4897,-0.4908,0.0,0.0,0.0,-0.1476,-0.0678,-0.0062,0.0,0.0,0.0,0.0,0.0,0.0,0.0309,0.0564,0.0773,0.0904,0.1048,0.1073,0.1075,0.1143,0.1277,0.1277,0.1547,0.1884,0.1884,0.2018,0.2221,0.2885,0.3082,0.3218,0.3885,0.4154,0.4154,0.422,0.4683,0.5345,0.5547,0.6079,0.6806,0.7326,0.7456,0.7587,0.8231,0.9064,0.9894,1.0521,1.1288,1.1872,1.1996,1.2313,1.2621,1.2621,1.2621,1.2621,1.2621,1.2621,1.2683,1.2989,1.3528,1.424,1.5059,0.0,0.0,0.0,0.0,0.0,0.0,1.8236,1.8614,0.0,0.0,0.0,0.0,0.0,2.2417,2.2184,2.2661,2.2888,2.2888,2.2888,2.2888,2.2888,2.3037,2.3216,2.3421,2.2117,2.1992,2.2697,2.2054,2.2128,2.2787,2.337,2.3551,2.3551,2.361,2.3595,2.3595,2.3595,2.3595,2.3595,0.0,0.0,-0.6083,-0.6079,-0.5815,-0.5577,-0.5403,-0.5253,-0.5131,-0.4989,-0.4969,-0.4955,-0.4921,-0.4816,-0.4758,-0.4736,-0.4378,-0.3867,-0.3193,-0.2276,-0.1417,-0.0739,-0.0247,0.0,0.0,0.0,0.0,0.0,0.0247,0.0434,0.0562,0.0767,0.0907,0.1044,0.1066,0.1143,0.1143,0.1277,0.1344,0.148,0.1614,0.1681,0.1749,0.1949,0.2083,0.2218,0.2418,0.2554,0.2755,0.3284,0.3951,0.4683,0.5348,0.6079,0.6741,0.7007,0.7138,0.733,0.7461,0.8166,0.9,0.964,1.0912,1.1864,1.1406,1.1981,1.2621,1.2621,1.2621,1.2621,1.2621,1.2621,1.2683,1.2989,1.3442,1.4085,1.505,1.5642,0.0,0.0,1.7123,1.7301,1.7656,1.803,1.8452,0.0,0.0,0.0,0.0,0.0,2.1589,2.1746,2.2509,2.2888,2.2888,2.2888,2.2888,2.2888,2.2947,2.2978,2.3008,2.2278,2.2392,2.3112,2.2446,2.2592,2.3286,2.3333,2.3363,2.3407,2.3494,2.3538,2.3538,2.3566,2.3595,2.3595,-0.642,-0.635,-0.628,-0.6214,-0.5951,-0.5657,-0.551,-0.5366,-0.5182,-0.5036,-0.5016,-0.4992,-0.4925,-0.4847,-0.4796,-0.4796,-0.4507,-0.4004,-0.3297,-0.2712,-0.1947,-0.0945,-0.0591,-0.0296,0.0,0.0,0.0,0.0,0.0177,0.0358,0.0484,0.0677,0.0818,0.0969,0.105,0.1064,0.1076,0.121,0.1277,0.1277,0.1412,0.1547,0.1614,0.1614,0.1748,0.1884,0.1884,0.2018,0.2287,0.2952,0.3685,0.442,0.5282,0.6013,0.6548,0.6683,0.6881,0.7073,0.7204,0.7782,0.8619,0.9709,1.0534,1.1108,1.1406,1.1787,1.2112,1.2498,1.2621,1.2621,1.2621,1.2621,1.2629,1.2805,1.326,1.3914,1.4756,1.54,0.0,1.6797,1.6955,1.7179,1.7656,1.792,1.8344,1.8869,0.0,0.0,1.9448,2.0396,2.1091,2.1396,2.231,2.2797,2.2888,2.2888,2.2888,2.2888,2.2888,2.2947,2.2963,2.2381,2.2527,2.3275,2.2582,2.2714,2.3407,2.3319,2.3319,2.3319,2.3363,2.3407,2.3407,2.3436,2.3629,2.3867,-0.635,-0.635,-0.635,-0.6214,-0.6086,-0.5877,-0.565,-0.5522,-0.5336,-0.5118,-0.5098,-0.5053,-0.4931,-0.4918,-0.4918,-0.4918,-0.4513,-0.4029,-0.3347,-0.3062,-0.2439,-0.1252,-0.1024,-0.0683,-0.0171,-0.0057,0.0,0.0,0.0112,0.0284,0.0468,0.0588,0.0788,0.0957,0.0965,0.1047,0.1069,0.1074,0.1143,0.1277,0.1277,0.1345,0.1547,0.1547,0.1681,0.1884,0.1884,0.2018,0.2287,0.2952,0.3685,0.442,0.5147,0.5881,0.642,0.6416,0.6613,0.6881,0.7073,0.7717,0.8554,0.9843,0.997,1.0155,1.1608,1.16,1.1531,1.2367,1.256,1.2621,1.2621,1.2621,1.2621,1.2621,1.3033,1.3631,1.441,0.0,1.5796,1.6694,1.6909,1.719,1.7601,1.7865,1.8193,1.8506,1.8774,1.8934,0.0,1.9901,2.0597,2.1028,2.2063,2.2706,2.2888,2.2888,2.2888,2.2888,2.2888,2.2947,2.3068,2.2498,2.2615,2.3246,2.2657,2.2731,2.3275,2.3231,2.3231,2.3231,2.3275,2.3334,2.3422,2.3422,2.382,2.4334,-0.6214,-0.6214,-0.628,-0.635,-0.6214,-0.6032,-0.5762,-0.5556,-0.5311,-0.4972,-0.4952,-0.4945,-0.4921,-0.4918,-0.4918,-0.4918,-0.4817,-0.4606,-0.4237,-0.357,-0.3088,-0.2669,-0.1638,-0.1032,-0.0911,-0.0296,0.0,0.0,0.0,0.0112,0.0226,0.0465,0.0592,0.0779,0.0947,0.1036,0.1042,0.1065,0.1143,0.1143,0.1143,0.1143,0.121,0.121,0.1345,0.1614,0.1614,0.1884,0.2287,0.2952,0.3685,0.442,0.5147,0.5881,0.6416,0.6609,0.6675,0.6745,0.6881,0.7652,0.849,0.8748,0.932,1.0028,1.0843,1.1149,1.1524,1.2174,1.2498,1.2621,1.2621,1.2621,1.2621,1.2621,1.2683,1.3164,1.435,0.0,1.5323,1.6637,1.6909,1.7078,1.7323,1.7601,1.7877,1.8139,1.8452,1.8774,1.8987,1.95,1.9901,2.0194,2.1766,2.2706,2.2888,2.2888,2.2888,2.2888,2.2888,2.2902,2.2947,2.2831,2.2891,2.3127,2.2876,2.2935,2.3127,2.3037,2.2978,2.2978,2.3082,2.3463,2.3978,2.404,2.4467,2.5041,-0.621,-0.6083,-0.6086,-0.6086,-0.6017,-0.5855,-0.565,-0.5517,-0.5366,-0.5169,-0.5159,-0.5159,-0.5159,-0.5159,-0.5159,-0.5159,-0.5159,-0.5028,-0.4641,-0.4187,-0.3623,-0.3015,-0.2093,-0.1232,-0.0493,-0.0183,0.0,0.0,0.0,0.0059,0.0177,0.0354,0.0535,0.0725,0.0857,0.094,0.0969,0.1048,0.1061,0.1076,0.1076,0.1076,0.1076,0.121,0.1345,0.1614,0.1748,0.1951,0.2354,0.342,0.402,0.4486,0.5617,0.6214,0.6613,0.6675,0.6806,0.7007,0.7073,0.7526,0.8037,0.8425,0.8812,0.9448,1.064,1.1017,1.1399,1.2297,1.256,1.2621,1.2621,1.2621,1.2621,1.2621,1.2621,0.0,0.0,1.4628,1.5206,1.6637,1.6909,1.7078,1.7278,1.7545,1.7767,1.7877,1.8344,1.8667,1.8774,1.9291,1.9656,1.9798,2.1286,2.2137,2.2184,2.2555,2.2752,2.2752,2.2843,2.2888,2.2888,2.2888,2.2947,2.2992,2.2947,2.3136,2.3547,2.3455,2.3659,2.3992,2.4025,2.4185,2.4509,2.4557,2.4966,2.5506,-0.6198,-0.6071,-0.5936,-0.6004,-0.5862,-0.5727,-0.5727,-0.5599,-0.5531,-0.5531,-0.5437,-0.5413,-0.5413,-0.5449,-0.5428,-0.5428,-0.5359,-0.516,-0.4831,-0.4568,-0.4077,-0.333,-0.2452,-0.1384,0.0,0.0,0.0,0.0,0.0,0.0062,0.0185,0.0361,0.0483,0.0679,0.085,0.0928,0.0969,0.1041,0.1056,0.1076,0.1076,0.1143,0.1143,0.1277,0.148,0.1681,0.2017,0.2287,0.2621,0.4084,0.455,0.4752,0.6017,0.6548,0.6675,0.6741,0.7003,0.7265,0.7265,0.7396,0.7652,0.8361,0.8361,0.8737,1.0514,1.0766,1.0961,1.2243,1.2498,1.2436,1.256,1.2621,1.2621,1.2621,0.0,0.0,0.0,1.4501,1.5148,1.6457,1.6842,1.7078,1.7278,1.7501,1.7656,1.7711,1.8193,1.8506,1.8614,1.9146,1.946,1.946,2.0709,2.1458,2.1616,2.203,2.231,2.2509,2.2555,2.2732,2.2936,2.3014,2.31,2.323,2.3322,2.3612,2.4109,2.4109,2.4413,2.4878,2.4863,2.4887,2.5067,2.5096,2.5487,2.601,-0.6133,-0.6065,-0.6133,-0.6268,-0.6268,-0.6197,-0.6061,-0.6061,-0.599,-0.5769,-0.5654,-0.5572,-0.5572,-0.5447,-0.5428,-0.5428,-0.5223,-0.5024,-0.4831,-0.4677,-0.4466,-0.4207,-0.2867,-0.1468,0.0,0.0,0.0,0.0,0.0,0.0,0.0,0.0369,0.0493,0.0556,0.0825,0.0965,0.1035,0.1061,0.1074,0.1076,0.1076,0.1143,0.1277,0.1277,0.1547,0.1951,0.2621,0.2954,0.3349,0.4812,0.5345,0.5477,0.6148,0.6548,0.6741,0.6881,0.7138,0.7461,0.7461,0.7456,0.7652,0.8361,0.8037,0.8161,1.0325,1.0085,0.9964,1.1926,1.2058,1.1996,1.2498,1.2621,1.2621,1.2621,0.0,0.0,1.3511,1.4204,1.5031,1.5874,1.656,1.7078,1.7278,1.7334,1.7434,1.7656,1.7986,1.8302,1.856,1.8881,1.904,1.904,2.0105,2.0957,2.1616,2.1299,2.1479,2.2231,2.1841,2.2207,2.3069,2.3331,2.374,2.4283,2.4543,2.467,2.4713,2.4713,2.4742,2.4785,2.4878,2.5226,2.572,2.572,2.6141,2.6707,-0.6309,-0.6093,-0.5946,-0.6018,-0.6015,-0.5946,-0.595,-0.5946,-0.5875,-0.5803,-0.5752,-0.5722,-0.5722,-0.5671,-0.5633,-0.5633,-0.5564,-0.5424,-0.5075,-0.5005,-0.4375,-0.3023,-0.2014,-0.1008,0.0,0.0,0.0,0.0,0.0,0.0065,0.0196,0.0384,0.0572,0.0698,0.0883,0.1016,0.0969,0.1045,0.1059,0.1076,0.1076,0.1143,0.121,0.1412,0.1614,0.1816,0.2751,0.3151,0.3416,0.4878,0.5411,0.5543,0.6214,0.6548,0.6741,0.7007,0.7204,0.733,0.7456,0.7521,0.7587,0.7847,0.7972,0.8355,0.9308,0.9945,1.0584,1.1531,1.1981,1.2375,1.256,1.2621,1.2621,1.2621,0.0,1.2797,1.339,1.3846,1.4542,1.5748,1.6197,1.6662,1.7222,1.7278,1.7334,1.7434,1.7865,1.8139,1.829,1.8721,1.9143,1.9468,1.99,2.0366,2.0836,2.14,2.1992,2.2624,2.2939,2.3278,2.3666,2.3936,2.4197,2.4426,2.4687,2.5067,2.5429,2.5429,2.5676,2.6039,2.6054,2.6199,2.6402,2.6402,2.6562,2.6779,-0.6386,-0.6166,-0.5945,-0.5945,-0.5945,-0.5945,-0.5945,-0.5945,-0.5945,-0.5945,-0.5905,-0.5874,-0.5874,-0.583,-0.58,-0.58,-0.5656,-0.5512,-0.5228,-0.4645,-0.363,-0.2248,-0.1497,-0.0747,0.0,0.0,0.0,0.0,0.0,0.0135,0.027,0.0463,0.0589,0.0785,0.0961,0.1027,0.1047,0.1047,0.1058,0.1076,0.1076,0.1143,0.1277,0.148,0.1681,0.195,0.3151,0.3551,0.3751,0.5213,0.5745,0.5811,0.6284,0.6548,0.6741,0.7007,0.7138,0.7199,0.7396,0.7461,0.7521,0.7521,0.7847,0.8355,0.893,0.9755,1.0584,1.1469,1.1981,1.2375,1.2567,1.2621,1.2621,1.2621,1.2621,1.2744,1.3155,1.3433,1.4136,1.5391,1.5786,1.6255,1.7145,1.7211,1.7211,1.7278,1.7711,1.803,1.8247,1.8875,1.9408,1.9768,1.9937,2.0273,2.0736,2.1304,2.1943,2.255,2.3095,2.3519,2.3815,2.4269,2.4623,2.4873,2.4961,2.5422,2.6097,2.5943,2.6202,2.6779,2.6779,2.6779,2.6779,2.6779,2.6779,2.6779,-0.6412,-0.6338,-0.6338,-0.6338,-0.6338,-0.6338,-0.6338,-0.6338,-0.6338,-0.6338,-0.6129,-0.603,-0.603,-0.5895,-0.5803,-0.5803,-0.5444,-0.5228,-0.5156,-0.3344,-0.2303,-0.2313,-0.1541,-0.0762,0.0,0.0,0.0,0.0,0.0,0.0135,0.0337,0.0404,0.0607,0.0809,0.1009,0.1076,0.1076,0.1076,0.1076,0.1076,0.1076,0.1277,0.1614,0.1614,0.1884,0.2421,0.382,0.4287,0.4553,0.5951,0.642,0.642,0.642,0.6548,0.6741,0.6881,0.7073,0.7204,0.7204,0.733,0.7521,0.7521,0.7521,0.7912,0.9454,0.9396,0.9652,1.1864,1.1934,1.1809,1.2498,1.2621,1.2621,1.2621,1.2621,1.2621,1.2621,1.3094,1.3795,1.461,1.5255,1.5958,1.6888,1.7011,1.7078,1.7278,1.7557,1.7986,1.8572,1.9383,1.9793,1.9793,2.0298,2.0839,2.1404,2.0851,2.1018,2.1814,2.1869,2.2428,2.3434,2.4218,2.5049,2.5893,2.5522,2.592,2.6727,2.6111,2.6233,2.6779,2.6779,2.6779,2.6779,2.6779,2.6779,2.6779,-0.6563,-0.6412,-0.6338,-0.6338,-0.6338,-0.6338,-0.6338,-0.6338,-0.6338,-0.6338,-0.622,-0.6193,-0.6193,-0.6152,-0.6122,-0.6122,-0.5891,-0.5354,-0.4515,-0.3215,-0.2198,-0.1627,-0.0799,-0.0215,0.0,0.0,0.0,0.0,0.0,0.0137,0.0472,0.0472,0.0674,0.1009,0.1076,0.1076,0.1076,0.1076,0.1076,0.1076,0.1076,0.121,0.1412,0.1547,0.2084,0.2822,0.3887,0.4616,0.5213,0.6083,0.642,0.642,0.642,0.6548,0.6741,0.6881,0.7073,0.7199,0.7396,0.7461,0.7521,0.7521,0.7521,0.7717,0.8678,0.9262,0.9894,1.1149,1.1732,1.2182,1.256,1.2621,1.2621,1.2621,1.2621,1.2621,1.2621,1.2736,1.3329,1.4551,1.4845,1.5487,1.6888,1.7011,1.7078,1.7278,1.7845,1.8374,1.8779,1.9321,1.9936,2.0523,2.0748,2.1152,2.1957,2.1748,2.1956,2.2589,2.2916,2.3225,2.3567,2.3958,2.4336,2.454,2.4711,2.4924,2.5217,2.5356,2.5522,2.5687,2.6056,2.6272,2.6472,2.6472,2.6592,2.6779,-0.6486,-0.6412,-0.6338,-0.6338,-0.6338,-0.6338,-0.6338,-0.6338,-0.6338,-0.6338,-0.6338,-0.6338,-0.6338,-0.6338,-0.6261,-0.618,-0.555,-0.4535,-0.3051,-0.2348,-0.1633,-0.0844,-0.0303,0.0,0.0,0.0,0.0,0.0,0.0,0.0212,0.0556,0.0482,0.0684,0.1093,0.1081,0.1076,0.1076,0.1076,0.1076,0.1076,0.1076,0.121,0.1344,0.1747,0.2351,0.309,0.422,0.4951,0.5477,0.6148,0.642,0.642,0.6482,0.6609,0.6741,0.6881,0.7073,0.7199,0.733,0.7461,0.7521,0.7521,0.7521,0.7717,0.8683,0.939,1.0085,1.1219,1.1919,1.2367,1.256,1.2621,1.2621,1.2621,1.2621,1.2621,1.2621,1.2621,1.3094,1.4451,1.4628,1.5274,1.7031,1.7223,1.7377,1.7824,1.8378,1.8767,1.8952,1.9559,2.0151,2.0694,2.1026,2.1469,2.1987,2.208,2.2273,2.2604,2.3125,2.3292,2.3352,2.3695,2.3917,2.4021,2.3962,2.4137,2.4526,2.454,2.4711,2.4993,2.5412,2.5742,2.5906,2.6082,2.6272,2.6447,-0.6338,-0.6338,-0.6338,-0.6338,-0.6338,-0.6338,-0.6338,-0.6338,-0.6338,-0.6338,-0.6338,-0.6338,-0.6338,-0.6261,-0.618,-0.5941,-0.4768,-0.3287,-0.141,-0.1332,-0.0941,0.0,0.0,0.0,0.0,0.0,0.0,0.0,0.0,0.0219,0.0583,0.0569,0.0773,0.1124,0.1096,0.1084,0.1084,0.1081,0.108,0.108,0.1077,0.121,0.1412,0.2149,0.2684,0.3291,0.4622,0.5282,0.5609,0.6214,0.642,0.6416,0.6609,0.6741,0.6741,0.6876,0.7073,0.7199,0.7199,0.733,0.7521,0.7521,0.7521,0.7907,0.9198,0.9646,1.0218,1.1802,1.2182,1.2367,1.256,1.2621,1.2621,1.2621,1.2621,1.2621,1.2621,1.2653,1.3091,1.4405,1.4621,1.5367,1.7322,1.7541,1.79,1.8654,1.8961,1.9104,1.9104,1.995,2.0419,2.0419,2.123,2.1651,2.1714,2.2049,2.2197,2.2197,2.2604,2.2848,2.2848,2.3292,2.3623,2.38,2.3233,2.3518,2.4239,2.3741,2.3859,2.4412,2.4881,2.5119,2.5189,2.566,2.5839,2.5893,-0.6338,-0.6338,-0.6338,-0.6338,-0.6338,-0.6338,-0.6338,-0.6338,-0.6338,-0.6338,-0.6338,-0.6338,-0.6338,-0.6099,-0.5941,-0.5941,-0.4768,-0.3287,-0.141,-0.1332,-0.0941,0.0,0.0,0.0,0.0,0.0,0.0,0.0,0.015,0.0372,0.0583,0.0725,0.0939,0.1156,0.115,0.1147,0.1145,0.1121,0.1111,0.1109,0.1085,0.121,0.1412,0.2149,0.295,0.3885,0.4752,0.555,0.6218,0.635,0.642,0.6416,0.6609,0.6745,0.6881,0.7073,0.7265,0.7456,0.7456,0.7456,0.7521,0.7521,0.7907,0.849,0.9326,0.9518,1.0028,1.174,1.212,1.2251,1.256,1.2621,1.2621,1.2621,1.2621,1.2621,1.2621,1.2798,1.3463,1.4814,1.5221,1.6081,1.7655,1.8041,1.8326,1.8687,1.9098,1.9317,1.9317,1.9852,2.0298,2.0542,2.1037,2.1411,2.1714,2.2049,2.2197,2.2197,2.2309,2.2371,2.2371,2.2482,2.2543,2.2592,2.242,2.2482,2.2714,2.2957,2.3138,2.3305,2.3754,2.4323,2.4851,2.4908,2.537,2.5893,-0.6338,-0.6338,-0.6338,-0.6338,-0.6338,-0.6338,-0.6338,-0.6338,-0.6338,-0.6338,-0.6338,-0.6338,-0.6338,-0.6099,-0.547,-0.4533,-0.3441,-0.2192,-0.0784,-0.0706,-0.0471,0.0,0.0,0.0,0.0,0.0,0.0,0.0,0.0231,0.0383,0.0604,0.0821,0.104,0.1187,0.1173,0.1166,0.1166,0.1149,0.1142,0.1141,0.1125,0.1398,0.1883,0.2614,0.3553,0.4566,0.5376,0.5951,0.642,0.642,0.642,0.642,0.6745,0.6811,0.6946,0.7265,0.7396,0.7521,0.7521,0.7521,0.7521,0.7521,0.7972,0.8683,0.9326,0.9831,1.0465,1.1677,1.2058,1.2235,1.2594,1.2688,1.2798,1.3028,1.3052,1.3052,1.3052,1.3211,1.3705,1.4716,1.5359,1.6405,1.8082,1.8806,1.9187,1.925,1.9552,1.9693,1.9693,1.9944,2.0205,2.0335,2.0711,2.1094,2.1474,2.1788,2.2049,2.2197,2.2197,2.2197,2.2197,2.2197,2.2197,2.2197,2.2197,2.2197,2.2185,2.2494,2.2555,2.2604,2.3065,2.3471,2.3884,2.4337,2.4921,2.5453,-0.6338,-0.6338,-0.6338,-0.6338,-0.6338,-0.6338,-0.6338,-0.6338,-0.6338,-0.6338,-0.6338,-0.6261,-0.6257,-0.5864,-0.4846,-0.2895,-0.188,-0.0941,-0.0079,0.0,0.0,0.0,0.0,0.0,0.0,0.0,0.0,0.0079,0.0236,0.0471,0.0628,0.0846,0.1067,0.1218,0.1194,0.1182,0.1181,0.1176,0.1174,0.1247,0.1314,0.1821,0.254,0.3405,0.4286,0.5177,0.6015,0.6356,0.6465,0.6465,0.6444,0.649,0.6854,0.6999,0.707,0.7489,0.7631,0.7631,0.7631,0.7631,0.7631,0.7631,0.8215,0.8935,0.9521,1.0251,1.1059,1.1833,1.2107,1.2388,1.2794,1.2913,1.3063,1.3537,1.3584,1.3584,1.3584,1.3632,1.3939,1.4586,1.551,1.6802,1.8624,1.9457,1.9868,1.9868,2.0009,2.0085,2.0085,2.0085,2.0085,2.0085,2.0453,2.0764,2.1094,2.1474,2.1851,2.2123,2.2185,2.2197,2.2197,2.2197,2.2197,2.2197,2.2197,2.2197,2.2197,2.2197,2.2197,2.2259,2.2604,2.2848,2.3017,2.3943,2.4593,2.5005,-0.6338,-0.6338,-0.6338,-0.6338,-0.6338,-0.6338,-0.6338,-0.6338,-0.6338,-0.6338,-0.6338,-0.618,-0.5941,-0.5004,-0.3832,-0.2659,-0.1801,-0.0941,-0.0079,0.0,0.0,0.0,0.0,0.0,0.0,0.0,0.0079,0.0236,0.0471,0.0629,0.0864,0.1096,0.1251,0.1251,0.1325,0.1322,0.1321,0.1217,0.1205,0.1278,0.1983,0.24,0.283,0.4265,0.5123,0.562,0.6395,0.6646,0.6656,0.6643,0.6672,0.6705,0.714,0.7333,0.7505,0.7878,0.7995,0.7995,0.7995,0.7995,0.7995,0.7995,0.9029,1.0057,1.0194,1.0616,1.1311,1.2402,1.2669,1.2817,1.3196,1.3204,1.3279,1.3576,1.3584,1.3584,1.3584,1.3846,1.4304,1.5036,1.6612,1.8091,1.9114,1.9441,1.9736,1.9868,2.0009,2.0085,2.0085,2.0085,2.0085,2.0085,2.0453,2.0635,2.07,2.1336,2.1714,2.1788,2.2049,2.2197,2.2197,2.2197,2.2197,2.2197,2.2197,2.2197,2.2197,2.2197,2.2197,2.2197,2.2247,2.2555,2.3017,2.3943,2.4593,2.5005,-0.6338,-0.6338,-0.6338,-0.6338,-0.6338,-0.6338,-0.6338,-0.6338,-0.6338,-0.6338,-0.6338,-0.618,-0.5941,-0.4377,-0.2973,-0.1957,-0.1097,-0.0392,0.0,0.0,0.0,0.0,0.0,0.0,0.0,0.0,0.0157,0.0471,0.055,0.0628,0.0707,0.11,0.1335,0.1335,0.1335,0.1335,0.1335,0.1243,0.1237,0.1313,0.2137,0.2882,0.363,0.4765,0.5698,0.635,0.6701,0.6836,0.6838,0.6834,0.6847,0.6936,0.7298,0.7469,0.7556,0.7986,0.808,0.808,0.808,0.8433,0.8785,0.8785,0.9887,1.103,1.1191,1.1695,1.2215,1.2533,1.2661,1.2788,1.3393,1.35,1.3623,1.4079,1.4172,1.4172,1.4172,1.4307,1.4684,1.5436,1.6615,1.7696,1.8519,1.9198,1.9615,1.9747,1.9944,2.0085,2.0085,2.0085,2.0085,2.0085,2.027,2.0388,2.0571,2.0892,2.121,2.1411,2.1549,2.1862,2.2197,2.2197,2.2197,2.2197,2.2197,2.2197,2.2197,2.2197,2.2197,2.2197,2.2197,2.2494,2.2969,2.3378,2.3839,2.4234]},{"header":{"parameterUnit":"m.s-1","parameterCategory":1,"la1":30.6,"la2":28.766,"lo1":-90.7593,"lo2":-88.6598,"dx":0.0162,"dy":0.0183,"nx":116,"ny":114,"refTime":"2023-01-23T06:00:00:Z","depth":0,"parameterNumber":3,"parameterNumberName":"V-component_of_WINDS"},"data":[0.0,0.0,0.0,0.0,0.0,0.0,0.0,0.0,0.0,0.0,0.0,0.0,0.0,0.0,0.0,0.0,0.0,0.0,0.0,0.0,0.0,0.0,0.0,0.0,0.0,0.0,0.0,0.0,0.0,0.0,0.0,0.0,0.0,0.0,0.0,0.0,0.0,0.0,0.0,0.0,0.0,0.0,0.0,0.0,0.0,0.0,0.0,0.0,0.0,0.0,0.0,0.0,0.0,0.0,0.0,0.0,0.0,0.0,0.0,0.0,0.0,0.0,0.0,0.0,0.0,0.0,0.0,0.0,0.0,0.0,0.0,0.0,0.0,0.0,0.0,0.0,0.0,0.0,0.0,0.0,0.0,0.0,0.0,0.0,0.0,0.0,0.0,0.0,0.0,0.0,0.0,0.0,0.0,0.0,0.0,0.0,0.0,0.0,0.0,0.0,0.0,0.0,0.0,0.0,0.0,0.0,0.0,0.0,0.0,0.0,0.0,0.0,0.0,0.0,0.0,0.0,0.0,0.0,0.0,0.0,0.0,0.0,0.0,0.0,0.0,0.0,0.0,0.0,0.0,0.0,0.0,0.0,0.0,0.0,0.0,0.0,0.0,0.0,0.0,0.0,0.0,0.0,0.0,0.0,0.0,0.0,0.0,0.0,0.0,0.0,0.0,0.0,0.0,0.0,0.0,0.0,0.0,0.0,0.0,0.0,0.0,0.0,0.0,0.0,0.0,0.0,0.0,0.0,0.0,0.0,0.0,0.0,0.0,0.0,0.0,0.0,0.0,0.0,0.0,0.0,0.0,0.0,0.0,0.0,0.0,0.0,0.0,0.0,0.0,0.0,0.0,0.0,0.0,0.0,0.0,0.0,0.0,0.0,0.0,0.0,0.0,0.0,0.0,0.0,0.0,0.0,0.0,0.0,0.0,0.0,0.0,0.0,0.0,0.0,0.0,0.0,0.0,0.0,0.0,0.0,0.0,0.0,0.0,0.0,0.0,0.0,0.0,0.0,0.0,0.0,0.0,0.0,0.0,0.0,0.0,0.0,0.0,0.0,0.0,0.0,0.0,0.0,0.0,0.0,0.0,0.0,0.0,0.0,0.0,0.0,0.0,0.0,0.0,0.0,0.0,0.0,0.0,0.0,0.0,0.0,0.0,0.0,0.0,0.0,0.0,0.0,0.0,0.0,0.0,0.0,0.0,0.0,0.0,0.0,0.0,0.0,0.0,0.0,0.0,0.0,0.0,0.0,0.0,0.0,0.0,0.0,0.0,0.0,0.0,0.0,0.0,0.0,0.0,0.0,0.0,0.0,0.0,0.0,0.0,0.0,0.0,0.0,0.0,0.0,0.0,0.0,0.0,0.0,0.0,0.0,0.0,0.0,0.0,0.0,0.0,0.0,0.0,0.0,0.0,0.0,0.0,0.0,0.0,0.0,0.0,0.0,0.0,0.0,0.0,0.0,0.0,0.0,0.0,0.0,0.0,0.0,0.0,0.0,0.0,0.0,0.0,0.0,0.0,0.0,0.0,0.0,0.0,0.0,0.0,0.0,0.0,0.0,0.0,0.0,0.0,0.0,0.0,0.0,0.0,0.0,0.0,0.0,0.0,0.0,0.0,0.0,0.0,0.0,0.0,0.0,0.0,0.0,0.0,0.0,0.0,0.0,0.0,0.0,0.0,0.0,0.0,0.0,0.0,0.0,0.0,0.0,0.0,0.0,0.0,0.0,0.0,0.0,0.0,0.0,0.0,0.0,0.0,0.0,0.0,0.0,0.0,0.0,0.0,0.0,0.0,0.0,0.0,0.0,0.0,0.0,0.0,0.0,0.0,0.0,0.0,0.0,0.0,0.0,0.0,0.0,0.0,0.0,0.0,0.0,0.0,0.0,0.0,0.0,0.0,0.0,0.0,0.0,0.0,0.0,0.0,0.0,0.0,0.0,0.0,0.0,0.0,0.0,0.0,0.0,0.0,0.0,0.0,0.0,0.0,0.0,0.0,0.0,0.0,0.0,0.0,0.0,0.0,0.0,0.0,0.0,0.0,0.0,0.0,0.0,0.0,0.0,0.0,0.0,0.0,0.0,0.0,0.0,0.0,0.0,0.0,0.0,0.0,0.0,0.0,0.0,0.0,0.0,0.0,0.0,0.0,0.0,0.0,0.0,0.0,0.0,0.0,0.0,0.0,0.0,0.0,0.0,0.0,0.0,0.0,0.0,0.0,0.0,0.0,0.0,0.0,0.0,0.0,0.0,0.0,0.0,0.0,0.0,0.0,0.0,0.0,0.0,0.0,0.0,0.0,0.0,0.0,0.0,0.0,0.0,0.0,0.0,0.0,0.0,0.0,0.0,0.0,0.0,0.0,0.0,0.0,0.0,0.0,0.0,0.0,0.0,0.0,0.0,0.0,0.0,0.0,0.0,0.0,0.0,0.0,0.0,0.0,0.0,0.0,0.0,0.0,0.0,0.0,0.0,0.0,0.0,0.0,0.0,0.0,0.0,0.0,0.0,0.0,0.0,0.0,0.0,0.0,0.0,0.0,0.0,0.0,0.0,0.0,0.0,0.0,0.0,0.0,0.0,0.0,0.0,0.0,0.0,0.0,0.0,0.0,0.0,0.0,0.0,0.0,0.0,0.0,0.0,0.0,0.0,0.0,0.0,0.0,0.0,0.0,0.0,0.0,0.0,0.0,0.0,0.0,0.0,0.0,0.0,0.0,0.0,0.0,0.0,0.0,0.0,0.0,0.0,0.0,0.0,0.0,0.0,0.0,0.0,0.0,0.0,0.0,0.0,0.0,0.0,0.0,0.0,0.0,0.0,0.0,0.0,0.0,0.0,0.0,0.0,0.0,0.0,0.0,0.0,0.0,0.0,0.0,0.0,0.0,0.0,0.0,0.0,0.0,0.0,0.0,0.0,0.0,0.0,0.0,0.0,0.0,0.0,0.0,0.0,0.0,0.0,0.0,0.0,0.0,0.0,0.0,0.0,0.0,0.0,0.0,0.0,0.0,0.0,0.0,0.0,0.0,0.0,0.0,0.0,0.0,0.0,0.0,0.0,0.0,0.0,0.0,0.0,0.0,0.0,0.0,0.0,0.0,0.0,0.0,0.0,0.0,0.0,0.0,0.0,0.0,0.0,0.0,0.0,0.0,0.0,0.0,0.0,0.0,0.0,0.0,0.0,0.0,0.0,0.0,0.0,0.0,0.0,0.0,0.0,0.0,0.0,0.0,0.0,0.0,0.0,0.0,0.0,0.0,0.0,0.0,0.0,0.0,0.0,0.0,0.0,0.0,0.0,0.0,0.0,0.0,0.0,0.0,0.0,0.0,0.0,0.0,0.0,0.0,0.0,0.0,0.0,0.0,0.0,0.0,0.0,0.0,0.0,0.0,0.0,0.0,0.0,0.0,0.0,0.0,0.0,0.0,0.0,0.0,0.0,0.0,0.0,0.0,0.0,0.0,0.0,0.0,0.0,0.0,0.0,0.0,0.0,0.0,0.0,0.0,0.0,0.0,0.0,0.0,0.0,0.0,0.0,0.0,0.0,0.0,0.0,0.0,0.0,0.0,0.0,0.0,0.0,0.0,0.0,0.0,0.0,0.0,0.0,0.0,0.0,0.0,0.0,0.0,0.0,0.0,0.0,0.0,0.0,0.0,0.0,0.0,0.0,0.0,0.0,0.0,0.0,0.0,0.0,0.0,0.0,0.0,0.0,0.0,0.0,0.0,0.0,0.0,0.0,0.0,0.0,0.0,0.0,0.0,0.0,0.0,0.0,0.0,0.0,0.0,0.0,0.0,0.0,0.0,0.0,0.0,0.0,0.0,0.0,0.0,0.0,0.0,0.0,0.0,0.0,0.0,0.0,0.0,0.0,0.0,0.0,0.0,0.0,0.0,0.0,0.0,0.0,0.0,0.0,0.0,0.0,0.0,0.0,0.0,0.0,0.0,0.0,0.0,0.0,0.0,0.0,0.0,0.0,0.0,0.0,0.0,0.0,0.0,0.0,0.0,0.0,0.0,0.0,0.0,0.0,0.0,0.0,0.0,0.0,0.0,0.0,0.0,0.0,0.0,0.0,0.0,0.0,0.0,0.0,0.0,0.0,0.0,0.0,0.0,0.0,0.0,0.0,0.0,0.0,0.0,0.0,0.0,0.0,0.0,0.0,0.0,0.0,0.0,0.0,0.0,0.0,0.0,0.0,0.0,0.0,0.0,0.0,0.0,0.0,0.0,0.0,0.0,0.0,0.0,0.0,0.0,0.0,0.0,0.0,0.0,0.0,0.0,0.0,0.0,0.0,0.0,0.0,0.0,0.0,0.0,0.0,0.0,0.0,0.0,0.0,0.0,0.0,0.0,0.0,0.0,0.0,0.0,0.0,0.0,0.0,0.0,0.0,0.0,0.0,0.0,0.0,0.0,0.0,0.0,0.0,0.0,0.0,0.0,0.0,0.0,0.0,0.0,0.0,0.0,0.0,0.0,0.0,0.0,0.0,0.0,0.0,0.0,0.0,0.0,0.0,0.0,0.0,0.0,0.0,0.0,0.0,0.0,0.0,0.0,0.0,0.0,0.0,0.0,0.0,0.0,0.0,0.0,0.0,0.0,0.0,0.0,0.0,0.0,0.0,0.0,0.0,0.0,0.0,0.0,0.0,0.0,0.0,0.0,0.0,0.0,0.0,0.0,0.0,0.0,0.0,0.0,0.0,0.0,0.0,0.0,0.0,0.0,0.0,0.0,0.0,0.0,0.0,0.0,0.0,0.0,0.0,0.0,0.0,0.0,0.0,0.0,0.0,0.0,0.0,0.0,0.0,0.0,0.0,0.0,0.0,0.0,0.0,0.0,0.0,0.0,0.0,0.0,0.0,0.0,0.0,0.0,0.0,0.0,0.0,0.0,0.0,0.0,0.0,0.0,0.0,0.0,0.0,0.0,0.0,0.0,0.0,0.0,0.0,0.0,0.0,0.0,0.0,0.0,0.0,0.0,0.0,0.0,0.0,0.0,0.0,0.0,0.0,0.0,0.0,0.0,0.0,0.0,0.0,0.0,0.0,0.0,0.0,0.0,0.0,0.0,0.0,0.0,0.0,0.0,0.0,0.0,0.0,0.0,0.0,0.0,0.0,0.0,0.0,0.0,0.0,0.0,0.0,0.0,0.0,0.0,0.0,0.0,0.0,0.0,0.0,0.0,0.0,0.0,0.0,0.0,0.0,0.0,0.0,0.0,0.0,0.0,0.0,0.0,0.0,0.0,0.0,0.0,0.0,0.0,0.0,0.0,0.0,0.0,0.0,0.0,0.0,0.0,0.0,0.0,0.0,0.0,0.0,0.0,0.0,0.0,0.0,0.0,0.0,0.0,0.0,0.0,0.0,0.0,0.0,0.0,0.0,0.0,0.0,0.0,0.0,0.0,0.0,0.0,0.0,0.0,0.0,0.0,0.0,0.0,0.0,0.0,0.0,0.0,0.0,0.0,0.0,0.0,0.0,0.0,0.0,0.0,0.0,0.0,0.0,0.0,0.0,0.0,0.0,0.0,0.0,0.0,0.0,0.0,0.0,0.0,0.0,0.0,0.0,0.0,0.0,0.0,0.0,0.0,0.0,0.0,0.0,0.0,0.0,0.0,0.0,0.0,0.0,0.0,0.0,0.0,0.0,0.0,0.0,0.0,0.0,0.0,0.0,0.0,0.0,0.0,0.0,0.0,0.0,0.0,0.0,0.0,0.0,0.0,0.0,0.0,0.0,0.0,0.0,0.0,0.0,0.0,0.0,0.0,0.0,0.0,0.0,0.0,0.0,0.0,0.0,0.0,0.0,0.0,0.0,0.0,0.0,0.0,0.0,0.0,0.0,0.0,0.0,0.0,0.0,0.0,0.0,0.0,0.0,0.0,0.0,0.0,0.0,0.0,0.0,0.0,0.0,0.0,0.0,0.0,0.0,0.0,0.0,0.0,0.0,0.0,0.0,0.0,0.0,0.0,0.0,0.0,0.0,0.0,0.0,0.0,0.0,0.0,0.0,0.0,0.0,0.0,0.0,0.0,0.0,0.0,0.0,0.0,0.0,0.0,0.0,0.0,0.0,0.0,0.0,0.0,0.0,0.0,0.0,0.0,0.0,-0.0517,0.0,0.0,0.0,0.0,0.0,0.0,0.0,0.0,0.0,0.0,0.0,0.0,0.0,0.0,0.0,0.0,0.0,0.0,0.0,0.0,0.0,0.0,0.0,0.0,0.0,0.0,0.0,0.0,0.0,0.0,0.0,0.0,0.0,0.0,0.0,0.0,0.0,0.0,0.0,0.0,0.0,0.0,0.0,0.0,0.0,0.0,0.0,0.0,0.0,0.0,0.0,0.0,0.0,0.0,0.0,0.0,0.0,0.0,0.0,0.0,0.0,0.0,0.0,0.0,0.0,0.0,0.0,0.0,0.0,0.0,0.0,0.0,0.0,0.0,0.0,0.0,0.0,0.0,0.0,0.0,0.0,0.0,0.0,0.0,0.0,0.0,0.0,0.0,0.0,0.0,0.0,0.0,0.0,0.0,0.0,0.0,0.0,0.0,0.0,0.0,0.0,0.0,0.0,0.0,0.0,0.0,0.0,0.0,0.0,0.0,0.0,0.0,0.0,0.0,0.0,0.0,-0.0455,0.0,0.0,0.0,0.0,0.0,0.0,0.0,0.0,0.0,0.0,0.0,0.0,0.0,0.0,0.0,0.0,0.0,0.0,0.0,0.0,0.0,0.0,0.0,0.0,0.0,0.0,0.0,0.0,0.0,0.0,0.0,0.0,0.0,0.0,0.0,0.0,0.0,0.0,0.0,0.0,0.0,0.0,0.0,0.0,0.5144,0.0,0.0,0.0,0.0,0.0,0.0,0.0,0.0,0.0,0.0,0.0,0.0,0.0,0.0,0.0,0.0,0.0,0.0,0.0,0.0,0.0,0.0,0.0,0.0,0.0,0.0,0.0,0.0,0.0,0.0,0.0,0.0,0.0,0.0,0.0,0.0,0.0,0.0,0.0,0.0,0.0,0.0,0.0,0.0,0.0,0.0,0.0,0.0,0.0,0.0,0.0,0.0,0.0,0.0,0.0,0.0,0.0,0.0,0.0,0.0,0.0,0.0,0.0,0.0,-0.208,-0.2109,-0.2109,-0.2064,-0.1973,-0.1299,-0.0922,-0.0726,0.0,0.0,0.0,0.0,0.0,0.0,0.0,0.0,0.0,0.0,0.0,0.0,0.0,0.0,0.0,0.0,0.0,0.0,0.0,0.0,0.0,0.0,0.0,0.0,0.0,0.0,0.0,0.0,0.0,0.0,0.0,0.0,0.0,0.0,0.0,0.0,0.0,0.0,0.0,0.0,0.0,0.0,0.0,0.5289,0.5207,0.0,0.0,0.0,0.0,0.0,0.0,0.0,0.0,0.0,0.0,0.0,0.0,0.0,0.0,0.0,0.0,0.0,0.0,0.0,0.0,0.0,0.0,0.0,0.0,0.0,0.0,0.0,0.0,0.0,0.0,0.0,0.0,0.0,0.0,0.0,0.0,0.0,0.0,0.0,0.0,0.0,0.0,0.07,0.0592,0.0,0.0,0.0,0.0,0.0,0.0,0.0,0.0,0.0,0.0,0.0,0.0,0.0,0.0,-0.1985,-0.2029,-0.2035,-0.2047,-0.2091,-0.2097,-0.2109,-0.2109,-0.1928,-0.1658,-0.1569,0.0,-0.1646,-0.1655,0.0,0.0,0.0,0.0,0.0,0.0,0.0,0.0,0.0,0.0,0.0,0.0,0.0,0.0,0.0,0.0,0.0,0.0,0.0,0.0,0.0,0.0,0.0,0.0,0.0,0.0,0.0,0.0,0.0,0.0,0.0,0.0,0.0,0.0,0.0,0.0,0.0,0.0,0.0,0.0,0.0,0.0,0.0,0.0,0.0,0.0,0.0,0.0,0.0,0.0,0.0,0.0,0.0,0.0,0.0,0.0,0.0,0.0,0.0,0.0,0.0,0.0,0.0,0.0,0.0,0.0,0.0,0.0,0.0,0.0,0.0,0.0,0.0,0.0,0.0,0.0,0.0,0.0,0.0,0.0,0.0,0.0,0.0,0.0,0.0,0.084,0.0695,0.0638,0.0552,0.0255,0.0,0.0,0.0,0.0,0.0,0.0,0.0,0.0,0.0,-0.2271,-0.2442,-0.2464,-0.2328,-0.2464,-0.2556,-0.2556,-0.2556,-0.2556,-0.2556,-0.2556,-0.2464,-0.2328,-0.2328,-0.2284,-0.215,-0.1837,-0.1794,-0.1975,0.0,0.0,0.0,0.0,0.0,-0.1569,0.0,0.0,0.0,0.0,0.0,0.0,0.0,0.0,0.0,0.0,0.0,0.0,0.0,0.0,0.0,0.0,0.0,0.0,0.0,0.0,0.0,0.0,0.0,0.0,0.0,0.0,0.0,0.0,0.0,0.0,0.0,0.0,0.0,0.0,0.0,0.0,0.0,0.0,0.0,0.0,0.0,0.0,0.0,0.0,0.0,0.0,0.0,0.0,0.0,0.0,0.0,0.0,0.0,0.0,0.0,0.0,0.0,0.0,0.0,0.0,0.0,0.0,0.0,0.0,0.0,0.0,0.0,0.0,0.0,0.0,0.0,0.0,0.0,0.0,0.0,0.0,0.0,0.0673,0.0449,0.0674,0.0359,-0.0,0.0,0.0,0.0,0.0,0.0,0.0,-0.2823,-0.2912,-0.2779,-0.2556,-0.2779,-0.2821,-0.2637,-0.2818,-0.2909,-0.2909,-0.2954,-0.2998,-0.2998,-0.2998,-0.2998,-0.2998,-0.2998,-0.2862,-0.2637,-0.2059,-0.1971,-0.2241,-0.2417,-0.2328,-0.2107,-0.2152,-0.1971,-0.1657,0.0,0.0,0.0,0.0,0.0,0.0,0.0,0.0,0.0,0.0,0.0,0.0,0.0,0.0,0.0,0.0,0.0,0.0,0.0,0.0,0.0,0.0,0.0,0.0,0.0,0.0,0.0,0.0,0.0,0.0,0.0,0.0,0.0,0.0,0.0,0.0,0.0,0.0,0.0,0.0,0.0,0.0,0.0,0.0,0.0,0.0,0.0,0.0,0.0,0.0,0.0,0.0,0.0,0.0,0.0,0.0,0.0,0.0,0.0,0.0,0.0,0.0,0.0,0.0,0.0,0.0,0.0,0.0,0.0,0.0,0.0,0.0,0.0,0.0,0.0,0.0,0.0,0.0,0.0,0.0584,-0.009,0.0,0.0,0.0,0.0,-0.2912,-0.2823,-0.2821,-0.2912,-0.2912,-0.2909,-0.299,-0.2909,-0.2909,-0.299,-0.299,-0.299,-0.299,-0.3126,-0.3173,-0.3173,-0.3173,-0.3173,-0.3173,-0.3173,-0.3173,-0.3126,-0.2637,-0.2462,-0.246,-0.2504,-0.264,-0.2823,-0.2551,-0.2462,-0.237,0.0,0.0,0.0,0.0,0.0,0.0,0.0,0.0,0.0,0.0,0.0,0.0,0.0,0.0,0.0,0.0,0.0,0.0,0.0,0.0,0.0,0.0,0.0,0.0,0.0,0.0,0.0,0.0,0.0,0.0,0.0,0.0,0.0,0.0,0.0,0.0,0.0,0.0,0.0,0.0,0.0,0.0,0.0,0.0,0.0,0.0,0.0,0.0,0.0,0.0,0.0,0.0,0.0,0.0,0.0,0.0,0.0,0.0,0.0,0.0,0.0,0.0,0.0,0.0,0.0,0.0,0.0,0.0,0.0,0.0,0.0,0.0,0.0,0.0,0.0,0.0,0.0,0.0,0.0,-0.1526,-0.1207,0.0,0.0,-0.2915,-0.3141,-0.3141,-0.3135,-0.3084,-0.3084,-0.3084,-0.3081,-0.3126,-0.3126,-0.3126,-0.3126,-0.3126,-0.3126,-0.3126,-0.317,-0.3214,-0.3214,-0.3214,-0.3214,-0.3214,-0.3214,-0.3214,-0.317,-0.3037,-0.2948,-0.2948,-0.2948,-0.2862,-0.2776,-0.2684,-0.2502,-0.2326,0.0,0.0,0.0,0.0,0.0,0.0,0.0,0.0,0.0,0.0,0.0,0.0,0.0,0.0,0.0,0.0,0.0,0.0,0.0,0.0,0.0,0.0,0.0,0.0,0.0,0.0,0.0,0.0,0.0,0.0,0.0,0.0,0.0,0.0,0.0,0.0,0.0,0.0,0.0,0.0,0.0,0.0,0.6943,0.0,0.0,0.0,0.0,0.0,0.0,0.0,0.0,0.0,0.0,0.0,0.0,0.0,0.0,0.0,0.0,0.0,0.0,0.0,0.0,0.0,0.0,0.0,0.0,0.0,0.0,0.0,0.0,0.0,0.0,0.0,0.0,0.0,0.0,0.0,-0.1344,-0.2384,-0.1925,-0.1875,-0.2823,-0.3138,-0.3271,-0.3271,-0.322,-0.3214,-0.3214,-0.3214,-0.3214,-0.3262,-0.3214,-0.3214,-0.3262,-0.3306,-0.3306,-0.3262,-0.3347,-0.3347,-0.3394,-0.3443,-0.3465,-0.3469,-0.3517,-0.349,-0.349,-0.349,-0.349,-0.3441,-0.33,-0.3178,-0.3031,-0.2938,-0.2845,-0.2665,0.0,0.0,0.0,0.0,0.0,0.0,0.0,0.0,0.0,0.0,0.0,0.0,0.0,0.0,0.0,0.0,0.0,0.0,0.0,0.0,0.0,0.0,0.0,0.0,0.0,0.0,0.0,0.0,0.0,0.0,0.0,0.0,0.0,0.0,0.0,0.0,0.0,0.0,0.0,0.0,0.0,0.0,0.6945,0.0,0.0,0.0,0.0,0.0,0.0,0.0,0.0,0.0,0.0,0.0,0.0,0.0,0.0,0.0,0.0,0.0,0.0,0.0,0.0,0.0,0.0,0.0,0.0,0.0,0.0,0.0,0.0,0.0,0.0,0.0,0.0,0.0,-0.0674,-0.1121,-0.1524,-0.1801,-0.2243,-0.2504,-0.2415,-0.2904,-0.3214,-0.3214,-0.3214,-0.3214,-0.3214,-0.3214,-0.3262,-0.3398,-0.3262,-0.3262,-0.3398,-0.3537,-0.3541,-0.3448,-0.3626,-0.3714,-0.3718,-0.3919,-0.3994,-0.4001,-0.4157,-0.4122,-0.4019,-0.4019,-0.4022,-0.3963,-0.3576,-0.3556,-0.368,-0.3474,-0.3424,-0.3377,0.0,0.0,0.0,0.0,0.0,0.0,0.0,0.0,0.0,0.0,0.0,0.0,0.0,0.0,0.0,0.0,0.0,0.0,0.0,0.0,0.0,0.0,0.0,0.0,0.0,0.0,0.0,0.0,0.0,0.0,0.0,0.0,0.0,0.0,0.0,0.0,0.0,0.0,0.0,0.0,0.0,0.0,0.9221,0.0,0.0,0.0,0.0,0.0,0.0,0.0,0.0,0.0,0.0,0.0,0.0,0.0,0.0,0.0,0.0,0.0,0.0,0.0,0.0,0.0,0.0,0.0,0.0,0.0,0.0,0.0,0.0,0.0,0.0,0.0,0.0,-0.0674,-0.0674,-0.1121,-0.1612,-0.215,-0.2462,-0.2773,-0.3084,-0.3353,-0.349,-0.349,-0.349,-0.349,-0.349,-0.349,-0.349,-0.3534,-0.349,-0.353,-0.3612,-0.3816,-0.3922,-0.3972,-0.4179,-0.4278,-0.4282,-0.4327,-0.4349,-0.4349,-0.4398,-0.4416,-0.4367,-0.4367,-0.4437,-0.4477,-0.4016,-0.3784,-0.377,-0.3717,-0.3631,-0.3525,0.0,0.0,0.0,0.0,0.0,0.0,0.0,0.0,0.0,0.0,0.0,0.0,0.0,0.0,0.0,0.0,0.0,0.0,0.0,0.0,0.0,0.0,0.0,0.0,0.0,0.0,0.0,0.0,0.0,0.0,0.0,0.0,0.0,0.0,0.0,0.0,0.0,0.0,0.0,0.0,0.0,0.0,1.1271,1.1328,1.0315,0.891,0.9555,0.873,0.7258,0.646,0.0,0.0,0.0,0.0,0.0,0.0,0.0,0.0,0.0,0.0,0.0,0.0,0.0,0.0,0.0,0.0,0.0,0.0,0.0,0.0,0.0,0.0,0.0,0.0,-0.0763,-0.0853,-0.0853,-0.0987,-0.1345,-0.1925,-0.2326,-0.2726,-0.3173,-0.3527,-0.3711,-0.3711,-0.3711,-0.3711,-0.3711,-0.3711,-0.3787,-0.3855,-0.3855,-0.3929,-0.4033,-0.4179,-0.4275,-0.4326,-0.4473,-0.4565,-0.4569,-0.4638,-0.4669,0.0,-0.4746,-0.4725,-0.4669,-0.4669,-0.473,0.0,0.0,0.0,0.0,0.0,-0.3838,-0.3704,0.0,0.0,0.0,0.0,0.0,0.0,0.0,0.0,0.0,0.0,0.0,0.0,0.0,0.0,0.0,0.0,0.0,0.0,0.0,0.0,0.0,0.0,0.0,0.0,0.0,0.0,0.0,0.0,0.0,0.0,0.0,0.0,0.0,0.0,0.0,0.0,0.0,0.0,0.0,0.0,0.0,0.0,1.3266,1.3407,1.3068,1.2387,1.1088,1.0143,0.92,0.7243,0.0,0.0,0.0,0.0,0.0,0.0,0.0,0.0,0.0,0.0,0.0,0.0,0.0,0.0,0.0,0.0,0.0,0.0,0.0,0.0,0.0,0.0,0.0,0.0,-0.0807,-0.103,-0.1074,-0.0897,-0.0898,-0.139,-0.1925,-0.2457,-0.299,-0.3524,-0.3836,-0.388,-0.3899,-0.3954,-0.3954,0.0,0.0,0.0,0.0,-0.4323,-0.4511,-0.4584,-0.4596,-0.4546,-0.4665,-0.4677,-0.468,-0.488,-0.4947,-0.4955,-0.5058,-0.5069,-0.4956,-0.4956,-0.4956,-0.4886,-0.4638,-0.4617,-0.4636,-0.4304,-0.4024,0.0,0.0,0.0,0.0,0.0,0.0,0.0,0.0,0.0,0.0,0.0,0.0,0.0,0.0,0.0,0.0,0.0,0.0,0.0,0.0,0.0,0.0,0.0,0.0,0.0,0.0,0.0,0.0,0.0,0.0,0.0,0.0,0.0,0.0,0.0,0.0,0.0,0.0,0.0,0.0,0.0,0.0,0.0,1.5485,1.5565,1.4447,1.3015,1.4524,1.3985,1.2201,0.982,0.8835,0.829,0.6457,0.0,0.0,0.0,0.0,0.0,0.0,0.0,0.0,0.0,0.0,0.0,0.0,0.0,0.0,0.0,0.0,0.0,0.0,0.0,0.0,-0.0537,-0.0628,-0.0718,-0.1074,-0.1075,-0.121,-0.1658,-0.1837,-0.2237,-0.3081,-0.3258,-0.3483,-0.388,-0.4051,-0.4129,-0.4129,-0.43,0.0,-0.4417,-0.4421,-0.4485,-0.4569,-0.4751,-0.4868,-0.498,0.0,0.0,-0.5143,-0.5229,-0.5245,-0.5249,-0.5226,-0.5242,-0.5242,-0.5242,-0.5183,-0.5011,-0.4765,-0.4663,-0.4636,-0.4304,-0.4193,-0.4079,0.0,0.0,0.0,0.0,0.0,0.0,0.0,0.0,0.0,0.0,0.0,0.0,0.0,0.0,0.0,0.0,0.0,0.0,0.0,0.0,0.0,0.0,0.0,0.0,0.0,0.0,0.0,0.0,0.0,0.0,0.0,0.0,0.0,0.0,0.0,0.0,0.0,0.0,0.0,0.0,0.0,0.0,1.7387,1.7699,1.7099,1.6126,1.6366,1.5737,1.4461,1.225,1.1299,1.0658,0.8451,0.7388,0.6743,0.0,0.0,0.0,0.0,0.0,0.0,0.0,0.0,0.0,0.0,0.0,0.0,0.0,0.0,0.0852,0.0,0.0,0.0224,-0.0447,-0.0627,-0.0897,-0.1389,-0.1433,-0.1524,-0.1794,-0.188,-0.2299,-0.3351,-0.3498,-0.3756,-0.4303,-0.4435,-0.4486,-0.4486,-0.4613,-0.4699,-0.479,-0.4794,-0.4837,-0.4927,-0.5063,-0.5107,-0.5218,-0.5257,-0.5297,-0.5297,-0.5297,-0.5297,-0.5297,-0.5297,-0.5297,-0.5297,-0.5297,-0.5242,-0.5183,-0.4963,-0.4798,-0.4688,-0.4525,-0.4359,-0.4193,0.0,0.0,0.0,0.0,0.0,0.0,0.0,0.0,0.0,0.0,0.0,0.0,0.0,0.0,0.0,0.0,0.0,0.0,0.0,0.0,0.0,0.0,0.0,0.0,0.0,0.0,0.0,0.0,0.0,0.0,0.0,0.0,0.0,0.0,0.0,0.0,0.0,0.0,0.0,0.0,0.0,0.0,1.8623,1.9101,1.9246,1.9029,1.763,1.7002,1.6536,1.4569,1.37,1.2988,1.0418,0.9255,0.8373,0.6094,0.4932,0.0,0.0,0.0,0.0,0.0,0.0,0.0,0.0,0.0,0.1841,0.0854,0.0674,0.0719,0.0719,0.0494,0.0135,-0.0358,-0.0716,-0.1167,-0.1811,-0.1905,-0.191,-0.1927,-0.2001,-0.2479,-0.3485,-0.3738,-0.4075,-0.4697,-0.4886,-0.4956,-0.4956,-0.4939,-0.503,-0.5181,-0.5133,-0.5206,-0.5297,-0.5297,-0.5297,-0.5297,-0.5297,-0.5297,-0.5297,-0.5297,-0.5297,-0.5297,-0.5297,-0.5297,-0.5297,-0.5297,-0.5297,-0.5297,-0.5183,-0.4963,-0.4743,-0.4691,-0.4522,-0.4249,0.0,0.0,0.0,0.0,0.0,0.0,0.0,0.0,0.0,0.0,0.0,0.0,0.0,0.0,0.0,0.0,0.0,0.0,0.0,0.0,0.0,0.0,0.0,0.0,0.0,0.0,0.0,0.0,0.0,0.0,0.0,0.0,0.0,0.0,0.0,0.0,0.0,0.0,0.0,0.0,0.0,0.0,1.8544,1.877,1.8913,1.8961,1.9054,1.91,1.8817,1.6746,1.5757,1.468,1.0552,0.8926,0.8011,0.5343,0.0,0.4443,0.0,0.0,0.0,0.2776,0.2729,0.2642,0.0,0.0,0.1796,0.0674,0.0584,0.0719,0.0719,0.0674,0.0404,-0.0358,-0.0851,-0.1406,-0.2162,-0.2266,-0.2297,-0.2428,-0.2315,-0.2539,-0.3186,-0.3646,-0.4098,-0.4565,-0.5111,-0.541,-0.541,-0.5464,-0.5512,-0.5534,-0.5374,-0.5277,-0.5297,-0.5297,-0.5297,-0.5297,-0.5297,-0.5297,-0.5297,-0.5297,-0.5297,-0.5297,-0.5297,-0.5297,-0.5297,-0.5297,-0.5297,-0.5297,-0.5297,-0.5128,-0.4846,-0.4743,-0.4577,-0.4463,0.0,0.0,0.0,0.0,0.0,0.0,0.0,0.0,0.0,0.0,0.0,0.0,0.0,0.0,0.0,0.0,0.0,0.0,0.0,0.0,0.0,0.0,0.0,0.0,0.0,0.0,0.0,0.0,0.0,0.0,0.0,0.0,0.0,0.0,0.0,0.0,0.0,0.0,0.0,0.0,0.0,0.0,1.8243,1.8524,1.8641,1.8715,1.8998,1.9162,0.0,0.0,1.8002,1.7438,1.4355,1.2009,0.9907,0.7569,0.5573,0.0,0.3483,0.0,0.0,0.0,0.2328,0.2016,0.1884,0.1523,0.0941,0.0225,0.0135,0.0225,0.036,0.036,0.009,0.0,-0.096,-0.1541,-0.242,-0.2619,-0.2745,-0.3002,-0.2975,-0.3067,-0.337,-0.3531,-0.3926,-0.4481,-0.4763,-0.5015,-0.5234,-0.5303,-0.5458,-0.5681,-0.5631,-0.5576,-0.5576,-0.5517,-0.5458,-0.5458,-0.5352,-0.5297,-0.5297,-0.5297,-0.5297,-0.5297,-0.5297,-0.5297,-0.5297,-0.5297,-0.5297,-0.5297,-0.5297,-0.5183,-0.5011,-0.4849,-0.4684,-0.4463,0.0,0.0,0.0,0.0,0.0,0.0,0.0,0.0,0.0,0.0,0.0,0.0,0.0,0.0,0.0,0.0,0.0,0.0,0.0,0.0,0.0,0.0,0.0,0.0,0.0,0.0,0.0,0.0,0.0,0.0,0.0,0.0,0.0,0.0,0.0,0.0,0.0,0.0,0.0,0.0,0.0,0.0,1.8005,1.8263,1.8403,1.8485,1.8807,1.898,0.0,0.0,1.939,1.9194,1.7023,1.477,1.2507,1.0345,0.736,0.4536,0.3386,0.0,0.0,0.2551,0.2105,0.1701,0.1344,0.0895,0.0358,-0.0225,-0.036,-0.027,-0.009,-0.009,0.0,-0.0818,-0.1307,-0.1869,-0.2598,-0.2918,-0.3164,-0.3439,-0.3452,-0.3452,-0.3506,-0.3613,-0.3914,-0.4398,-0.4515,-0.4736,-0.5014,-0.5014,-0.5183,-0.5622,-0.5626,-0.5681,-0.5795,-0.5681,-0.5677,-0.5677,-0.5462,-0.5407,-0.5407,-0.5297,-0.5297,-0.5297,-0.5297,-0.5297,-0.5297,-0.5297,-0.5297,-0.5297,-0.5297,-0.5183,-0.5014,-0.4956,-0.4736,-0.4574,0.0,0.0,0.0,0.0,0.0,0.0,0.0,0.0,0.0,0.0,0.0,0.0,0.0,0.0,0.0,0.0,0.0,0.0,0.0,0.0,0.0,0.0,0.0,0.0,0.0,0.0,0.0,0.0,0.0,0.0,0.0,0.0,0.0,0.0,0.0,0.0,0.0,0.0,0.0,0.0,0.0,0.0,1.7922,1.7983,1.8151,1.836,1.8825,0.0,0.0,0.0,1.9398,1.9126,1.6904,1.6131,0.0,1.3027,0.9999,0.0,0.0,0.0,0.2779,0.2333,0.2239,0.1921,0.0536,0.0358,0.0269,-0.0539,-0.0674,-0.0674,-0.0674,-0.0494,-0.0637,-0.1371,-0.1996,-0.2441,-0.2678,-0.3079,-0.3441,-0.3564,-0.3577,-0.3577,0.0,-0.3956,-0.4174,-0.4233,-0.4622,-0.4897,-0.4897,-0.4794,-0.4904,-0.5277,-0.5175,-0.5348,-0.5795,-0.5795,-0.5795,-0.5795,-0.5677,-0.5567,-0.5567,-0.5407,-0.5297,-0.5297,-0.5297,-0.5297,-0.5297,-0.5297,-0.5297,-0.5297,-0.5297,-0.5128,-0.4897,-0.4897,-0.4794,-0.4688,0.0,0.0,0.0,0.0,0.0,0.0,0.0,0.0,0.0,0.0,0.0,0.0,0.0,0.0,0.0,0.0,0.0,0.0,0.0,0.0,0.0,0.0,0.0,0.0,0.0,0.0,0.0,0.0,0.0,0.0,0.0,0.0,0.0,0.0,0.0,0.0,0.0,0.0,0.0,0.0,0.0,0.0,1.7704,1.7743,1.7878,1.8134,0.0,0.0,0.0,0.0,0.0,0.0,1.8667,0.0,0.0,1.2555,0.0,0.0,0.0,0.0,0.2951,0.2281,0.1925,0.1477,0.0716,0.0492,0.0269,-0.0359,-0.0224,-0.0136,-0.0653,-0.0823,-0.1191,-0.2155,-0.2518,-0.2863,-0.3224,-0.3417,-0.3536,-0.358,-0.3585,0.0,0.0,0.0,0.0,-0.3799,-0.3968,-0.4132,-0.4398,-0.468,-0.5011,-0.5504,-0.5732,-0.59,-0.6069,-0.5955,-0.595,-0.595,-0.5732,-0.5622,-0.5567,-0.5407,-0.5297,-0.5297,-0.5297,-0.5297,-0.5297,-0.5297,-0.5297,-0.5297,-0.5297,-0.5183,-0.5014,-0.4956,-0.4794,-0.4688,0.0,0.0,0.0,0.0,0.0,0.0,0.0,0.0,0.0,0.0,0.0,0.0,0.0,0.0,0.0,0.0,0.0,0.0,0.0,0.0,0.0,0.0,0.0,0.0,0.0,0.0,0.0,0.0,0.0,0.0,0.0,0.0,0.0,0.0,0.0,0.0,0.0,0.0,0.0,0.0,0.0,0.0,1.7384,1.7432,1.7612,0.0,0.0,0.0,0.0,0.0,0.0,0.0,0.0,0.0,0.0,0.0,0.0,0.0,0.0,0.4328,0.2768,0.2233,0.1744,0.1299,0.0805,0.0582,0.0358,-0.0135,0.0,0.009,-0.0419,-0.0686,-0.1059,-0.1742,-0.2365,-0.2815,-0.3067,-0.3421,-0.3635,-0.3585,-0.3585,0.0,0.0,0.0,0.0,-0.3585,-0.3585,-0.3691,-0.3962,-0.4294,-0.4736,-0.5344,-0.5618,-0.5896,-0.6178,-0.6119,-0.6059,-0.6,-0.5786,-0.5622,-0.5567,-0.5407,-0.5297,-0.5301,-0.5513,-0.5618,-0.5618,-0.5618,-0.5618,-0.5622,-0.5407,-0.5183,-0.5014,-0.4956,-0.4791,-0.4632,0.0,0.0,0.0,0.0,0.0,0.0,0.0,0.0,0.0,0.0,0.0,0.0,0.0,0.0,0.0,0.0,0.0,0.0,0.0,0.0,0.0,0.0,0.0,0.0,0.0,0.0,0.0,0.0,0.0,0.0,0.0,0.0,0.0,0.0,0.0,0.0,0.0,0.0,0.0,0.0,0.0,0.0,1.7018,1.7117,0.0,0.0,0.0,0.0,0.0,0.0,0.0,0.0,0.0,0.0,0.0,0.0,0.0,1.0273,0.4669,0.2752,0.2324,0.2188,0.1789,0.1299,0.085,0.0716,0.0582,0.0135,0.0045,0.0045,0.0,0.0,-0.0416,-0.0499,-0.1613,-0.2378,-0.2329,-0.3186,-0.3744,0.0,0.0,0.0,0.0,0.0,0.0,-0.3585,0.0,-0.3585,-0.3585,-0.3638,-0.4024,-0.4901,-0.4901,-0.534,-0.6178,-0.6178,-0.6119,-0.6,-0.5845,-0.5736,-0.5567,-0.5407,-0.5297,-0.5352,-0.5941,-0.6209,-0.6154,-0.6209,-0.6209,-0.61,-0.5513,-0.5128,-0.4897,-0.4897,-0.4736,-0.4519,0.0,0.0,0.0,0.0,0.0,0.0,0.0,0.0,0.0,0.0,0.0,0.0,0.0,0.0,0.0,0.0,0.0,0.0,0.0,0.0,0.0,0.0,0.0,0.0,0.0,0.0,0.0,0.0,0.0,0.0,0.0,0.0,0.0,0.0,0.0,0.0,0.0,0.0,0.0,0.0,0.0,0.0,1.6901,0.0,0.0,0.0,0.0,0.0,0.0,0.0,0.0,0.0,0.0,0.0,1.9202,0.0,0.0,1.0734,0.7208,0.4699,0.304,0.2765,0.2322,0.1789,0.1343,0.1119,0.0851,0.0404,0.0583,0.0633,0.0,0.0,0.0,-0.1699,-0.2456,0.0,-0.3487,-0.3685,0.0,0.0,0.0,-0.3585,-0.3585,-0.3585,0.0,0.0,-0.3585,-0.3585,-0.3585,-0.391,-0.4291,-0.4897,-0.523,-0.5677,-0.6178,-0.6178,-0.6119,-0.6,-0.5845,-0.5736,-0.5567,-0.5407,-0.5297,-0.5352,-0.5941,-0.5941,-0.5567,-0.5996,-0.5941,-0.5513,-0.5352,-0.5128,-0.4897,-0.4897,-0.4736,-0.4519,0.0,0.0,0.0,0.0,0.0,0.0,0.0,0.0,0.0,0.0,0.0,0.0,0.0,0.0,0.0,0.0,0.0,0.0,0.0,0.0,0.0,0.0,0.0,0.0,0.0,0.0,0.0,0.0,0.0,0.0,0.0,0.0,0.0,0.0,0.0,0.0,0.0,0.0,0.0,0.0,0.0,0.0,0.0,0.0,0.0,0.0,0.0,0.0,0.0,0.0,0.0,1.9518,1.9541,1.9681,1.9266,1.6423,0.0,1.0816,0.8087,0.5196,0.2904,0.2812,0.241,0.1921,0.1521,0.1299,0.112,0.0629,0.0763,0.0,0.0,0.0,0.0,0.0,0.0,0.0,-0.3655,-0.3858,-0.391,0.0,-0.3691,0.0,-0.3585,-0.3585,-0.3585,0.0,-0.3585,-0.3585,-0.3585,-0.3802,-0.4128,-0.4567,-0.4842,-0.5285,-0.5955,-0.6119,-0.6119,-0.6,-0.5845,-0.5736,-0.5567,-0.5407,-0.5297,-0.5352,0.0,-0.5996,-0.5622,-0.6,-0.5887,-0.5508,-0.5567,-0.5293,-0.4846,-0.5171,-0.4952,-0.4519,0.0,0.0,0.0,0.0,0.0,0.0,0.0,0.0,0.0,0.0,0.0,0.0,0.0,0.0,0.0,0.0,0.0,0.0,0.0,0.0,0.0,0.0,0.0,0.0,0.0,0.0,0.0,0.0,0.0,0.0,0.0,0.0,0.0,0.0,0.0,0.0,0.0,0.0,0.0,0.0,0.0,0.0,0.0,0.0,0.0,0.0,0.0,0.0,0.0,0.0,1.8947,1.9409,1.9541,1.9623,1.9136,1.6405,1.3569,1.0715,0.8038,0.4883,0.2457,0.2684,0.2413,0.2012,0.1655,0.1523,0.1389,0.0988,0.0,0.0,0.0809,0.0,-0.0184,-0.0993,0.0,-0.2782,-0.3434,-0.3916,-0.4079,-0.3852,-0.3796,-0.3744,-0.3638,-0.3585,-0.3585,-0.3585,-0.3585,-0.3585,-0.3585,-0.3585,-0.3802,-0.4177,-0.4233,-0.4732,-0.5567,-0.5896,-0.6059,-0.595,-0.5845,-0.5681,-0.5567,-0.5407,-0.5297,-0.5352,0.0,0.0,-0.5896,-0.5946,-0.5887,-0.5664,-0.5837,-0.5399,-0.4798,-0.5395,-0.5175,-0.4519,0.0,0.0,0.0,0.0,0.0,0.0,0.0,0.0,0.0,0.0,0.0,0.0,0.0,0.0,0.0,0.0,0.0,0.0,0.0,0.0,0.0,0.0,0.0,0.0,0.0,0.0,0.0,0.0,0.0,0.0,0.0,0.0,0.0,0.0,0.0,0.0,0.0,0.0,0.0,0.0,0.0,0.0,0.0,0.0,0.0,0.0,0.0,0.0,0.0,0.0,1.8912,1.9335,1.9409,1.9527,1.9088,1.6399,1.3548,1.0715,0.8038,0.5154,0.2901,0.3081,0.2862,0.2551,0.2506,0.2237,0.0,0.0,0.0,0.13,0.13,0.0763,0.0,-0.1535,0.0,0.0,0.0,0.0,0.0,0.0,0.0,0.0,0.0,0.0,0.0,0.0,0.0,0.0,-0.3585,-0.3585,-0.3802,-0.4177,-0.4567,-0.5066,-0.5622,-0.5504,-0.5563,-0.5845,-0.5677,-0.5513,-0.5352,-0.5297,-0.5297,-0.5352,0.0,0.0,-0.5289,-0.5782,-0.5618,-0.5062,-0.5066,-0.4959,-0.4691,-0.4853,-0.4739,-0.4519,0.0,0.0,0.0,0.0,0.0,0.0,0.0,0.0,0.0,0.0,0.0,0.0,0.0,0.0,0.0,0.0,0.0,0.0,0.0,0.0,0.0,0.0,0.0,0.0,0.0,0.0,0.0,0.0,0.0,0.0,0.0,0.0,0.0,0.0,0.0,0.0,0.0,0.0,0.0,0.0,0.0,0.0,0.0,0.0,0.0,0.0,0.0,0.0,0.0,0.0,1.8877,1.9227,1.9365,1.9438,1.9044,1.6703,1.3825,1.0849,0.8377,0.5461,0.3126,0.3262,0.3173,0.304,0.286,0.0,0.0,0.0,0.0,0.1744,0.1744,0.0,0.0,0.0,0.0,0.0,0.0,0.0,0.0,0.0,0.0,0.0,0.0,0.0,0.0,0.0,0.0,0.0,-0.3585,-0.3585,-0.3694,-0.3855,-0.4294,-0.4622,-0.4842,-0.4897,-0.4901,-0.4956,-0.4736,-0.457,-0.4405,-0.4739,-0.4908,-0.4908,-0.5395,0.0,-0.5014,-0.5234,-0.5069,-0.4736,-0.5058,-0.4952,-0.4629,-0.5007,-0.4842,-0.4519,0.0,0.0,0.0,0.0,0.0,0.0,0.0,0.0,0.0,0.0,0.0,0.0,0.0,0.0,0.0,0.0,0.0,0.0,0.0,0.0,0.0,0.0,0.0,0.0,0.0,0.0,0.0,0.0,0.0,0.0,0.0,0.0,0.0,0.0,0.0,0.0,0.0,0.0,0.0,0.0,0.0,0.0,0.0,0.0,0.0,0.0,0.0,0.0,0.0,0.0,1.8895,1.9164,1.9335,1.9394,1.8989,1.6967,1.4063,1.1002,0.8716,0.5689,0.3214,0.335,0.3398,0.335,0.3078,0.3034,0.0,0.0,0.0,0.2277,0.2277,0.0,0.0,0.0,0.0,0.0,0.0,0.0,0.0,0.0,0.0,0.0,0.0,0.0,0.0,0.0,0.0,0.0,-0.3585,-0.3585,-0.3585,-0.3585,-0.391,-0.407,-0.4122,-0.4236,-0.4236,-0.4122,-0.3849,-0.3683,-0.3627,-0.4073,-0.4294,-0.4294,-0.4736,0.0,0.0,-0.4684,-0.4632,-0.457,-0.5058,-0.4948,-0.457,-0.5109,-0.4948,-0.4519,0.0,0.0,0.0,0.0,0.0,0.0,0.0,0.0,0.0,0.0,0.0,0.0,0.0,0.0,0.0,0.0,0.0,0.0,0.0,0.0,0.0,0.0,0.0,0.0,0.0,0.0,0.0,0.0,0.0,0.0,0.0,0.0,0.0,0.0,0.0,0.0,0.0,0.0,0.0,0.0,0.0,0.0,0.0,0.0,0.0,0.0,0.0,0.0,0.0,0.0,0.0,1.9282,1.9308,1.935,1.8995,1.6912,0.0,0.0,0.8716,0.5689,0.3214,0.3214,0.3306,0.3398,0.3353,0.0,0.0,0.0,0.3126,0.281,0.281,0.2235,0.0,0.0,0.0,0.0,0.0,0.0,0.0,0.0,0.0,0.0,0.0,0.0,0.0,0.0,0.0,0.0,0.0,-0.3585,-0.3585,-0.3585,-0.3638,-0.3691,-0.3852,-0.3738,-0.3738,-0.3852,-0.3683,-0.3627,-0.3624,-0.368,-0.3569,-0.3456,0.0,0.0,0.0,-0.4467,-0.4632,-0.4519,-0.457,-0.457,-0.4519,-0.457,-0.457,-0.4519,0.0,0.0,0.0,0.0,0.0,0.0,0.0,0.0,0.0,0.0,0.0,0.0,0.0,0.0,0.0,0.0,0.0,0.0,0.0,0.0,0.0,0.0,0.0,0.0,0.0,0.0,0.0,0.0,0.0,0.0,0.0,0.0,0.0,0.0,0.0,0.0,0.0,0.0,0.0,0.0,0.0,0.0,0.0,0.0,0.0,0.0,0.0,0.0,0.0,0.0,0.0,0.0,1.8998,1.9148,0.0,0.0,1.3932,1.0917,0.8797,0.5812,0.335,0.3442,0.349,0.3534,0.3534,0.0,0.0,0.0,0.3568,0.3524,0.3524,0.286,0.2221,0.0,0.0,0.0,0.0,0.0,0.0,0.0,0.0,0.0,0.0,0.0,0.0,0.0,0.0,0.0,0.0,-0.3585,-0.3585,-0.3585,-0.3413,-0.3299,-0.3352,-0.2961,-0.2794,-0.2852,-0.2631,-0.2519,-0.2519,-0.2905,-0.3183,-0.3408,0.0,0.0,0.0,-0.4519,-0.4574,-0.4519,-0.4519,-0.4519,-0.4519,-0.4519,-0.4519,-0.4463,0.0,0.0,0.0,0.0,0.0,0.0,0.0,0.0,0.0,0.0,0.0,0.0,0.0,0.0,0.0,0.0,0.0,0.0,0.0,0.0,0.0,0.0,0.0,0.0,0.0,0.0,0.0,0.0,0.0,0.0,0.0,0.0,0.0,0.0,0.0,0.0,0.0,0.0,0.0,0.0,0.0,0.0,0.0,0.0,0.0,0.0,0.0,0.0,0.0,0.0,0.0,0.0,0.0,0.0,0.0,0.0,1.3854,1.0842,0.8813,0.5855,0.3442,0.3534,0.3578,0.3581,0.0,0.0,0.0,0.3697,0.3788,0.388,0.388,0.3303,0.2797,0.0,0.0,0.0,0.0,0.0,0.0,0.0,0.0,0.0,0.0,0.0,0.0,0.0,0.0,0.0,0.0,-0.319,-0.3246,-0.3583,-0.3299,-0.3074,-0.2965,-0.2464,-0.2184,-0.2074,-0.1908,-0.1797,-0.1741,-0.2183,-0.2573,-0.3021,0.0,0.0,0.0,-0.4463,-0.4519,-0.4519,-0.4408,-0.4463,-0.4519,-0.4408,-0.4408,-0.4411,0.0,0.0,0.0,0.0,0.0,0.0,0.0,0.0,0.0,0.0,0.0,0.0,0.0,0.0,0.0,0.0,0.0,0.0,0.0,0.0,0.0,0.0,0.0,0.0,0.0,0.0,0.0,0.0,0.0,0.0,0.0,0.0,0.0,0.0,0.0,0.0,0.0,0.0,0.0,0.0,0.0,0.0,0.0,0.0,0.0,0.0,0.0,0.0,0.0,0.0,0.0,0.0,0.0,0.0,0.0,0.0,1.3812,1.0826,0.8687,0.5812,0.3398,0.3398,0.349,0.3581,0.0,0.0,0.0,0.3697,0.3788,0.388,0.388,0.3391,0.299,0.299,0.0,0.0,0.0,0.0,0.0,0.0,0.0,0.0,0.0,0.0,0.0,0.0,0.0,0.0,0.0,-0.2296,-0.2517,-0.3583,-0.3299,-0.2965,-0.2691,-0.2352,-0.2074,-0.1797,-0.1797,-0.1741,-0.1628,-0.1628,-0.1738,0.0,0.0,0.0,0.0,-0.4239,-0.4519,-0.4463,-0.4301,-0.4301,-0.4463,-0.4301,-0.4193,-0.4193,0.0,0.0,0.0,0.0,0.0,0.0,0.0,0.0,0.0,0.0,0.0,0.0,0.0,0.0,0.0,0.0,0.0,0.0,0.0,0.0,0.0,0.0,0.0,0.0,0.0,0.0,0.0,0.0,0.0,0.0,0.0,0.0,0.0,0.0,0.0,0.0,0.0,0.0,0.0,0.0,0.0,0.0,0.0,0.0,0.0,0.0,0.0,0.0,0.0,0.0,0.0,0.0,0.0,0.0,0.0,0.0,0.0,0.0,1.3421,1.0029,0.6559,0.6318,0.5168,0.4016,0.3667,0.0,0.0,0.3836,0.3928,0.406,0.4144,0.3788,0.3388,0.3167,0.2773,0.0,0.0,0.0,0.0,0.0,0.0,0.0,0.0,0.0,0.0,0.0,0.0,0.0,0.0,0.0,-0.1958,-0.297,-0.2687,-0.2464,-0.2352,-0.2076,-0.1908,-0.1797,-0.1797,-0.1741,-0.1572,-0.1572,0.0,0.0,0.0,0.0,0.0,-0.3181,-0.3292,-0.3292,-0.3577,-0.3691,-0.3799,-0.3968,-0.4079,-0.4039,0.0,0.0,0.0,0.0,0.0,0.0,0.0,0.0,0.0,0.0,0.0,0.0,0.0,0.0,0.0,0.0,0.0,0.0,0.0,0.0,0.0,0.0,0.0,0.0,0.0,0.0,0.0,0.0,0.0,0.0,0.0,0.0,0.0,0.0,0.0,0.0,0.0,0.0,0.0,0.0,0.0,0.0,0.0,0.0,0.0,0.0,0.0,0.0,0.0,0.0,0.0,0.0,0.0,0.0,0.0,0.0,0.0,0.0,0.0,1.0037,0.6792,0.6582,0.5528,0.0,0.0,0.0,0.0,0.0,0.0,0.4192,0.4276,0.4049,0.3741,0.3347,0.3248,0.0,0.0,0.0,0.0,0.0,0.0,0.0,0.0,0.0,0.0,0.0,0.0,0.0,0.0,0.0,-0.1175,-0.2074,-0.2015,-0.2015,-0.2127,-0.1852,-0.1685,-0.1628,-0.1628,-0.1515,-0.1403,-0.1403,0.0,0.0,0.0,0.0,0.0,-0.2681,-0.2792,-0.2961,-0.319,-0.3416,-0.3641,-0.3808,-0.3922,-0.3999,0.0,0.0,0.0,0.0,0.0,0.0,0.0,0.0,0.0,0.0,0.0,0.0,0.0,0.0,0.0,0.0,0.0,0.0,0.0,0.0,0.0,0.0,0.0,0.0,0.0,0.0,0.0,0.0,0.0,0.0,0.0,0.0,0.0,0.0,0.0,0.0,0.0,0.0,0.0,0.0,0.0,0.0,0.0,0.0,0.0,0.0,0.0,0.0,0.0,0.0,0.0,0.0,0.0,0.0,0.0,0.0,0.0,0.0,0.0,0.0,0.0,0.0,0.0,0.0,0.0,0.0,0.0,0.0,0.0,0.0,0.0,0.4224,0.4005,0.3527,0.0,0.0,0.0,0.0,0.0,0.0,0.0,0.0,0.0,0.0,0.0,0.0,0.0,0.0,0.0,0.0,-0.0168,-0.101,-0.1344,-0.1679,-0.1959,-0.1738,-0.1515,-0.1291,-0.1291,-0.1234,-0.1122,-0.1122,0.0,0.0,0.0,0.0,0.0,-0.2569,-0.2794,-0.3132,-0.2972,-0.3254,-0.3699,-0.3538,-0.3655,-0.3845,0.0,0.0,0.0,0.0,0.0,0.0,0.0,0.0,0.0,0.0,0.0,0.0,0.0,0.0,0.0,0.0,0.0,0.0,0.0,0.0,0.0,0.0,0.0,0.0,0.0,0.0,0.0,0.0,0.0,0.0,0.0,0.0,0.0,0.0,0.0,0.0,0.0,0.0,0.0,0.0,0.0,0.0,0.0,0.0,0.0,0.0,0.0,0.0,0.0,0.0,0.0,0.0,0.0,0.0,0.0,0.0,0.0,0.0,0.0,0.0,0.0,0.0,0.0,0.0,0.0,0.0,0.0,0.0,0.0,0.0,0.0,0.0,0.0,0.0,0.0,0.0,0.0,0.0,0.0,0.0,0.0,0.0,0.0,0.0,0.0,0.0,0.0,0.0,0.0,0.0,0.0393,-0.0393,-0.0504,-0.0897,-0.1684,-0.1628,-0.1515,-0.1291,-0.1291,-0.1234,-0.1122,-0.1122,0.0,0.0,0.0,0.0,-0.1344,-0.1344,-0.14,-0.1513,-0.1908,-0.1738,-0.1344,-0.1959,-0.224,-0.2315,0.0,0.0,0.0,0.0,0.0,0.0,0.0,0.0,0.0,0.0,0.0,0.0,0.0,0.0,0.0,0.0,0.0,0.0,0.0,0.0,0.0,0.0,0.0,0.0,0.0,0.0,0.0,0.0,0.0,0.0,0.0,0.0,0.0,0.0,0.0,0.0,0.0,0.0,0.0,0.0,0.0,0.0,0.0,0.0,0.0,0.0,1.8872,0.0,0.0,1.9086,1.9182,1.932,0.0,0.0,0.0,0.0,0.0,0.0,0.0,0.0,0.0,0.0,0.0,0.0,0.0,0.0,0.0,0.0,0.0,0.0,0.0,0.0,0.0,0.0,0.0,0.0,0.0,0.0,0.0,0.0,0.0,0.0,0.0,0.0,0.0,0.0,0.0,0.0,0.0,0.0,0.1008,0.0392,0.0392,-0.0168,-0.1347,-0.1347,-0.129,-0.1122,-0.1122,-0.1066,-0.101,-0.101,0.0,0.0,0.0,0.0,-0.0898,-0.0898,-0.0898,-0.0898,-0.1066,-0.0785,-0.028,-0.0784,-0.0952,-0.096,0.0,0.0,0.0,0.0,0.0,0.0,0.0,0.0,0.0,0.0,0.0,0.0,0.0,0.0,0.0,0.0,0.0,0.0,0.0,0.0,0.0,0.0,0.0,0.0,0.0,0.0,0.0,0.0,0.0,0.0,0.0,0.0,0.0,0.0,0.0,0.0,0.0,0.0,0.0,0.0,0.0,0.0,0.0,0.0,0.0,0.0,0.0,0.0,0.0,1.9248,1.9198,1.9164,1.9289,0.0,0.0,0.0,0.0,0.0,0.0,0.0,0.0,0.0,0.0,0.0,0.0,0.0,0.0,0.0,0.0,0.0,0.0,0.0,0.0,0.0,0.0,0.0,0.0,0.0,0.0,0.0,0.0,0.0,0.0,0.0,0.0,0.0,0.0,0.0,0.0,0.0,0.0,0.1118,0.1118,0.0503,-0.0784,-0.084,-0.0784,-0.0616,-0.0616,-0.0616,-0.0617,-0.0673,0.0,0.0,0.0,0.0,-0.0842,-0.0898,-0.0898,-0.0898,-0.0561,-0.028,0.0,0.0,0.0,0.0057,0.0,0.0,0.0,0.0,0.0,0.0,0.0,0.0,0.0,0.0,0.0,0.0,0.0,0.0,0.0,0.0,0.0,0.0,0.0,0.0,0.0,0.0,0.0,0.0,0.0,0.0,0.0,0.0,0.0,0.0,0.0,0.0,0.0,0.0,0.0,0.0,0.0,0.0,0.0,0.0,0.0,0.0,0.0,0.0,0.0,0.0,0.0,0.0,0.0,1.9471,1.9416,1.9372,1.9434,0.0,0.0,0.0,0.0,0.0,0.0,0.0,0.0,0.0,0.0,0.0,0.0,0.0,0.0,0.0,0.0,0.0,0.0,0.0,0.0,0.0,0.0,0.0,0.0,0.0,0.0,0.0,0.0,0.0,0.0,0.0,0.0,0.0,0.0,0.0,0.0,0.0,0.0,0.1285,0.1285,0.1062,0.0615,0.0503,0.0503,0.0615,0.0615,0.0615,0.0615,0.028,0.0112,0.0,0.0,-0.0505,-0.0505,-0.0785,-0.0898,-0.0898,-0.0842,-0.0505,0.0,0.0,0.0,0.0113,0.0,0.0,0.0,0.0,0.0,0.0,0.0,0.0,0.0,0.0,0.0,0.0,0.0,0.0,0.0,0.0,0.0,0.0,0.0,0.0,0.0,0.0,0.0,0.0,0.0,0.0,0.0,0.0,0.0,0.0,0.0,0.0,0.0,0.0,0.0,0.0,0.0,0.0,0.0,0.0,0.0,0.0,0.0,0.0,0.0,0.0,0.0,0.0,0.0,0.0,1.9456,1.9375,1.9504,0.0,0.0,0.0,0.0,0.0,1.375,1.1753,0.0,0.0,0.0,0.0,0.0,0.0,0.0,0.0,0.0,0.0,0.0,0.0,0.0,0.0,0.0,0.0,0.0,0.0,0.0,0.0,0.0,0.0,0.0,0.0,0.0,0.0,0.0,0.0,0.0,0.0,0.0,0.0,0.2071,0.2015,0.1846,0.179,0.151,0.0894,0.0894,0.095,0.1006,0.0839,0.0672,0.0616,0.0,0.0392,0.0505,0.0336,-0.0168,-0.0898,-0.0898,-0.0505,0.0,0.0,0.023,0.0594,0.0,0.0,0.0,0.0,0.0,0.0,0.0,0.0,0.0,0.0,0.0,0.0,0.0,0.0,0.0,0.0,0.0,0.0,0.0,0.0,0.0,0.0,0.0,0.0,0.0,0.0,0.0,0.0,0.0,0.0,0.0,0.0,0.0,0.0,0.0,0.0,0.0,0.0,0.0,0.0,0.0,0.0,0.0,0.0,0.0,0.0,0.0,0.0,0.0,0.0,0.0,0.0,0.0,0.0,0.0,0.0,1.6811,1.5357,1.3084,1.1451,0.0,0.0,0.0,0.0,0.0,0.0,0.0,0.0,0.0,0.0,0.0,0.0,0.0,0.0,0.0,0.0,0.0,0.0,0.0,0.0,0.0,0.0,0.0,0.0,0.0,0.0,0.0,0.0,0.0,0.0,0.0,0.0,0.28,0.28,0.28,0.28,0.2294,0.1341,0.1341,0.1398,0.151,0.1566,0.1566,0.1454,0.1511,0.1625,0.1797,0.1234,0.0393,-0.0505,-0.0505,-0.028,0.0,0.0168,0.0585,0.105,0.0,0.0,0.0,0.0,0.0,0.0,0.0,0.0,0.0,0.0,0.0,0.0,0.0,0.0,0.0,0.0,0.0,0.0,0.0,0.0,0.0,0.0,0.0,0.0,0.0,0.0,0.0,0.0,0.0,0.0,0.0,0.0,0.0,0.0,0.0,0.0,0.0,0.0,0.0,0.0,0.0,0.0,0.0,0.0,0.0,0.0,0.0,0.0,0.0,0.0,0.0,0.0,0.0,0.0,0.0,0.0,1.2305,1.3136,1.093,1.0374,0.0,0.0,0.0,0.0,0.0,0.0,0.0,0.0,0.0,0.0,0.0,0.0,0.0,0.0,0.0,0.0,0.0,0.0,0.0,0.0,0.0,0.0,0.0,0.0,0.0,0.0,0.0,0.0,0.0,0.0,0.0,0.0,0.0,0.3077,0.3077,0.3077,0.291,0.2577,0.2577,0.2635,0.2802,0.303,0.3144,0.3144,0.3322,0.3439,0.3268,0.101,0.0336,0.0785,0.0785,0.0449,0.0056,0.0617,0.0936,0.1112,0.0,0.0,0.0,0.0,0.0,0.0,0.0,0.0,0.0,0.0,0.0,0.0,0.0,0.0,0.0,0.0,0.0,0.0,0.0,0.0,0.0,0.0,0.0,0.0,0.0,0.0,0.0,0.0,0.0,0.0,0.0,0.0,0.0,0.0,0.0,0.0,0.0,0.0,0.0,0.0,0.0,0.0,0.0,0.0,0.0,0.0,0.0,0.0,0.0,0.0,0.0,0.0,0.0,0.0,0.0,0.0,1.3616,1.3093,1.0899,1.0428,1.0267,0.0,0.0,0.0,0.0,0.0,0.0,0.0,0.0,0.0,0.0,0.0,0.0,0.0,0.0,0.0,0.0,0.0,0.0,0.0,0.0,0.0,0.0,0.0,0.0,0.0,0.0,0.0,0.0,0.0,0.0,0.0,0.0,0.3023,0.3074,0.3074,0.3074,0.2965,0.2965,0.2965,0.3023,0.3249,0.3474,0.3638,0.3591,0.32,0.2469,0.2303,0.1685,0.0898,0.0898,0.0617,0.028,0.0505,0.076,0.105,0.0,0.0,0.0,0.0,0.0,0.0,0.0,0.0,0.0,0.0,0.0,0.0,0.0,0.0,0.0,0.0,0.0,0.0,0.0,0.0,0.0,0.0,0.0,0.0,0.0,0.0,0.0,0.0,0.0,0.0,0.0,0.0,0.0,0.0,0.0,0.0,0.0,0.0,0.0,0.0,0.0,0.0,0.0,0.0,0.0,0.0,0.0,0.0,0.0,0.0,0.0,0.0,0.0,0.0,0.0,0.0,0.0,1.3312,1.1672,1.1319,1.0945,0.0,0.0,0.0,0.0,0.0,0.0,0.0,0.0,0.0,0.0,0.0,0.0,0.0,0.0,0.0,0.0,0.0,0.0,0.0,0.0,0.0,0.0,0.0,0.0,0.0,0.0,0.0,0.0,0.0,0.0,0.0,0.0,0.0,0.3519,0.3519,0.3519,0.3461,0.3299,0.3244,0.3188,0.3357,0.3522,0.3796,0.3805,0.3135,0.2125,0.2863,0.2413,0.1233,0.1009,0.0785,0.0561,0.0561,0.076,0.0988,0.0,0.0,0.0,0.0,0.0,0.0,0.0,0.0,0.0,0.0,0.0,0.0,0.0,0.0,0.0,0.0,0.0,0.0,0.0,0.0,0.0,0.0,0.0,0.0,0.0,0.0,0.0,0.0,0.0,0.0,0.0,0.0,0.0,0.0,0.0,0.0,0.0,0.0,0.0,0.0,0.0,0.0,0.0,0.0,0.0,0.0,0.0,0.0,0.0,0.0,0.0,0.0,0.0,0.0,0.0,0.0,1.2381,1.3485,1.3084,1.2932,0.0,0.0,0.0,0.0,0.0,0.0,0.0,0.0,0.0,0.0,0.0,0.0,0.0,0.0,0.0,0.0,0.0,0.0,0.0,0.0,0.0,0.0,0.0,0.0,0.0,0.0,0.0,0.0,0.0,0.0,0.0,0.0,0.0,0.0,0.4519,0.4519,0.4405,0.4177,0.3802,0.3527,0.3413,0.3413,0.3522,0.3796,0.4092,0.3641,0.2681,0.2343,0.2178,0.2015,0.1233,0.0898,0.0898,0.0898,0.0936,0.1049,0.0,0.0,0.0,0.0,0.0,0.0,0.0,0.0,0.0,0.0,0.0,0.0,0.0,0.0,0.0,0.0,0.0,0.0,0.0,0.0,0.0,0.0,0.0,0.0,0.0,0.0,0.0,0.0,0.0,0.0,0.0,0.0,0.0,0.0,0.0,0.0,0.0,0.0,0.0,0.0,0.0,0.0,0.0,0.0,0.0,0.0,0.0,0.0,0.0,0.0,0.0,0.0,0.0,0.0,0.0,0.0,1.2531,1.1976,1.1832,0.0,0.0,0.0,0.0,0.0,0.0,0.0,0.0,0.0,0.0,0.0,0.0,0.0,0.0,0.0,0.0,0.0,0.0,0.0,0.0,0.0,0.0,0.0,0.0,0.0,0.0,0.0,0.0,0.0,0.0,0.0,0.0,0.0,0.0,0.0,0.5062,0.468,0.4519,0.4519,0.4021,0.3633,0.3413,0.3577,0.3799,0.3965,0.4147,0.4092,0.3913,0.3241,0.3019,0.3079,0.2517,0.2293,0.2293,0.2068,0.1982,0.1969,0.0,0.0,0.0,0.0,0.0,0.0,0.0,0.0,0.0,0.0,0.0,0.0,0.0,0.0,0.0,0.0,0.0,0.0,0.0,0.0,0.0,0.0,0.0,0.0,0.0,0.0,0.0,0.0,0.0,0.0,0.0,0.0,0.0,0.0,0.0,0.0,0.0,0.0,0.0,0.0,0.0,0.0,0.0,0.0,0.0,0.0,0.0,0.0,0.0,0.0,0.0,0.0,0.0,0.0,0.0,0.0,1.3604,1.2604,0.0,0.0,0.0,0.0,0.0,0.0,0.0,0.0,0.0,0.0,0.0,0.0,0.0,0.0,0.0,0.0,0.0,0.0,0.0,0.0,0.0,0.0,0.0,0.0,0.0,0.0,0.0,0.0,0.0,0.0,0.0,0.0,0.0,0.0,0.0,0.0,0.5277,0.5066,0.4853,0.4688,0.4132,0.3799,0.3635,0.3799,0.3965,0.4079,0.4311,0.4477,0.4529,0.3852,0.363,0.3685,0.3181,0.2956,0.2956,0.2788,0.2619,0.2519,0.0,0.0,0.0,0.0,0.0,0.0,0.0,0.0,0.0,0.0,0.0,0.0,0.0,0.0,0.0,0.0,0.0,0.0,0.0,0.0,0.0,0.0,0.0,0.0,0.0,0.0,0.0,0.0,0.0,0.0,0.0,0.0,0.0,0.0,0.0,0.0,0.0,0.0,0.0,0.0,0.0,0.0,0.0,0.0,0.0,0.0,0.0,0.0,0.0,0.0,0.0,0.0,0.0,0.0,0.0,1.5821,1.5271,0.0,0.0,0.0,0.0,0.0,0.0,0.0,0.0,0.0,0.0,0.0,0.0,0.0,0.0,0.0,0.0,0.0,0.0,0.0,0.0,0.0,0.0,0.0,0.0,0.0,0.0,0.0,0.0,0.0,0.0,0.0,0.0,0.0,0.0,0.0,0.0,0.0,0.5496,0.5614,0.5399,0.0,0.4408,0.4187,0.4132,0.4076,0.4079,0.4249,0.4581,0.4691,0.4688,0.4233,0.4064,0.4064,0.3508,0.3284,0.3284,0.3231,0.308,0.2948,0.0,0.0,0.0,0.0,0.0,0.0,0.0,0.0,0.0,0.0,0.0,0.0,0.0,0.0,0.0,0.0,0.0,0.0,0.0,0.0,0.0,0.0,0.0,0.0,0.0,0.0,0.0,0.0,0.0,0.0,0.0,0.0,0.0,0.0,0.0,0.0,0.0,0.0,0.0,0.0,0.0,0.0,0.0,0.0,0.0,0.0,0.0,0.0,0.0,0.0,0.0,0.0,1.846,1.7757,1.6979,1.6674,1.6114,0.0,0.0,0.0,0.0,0.0,0.0,0.0,0.0,0.0,0.0,0.0,0.0,0.0,0.0,0.0,0.0,0.0,0.0,0.0,0.0,0.0,0.0,0.0,0.0,0.0,0.0,0.0,0.0,0.0,0.0,0.0,0.0,0.0,0.0,0.0,0.0,0.7036,0.6701,0.6367,0.6204,0.0,0.5769,0.5441,0.5234,0.4467,0.4304,0.4581,0.4691,0.4743,0.4846,0.4732,0.4787,0.4846,0.4736,0.4677,0.4622,0.446,0.4359,0.4415,0.0,0.0,0.0,0.0,0.0,0.0,0.0,0.0,0.0,0.0,0.0,0.0,0.0,0.0,0.0,0.0,0.0,0.0,0.0,0.0,0.0,0.0,0.0,0.0,0.0,0.0,0.0,0.0,0.0,0.0,0.0,0.0,0.0,0.0,0.0,0.0,0.0,0.0,0.0,0.0,0.0,0.0,0.0,0.0,0.0,0.0,0.0,0.0,0.0,0.0,0.0,0.0,0.0,0.0,1.7505,1.7019,1.6612,0.0,0.0,0.0,0.0,0.0,0.0,0.0,0.0,0.0,0.0,0.0,0.0,0.0,0.0,0.0,0.0,0.0,0.0,0.0,0.0,0.0,0.0,0.0,0.0,0.0,0.0,0.0,0.0,0.0,0.0,0.0,0.0,0.0,0.0,0.0,0.7365,0.7252,0.7025,0.6745,0.6578,0.6426,0.6253,0.6041,0.5668,0.4904,0.4629,0.4794,0.4853,0.4904,0.5011,0.5069,0.5128,0.5183,0.5183,0.5183,0.5183,0.5242,0.5113,0.5026,0.0,0.0,0.0,0.0,0.0,0.0,0.0,0.0,0.0,0.0,0.0,0.0,0.0,0.0,0.0,0.0,0.0,0.0,0.0,0.0,0.0,0.0,0.0,0.0,0.0,0.0,0.0,0.0,0.0,0.0,0.0,0.0,0.0,0.0,0.0,0.0,0.0,0.0,0.0,0.0,0.0,0.0,0.0,0.0,0.0,0.0,0.0,0.0,0.0,0.0,0.0,0.0,0.0,0.0,1.7832,1.7231,1.7002,1.6809,0.0,0.0,0.0,0.0,0.0,0.0,0.0,0.0,0.0,0.0,0.0,0.0,0.0,0.0,0.0,0.0,0.0,0.0,0.0,0.0,0.0,0.0,0.0,0.0,0.0,0.0,0.0,0.0,0.0,0.0,0.0,0.0,0.7473,0.7419,0.7521,0.7408,0.7015,0.7069,0.6907,0.6534,0.6524,0.6308,0.5987,0.5281,0.4956,0.4956,0.5069,0.5128,0.5128,0.5297,0.5407,0.5407,0.5462,0.5462,0.5513,0.5791,0.5686,0.5514,0.0,0.0,0.0,0.0,0.0,0.0,0.0,0.0,0.0,0.0,0.0,0.0,0.0,0.0,0.0,0.0,0.0,0.0,0.0,0.0,0.0,0.0,0.0,0.0,0.0,0.0,0.0,0.0,0.0,0.0,0.0,0.0,0.0,0.0,0.0,0.0,0.0,0.0,0.0,0.0,0.0,0.0,0.0,0.0,0.0,0.0,0.0,0.0,0.0,0.0,0.0,0.0,0.0,0.0,0.0,0.0,0.0,0.0,0.0,0.0,0.0,0.0,0.0,0.0,0.0,0.0,0.0,0.0,0.0,0.0,0.0,0.0,0.0,0.0,0.0,0.0,0.0,0.0,0.0,0.0,0.0,0.0,0.0,0.0,0.0,0.0,0.0,0.0,0.0,0.8468,0.8262,0.7848,0.7848,0.7788,0.7616,0.7889,0.8002,0.7949,0.7182,0.6799,0.6745,0.5727,0.5183,0.5069,0.5069,0.5183,0.5297,0.5631,0.574,0.5736,0.6,0.61,0.61,0.6154,0.6303,0.6588,0.0,0.0,0.0,0.0,0.0,0.0,0.0,0.0,0.0,0.0,0.0,0.0,0.0,0.0,0.0,0.0,0.0,0.0,0.0,0.0,0.0,0.0,0.0,0.0,0.0,0.0,0.0,0.0,0.0,0.0,0.0,1.6302,1.6947,0.0,0.0,0.0,0.0,0.0,0.0,0.0,0.0,0.0,0.0,0.0,0.0,0.0,0.0,0.0,0.0,0.0,0.0,0.0,0.0,0.0,0.0,0.0,0.0,0.0,0.0,0.0,0.0,0.0,0.0,0.0,0.0,0.0,0.0,0.0,0.0,0.0,0.0,0.0,0.0,0.0,0.0,0.0,0.0,0.0,0.0,0.0,0.0,0.0,0.0,0.0,0.0,0.0,0.0,0.0,0.883,0.8823,0.8573,0.8062,0.8162,0.8209,0.8203,0.8262,0.8374,0.8421,0.7771,0.7492,0.7545,0.675,0.6055,0.5517,0.5517,0.5622,0.5837,0.5946,0.6,0.6055,0.6154,0.6209,0.6209,0.6426,0.6643,0.6828,0.0,0.0,0.0,0.0,0.0,0.0,0.0,0.0,0.0,0.0,0.0,0.0,0.0,0.0,0.0,0.0,0.0,0.0,0.0,0.0,0.0,0.0,0.0,0.0,0.0,0.0,0.0,0.0,0.0,0.0,1.5859,1.6639,1.7485,0.0,1.899,0.0,0.0,0.0,0.0,0.0,0.0,0.0,0.0,0.0,0.0,0.0,0.0,0.0,0.0,0.0,0.0,0.0,0.0,0.0,0.0,0.0,0.0,0.0,0.0,0.0,0.0,0.0,0.0,0.0,0.0,0.0,0.0,0.0,0.0,0.0,0.0,0.0,0.0,0.0,0.0,0.0,0.0,0.0,0.0,0.0,0.0,0.0,0.0,0.0,0.0,0.0,0.0,0.0,0.919,0.9235,0.8981,0.8321,0.8427,0.8533,0.8633,0.8633,0.8633,0.8732,0.8249,0.809,0.8137,0.7605,0.702,0.6436,0.6168,0.6109,0.6209,0.6317,0.6317,0.6317,0.6426,0.6426,0.648,0.6701,0.693,0.7071,0.0,0.0,0.0,0.0,0.0,0.0,0.0,0.0,0.0,0.0,0.0,0.0,0.0,0.0,0.0,0.0,0.0,0.0,0.0,0.0,0.0,0.0,0.0,0.0,0.0,0.0,0.0,0.0,0.0,0.0,1.6755,1.7554,1.8336,1.9061,1.9214,1.9295,1.9305,0.0,0.0,0.0,0.0,0.0,0.0,0.0,0.0,0.0,0.0,0.0,0.0,0.0,0.0,0.0,0.0,0.0,0.0,0.0,0.0,0.0,0.0,0.0,0.0,0.0,0.0,0.0,0.0,0.0,0.0,0.0,0.0,0.0,0.0,0.0,0.0,0.0,0.0,0.0,0.0,0.0,0.0,0.0,0.0,0.0,0.0,0.0,0.0,0.0,0.0,0.0,1.0167,1.0115,0.9651,0.8626,0.8692,0.8804,0.8804,0.9061,0.9159,0.9159,0.8633,0.8368,0.8368,0.7765,0.7753,0.8119,0.7224,0.6583,0.6209,0.6539,0.6647,0.6701,0.6977,0.7031,0.7031,0.7085,0.7386,0.7741,0.0,0.0,0.0,0.0,0.0,0.0,0.0,0.0,0.0,0.0,0.0,0.0,0.0,0.0,0.0,0.0,0.0,0.0,0.0,0.0,0.0,0.0,0.0,0.0,0.0,0.0,0.0,0.0,0.0,1.6157,1.7572,1.7863,1.8424,1.9184,1.9266,1.9295,1.9305,1.9398,0.0,0.0,0.0,0.0,0.0,0.0,0.0,0.0,0.0,0.0,0.0,0.0,0.0,0.0,0.0,0.0,0.0,0.0,0.0,0.0,0.0,0.0,0.0,0.0,0.0,0.0,0.0,0.0,0.0,0.0,0.0,0.0,0.0,0.0,0.0,0.0,0.0,0.0,0.0,0.0,0.0,0.0,0.0,0.0,0.0,0.0,0.0,0.0,0.0,0.0,1.1049,1.0694,1.0123,0.9399,0.9152,0.9061,0.9061,0.9263,0.9263,0.9211,0.9099,0.9047,0.9047,0.8974,0.8974,0.8981,0.881,0.8442,0.7865,0.7824,0.7616,0.7348,0.7456,0.7348,0.7106,0.7262,0.7521,0.7822,0.0,0.0,0.0,0.0,0.0,0.0,0.0,0.0,0.0,0.0,0.0,0.0,0.0,0.0,0.0,0.0,0.0,0.0,0.0,0.0,0.0,0.0,0.0,0.0,0.0,0.0,0.0,0.0,0.0,0.0,0.0,0.0,1.8695,1.92,1.9266,0.0,0.0,0.0,0.0,1.9602,0.0,0.0,1.9357,0.0,0.0,0.0,0.0,0.0,0.0,0.0,0.0,0.0,0.0,0.0,0.0,0.0,0.0,0.0,0.0,0.0,0.0,0.0,0.0,0.0,0.0,0.0,0.0,0.0,0.0,0.0,0.0,0.0,0.0,0.0,0.0,0.0,0.0,0.0,0.0,0.0,0.0,0.0,0.0,0.0,0.0,0.0,0.0,0.0,1.1569,1.1259,1.0744,0.9961,0.9769,0.9569,0.9413,0.9621,0.9681,0.9472,0.9577,0.9621,0.9629,0.9777,0.988,0.9932,0.9984,0.9614,0.8928,0.8626,0.8309,0.7937,0.783,0.7563,0.7279,0.7471,0.7712,0.8017,0.0,0.0,0.0,0.0,0.0,0.0,0.0,0.0,0.0,0.0,0.0,0.0,0.0,0.0,0.0,0.0,0.0,0.0,0.0,0.0,0.0,0.0,0.0,0.0,0.0,0.0,0.0,0.0,0.0,0.0,0.0,0.0,1.9184,0.0,1.9266,1.9347,1.9405,0.0,1.9518,1.9587,0.0,1.9357,1.9289,0.0,0.0,0.0,1.9087,1.9053,0.0,0.0,0.0,0.0,0.0,0.0,0.0,0.0,0.0,0.0,0.0,0.0,0.0,0.0,0.0,0.0,0.0,0.0,0.0,0.0,0.0,0.0,0.0,0.0,0.0,0.0,0.0,0.0,0.0,0.0,0.0,0.0,0.0,0.0,0.0,0.0,0.0,0.0,0.0,1.2774,1.1701,1.1918,1.151,1.0261,1.049,1.0336,0.9814,1.0249,1.0316,0.9999,0.9999,0.9999,0.9999,0.9999,1.036,1.0871,1.0616,1.0035,0.9228,0.8981,0.8672,0.8368,0.8037,0.7771,0.7549,0.7806,0.8063,0.8326,0.0,0.0,0.0,0.0,0.0,0.0,0.0,0.0,0.0,0.0,0.0,0.0,0.0,0.0,0.0,0.0,0.0,0.0,0.0,0.0,1.3891,1.3783,1.4357,0.0,0.0,0.0,0.0,0.0,0.0,0.0,0.0,0.0,0.0,0.0,1.9295,1.9341,1.939,1.9368,0.0,0.0,1.9393,1.9314,0.0,0.0,0.0,0.0,0.0,1.9087,0.0,0.0,1.8825,1.8603,0.0,0.0,0.0,0.0,0.0,0.0,1.7498,0.0,0.0,0.0,0.0,0.0,0.0,0.0,0.0,0.0,0.0,0.0,0.0,0.0,0.0,0.0,0.0,0.0,0.0,0.0,0.0,0.0,0.0,0.0,0.0,0.0,0.0,0.0,1.3434,1.342,1.2929,1.2433,1.1733,1.0795,1.0854,1.0702,1.03,1.0419,1.047,1.0368,1.0368,1.0368,1.036,1.0565,1.0718,1.0922,1.1023,1.0964,1.0694,1.0241,0.9569,0.8823,0.8712,0.8196,0.7572,0.8012,0.8223,0.8349,0.0,0.0,0.0,0.0,0.0,0.0,0.0,0.0,0.0,0.0,0.0,0.0,0.0,0.0,0.0,0.0,0.0,0.0,0.0,1.4966,1.5099,1.5006,1.547,1.5702,0.0,0.0,0.0,0.0,0.0,0.0,0.0,0.0,0.0,0.0,0.0,0.0,0.0,0.0,0.0,0.0,1.9363,0.0,0.0,1.9137,1.9087,0.0,0.0,0.0,1.9053,1.8966,1.8771,0.0,0.0,0.0,0.0,0.0,0.0,0.0,0.0,0.0,0.0,0.0,0.0,0.0,0.0,1.7027,0.0,0.0,0.0,0.0,0.0,0.0,0.0,0.0,0.0,0.0,0.0,0.0,0.0,0.0,0.0,0.0,0.0,0.0,0.0,0.0,1.3723,1.3832,1.3563,1.3064,1.2325,1.141,1.146,1.1267,1.0667,1.0769,1.0769,1.0675,1.0675,1.0675,1.0667,1.082,1.0972,1.1074,1.1217,1.1326,1.1276,1.0972,1.019,0.9242,0.9145,0.8521,0.7746,0.8265,0.8457,0.8527,0.0,0.0,0.0,0.0,0.0,0.0,0.0,0.0,0.0,0.0,0.0,0.0,0.0,0.0,0.0,0.0,0.0,0.0,0.0,1.6359,1.6711,1.6693,1.6784,1.6838,1.6838,0.0,0.0,0.0,0.0,0.0,0.0,0.0,0.0,0.0,0.0,0.0,0.0,0.0,0.0,1.9472,1.9347,1.9282,0.0,0.0,1.9087,0.0,1.9087,1.9053,1.8984,1.8949,1.8753,0.0,1.8194,1.7997,0.0,0.0,1.7522,0.0,0.0,0.0,0.0,0.0,0.0,0.0,1.6959,1.6942,1.6908,0.0,0.0,0.0,0.0,0.0,0.0,0.0,0.0,0.0,0.0,0.0,0.0,0.0,0.0,0.0,0.0,0.0,1.3523,1.363,1.3971,1.4083,1.3894,1.3716,1.3132,1.2017,1.2224,1.1877,1.0972,1.1226,1.1226,1.0972,1.0972,1.0972,1.0972,1.0972,1.1074,1.1326,1.1326,1.1326,1.1326,1.1326,1.0702,0.9666,0.9465,0.8844,0.8224,0.8763,0.8909,0.893,0.0,0.0,0.0,0.0,0.0,0.0,0.0,0.0,0.0,0.0,0.0,0.0,0.0,0.0,0.0,0.0,0.0,0.0,0.0,1.67,1.6758,1.6693,1.7327,1.7705,1.7739,1.8336,0.0,0.0,0.0,0.0,0.0,0.0,0.0,0.0,0.0,0.0,0.0,0.0,0.0,1.9332,1.9251,0.0,1.9134,1.9052,1.9019,1.9001,1.8966,1.893,1.8878,0.0,1.8547,1.8448,0.0,0.0,0.0,0.0,0.0,0.0,0.0,0.0,0.0,0.0,0.0,0.0,1.7322,1.7281,1.7232,0.0,0.0,0.0,0.0,0.0,0.0,0.0,0.0,0.0,0.0,0.0,0.0,0.0,0.0,0.0,0.0,0.0,1.349,1.383,1.4401,1.4676,1.4512,1.415,1.3525,1.2677,1.2608,1.2224,1.1368,1.1528,1.1628,1.1528,1.1528,1.1477,1.1377,1.1377,1.1368,1.1326,1.1326,1.1326,1.1326,1.1427,1.1057,1.0395,1.0344,1.0028,0.968,1.0309,1.0157,0.9688,0.0,0.0,0.0,0.0,0.0,0.0,0.0,0.0,0.0,0.0,0.0,0.0,0.0,0.0,0.0,0.0,0.0,0.0,0.0,0.0,1.8086,1.8053,1.8364,1.857,1.8604,1.8968,1.9168,0.0,0.0,0.0,0.0,0.0,0.0,0.0,0.0,0.0,0.0,0.0,1.9574,1.9954,1.9413,0.0,1.9084,1.9018,1.8984,1.8948,1.8913,1.8913,1.8861,1.8715,1.8906,0.0,0.0,1.8554,1.8718,0.0,1.7811,1.7743,0.0,0.0,0.0,1.7515,0.0,0.0,0.0,1.7281,1.7207,0.0,0.0,0.0,0.0,0.0,0.0,0.0,0.0,0.0,0.0,0.0,0.0,0.0,0.0,0.0,0.0,0.0,1.3495,1.395,1.4433,1.471,1.4823,1.4512,1.4035,1.3341,1.3266,1.2977,1.2344,1.2393,1.2295,1.2049,1.2049,1.1909,1.1628,1.1628,1.1578,1.1528,1.1528,1.1528,1.1528,1.1569,1.1469,1.1217,1.0854,1.0542,1.0371,1.0814,1.0653,1.029,0.0,0.0,0.0,0.0,0.0,0.0,0.0,0.0,0.0,0.0,0.0,0.0,0.0,0.0,0.0,0.0,0.0,0.0,0.0,0.0,0.0,1.9452,1.9308,1.9248,1.9248,1.9216,1.9235,0.0,0.0,0.0,0.0,0.0,0.0,0.0,0.0,0.0,0.0,0.0,0.0,2.0916,0.0,1.991,1.9844,1.9704,1.9651,1.9561,1.9381,1.9309,1.9344,1.9431,0.0,2.0358,1.9681,1.9762,0.0,0.0,0.0,0.0,0.0,0.0,0.0,0.0,0.0,1.7371,0.0,0.0,0.0,1.6815,0.0,0.0,0.0,0.0,0.0,0.0,0.0,0.0,0.0,0.0,0.0,0.0,0.0,0.0,0.0,0.0,1.3664,1.407,1.4422,1.4722,1.4983,1.4834,1.4455,1.392,1.3862,1.3637,1.3266,1.3266,1.3016,1.2463,1.2463,1.2236,1.1728,1.1728,1.1728,1.1728,1.1728,1.1728,1.1728,1.1728,1.1778,1.1828,1.1259,1.1009,1.1032,1.1209,1.1045,1.0852,0.0,0.0,0.0,0.0,0.0,0.0,0.0,0.0,0.0,0.0,0.0,0.0,0.0,0.0,0.0,0.0,0.0,0.0,1.9575,0.0,0.0,1.9585,1.9448,1.9413,1.9456,1.936,1.9298,1.9274,0.0,0.0,0.0,0.0,0.0,0.0,1.955,0.0,0.0,0.0,2.1733,0.0,2.2467,2.2608,0.0,2.222,2.2098,2.197,2.1151,2.086,2.0947,0.0,2.2007,2.2207,0.0,2.2535,0.0,0.0,0.0,0.0,0.0,0.0,0.0,0.0,1.7906,0.0,0.0,0.0,1.7133,1.6926,0.0,0.0,0.0,0.0,0.0,0.0,0.0,0.0,0.0,0.0,0.0,0.0,0.0,0.0,0.0,0.0,0.0,1.4173,1.4672,1.5026,1.5232,1.5006,1.4686,1.4176,1.4025,1.3789,1.3362,1.3515,1.3266,1.2764,1.2764,1.2433,1.1877,1.1877,1.1819,1.1728,1.1728,1.1728,1.1728,1.1828,1.1877,1.1877,1.1819,1.2061,1.2438,1.2226,1.1922,1.1577,0.0,0.0,0.0,0.0,0.0,0.0,0.0,0.0,0.0,0.0,0.0,0.0,0.0,0.0,0.0,0.0,0.0,2.0029,0.0,0.0,0.0,0.0,1.9707,0.0,1.9617,1.9564,1.9495,1.9419,1.9559,0.0,0.0,0.0,0.0,0.0,2.0913,0.0,2.1779,0.0,0.0,0.0,0.0,0.0,0.0,2.3601,2.2906,2.3077,2.2646,2.25,2.2553,0.0,2.3343,0.0,0.0,0.0,0.0,0.0,0.0,0.0,0.0,0.0,0.0,0.0,0.0,0.0,0.0,0.0,1.7594,0.0,0.0,0.0,0.0,0.0,0.0,0.0,0.0,0.0,0.0,0.0,0.0,0.0,0.0,0.0,0.0,0.0,0.0,0.0,0.0,1.4833,1.5534,1.53,1.5017,1.4834,1.4686,1.4547,1.4398,1.4455,1.4212,1.3742,1.3993,1.3639,1.277,1.3119,1.2945,1.2415,1.2415,1.2287,1.2175,1.2224,1.2234,1.2252,1.2434,1.2715,1.3048,1.2941,1.2577,1.214,0.0,0.0,0.0,0.0,0.0,0.0,0.0,0.0,0.0,0.0,0.0,0.0,2.0912,2.0361,0.0,0.0,0.0,2.0208,0.0,0.0,2.0289,0.0,2.038,0.0,0.0,0.0,2.0332,2.0238,0.0,0.0,0.0,0.0,0.0,0.0,0.0,2.3162,2.3491,0.0,0.0,2.5731,2.6921,2.7806,2.8088,2.5281,2.4262,2.4334,2.4234,2.4206,2.4218,2.4432,2.4879,0.0,2.4908,0.0,0.0,0.0,0.0,0.0,2.3261,0.0,0.0,0.0,0.0,0.0,0.0,0.0,0.0,0.0,0.0,0.0,0.0,0.0,0.0,0.0,0.0,0.0,0.0,0.0,0.0,0.0,0.0,0.0,0.0,0.0,0.0,0.0,1.4459,0.0,1.5732,1.557,1.5402,1.5345,1.521,1.5153,1.5153,1.5108,1.4948,1.4617,1.4956,1.4683,1.3919,1.4333,1.4034,1.3221,1.3221,1.2941,1.248,1.248,1.248,1.2518,1.2823,1.3131,1.3405,1.324,1.3003,1.2757,0.0,1.8429,0.0,0.0,0.0,0.0,0.0,0.0,0.0,0.0,0.0,0.0,0.0,0.0,0.0,0.0,0.0,2.0211,2.0211,0.0,2.1079,0.0,0.0,2.2011,0.0,0.0,2.212,2.212,0.0,0.0,0.0,0.0,0.0,0.0,0.0,2.5412,2.6124,2.688,2.7267,2.7485,2.8166,2.8422,2.8352,0.0,2.7017,2.6275,2.6098,0.0,0.0,2.6742,2.701,0.0,0.0,0.0,0.0,0.0,0.0,0.0,0.0,0.0,0.0,2.2824,0.0,0.0,0.0,0.0,2.0,0.0,0.0,0.0,0.0,0.0,0.0,0.0,0.0,0.0,0.0,0.0,0.0,0.0,0.0,0.0,0.0,0.0,0.0,1.4789,1.4799,0.0,1.5776,1.5792,1.5691,1.5513,1.5345,1.5312,1.5312,1.5165,1.5106,1.5088,1.5099,1.5153,1.5236,1.5257,1.4799,1.3962,1.3962,1.3432,1.248,1.248,1.248,1.2518,1.2925,1.3342,1.3631,1.3086,1.3118,1.3381,0.0,0.0,0.0,0.0,0.0,0.0,0.0,2.0687,0.0,0.0,0.0,0.0,0.0,0.0,2.0521,0.0,0.0,2.1417,2.1944,2.2265,0.0,0.0,0.0,2.2487,0.0,0.0,0.0,2.24,0.0,0.0,0.0,0.0,0.0,0.0,0.0,2.6898,0.0,0.0,0.0,0.0,0.0,2.9441,2.9425,0.0,0.0,2.8227,2.8117,2.7958,0.0,2.8026,2.8008,2.7915,2.8138,2.8031,2.7852,2.801,2.7505,0.0,0.0,0.0,2.531,2.4782,0.0,0.0,0.0,0.0,0.0,0.0,0.0,0.0,0.0,0.0,0.0,0.0,0.0,0.0,0.0,0.0,0.0,0.0,0.0,0.0,0.0,0.0,0.0,1.4929,1.5137,1.555,0.0,1.5925,1.5792,1.5703,1.5525,1.5435,1.5435,1.5741,1.5905,1.5889,1.6593,1.6678,1.6378,1.6751,1.602,1.4512,1.4512,1.3851,1.2783,1.2783,1.2783,1.2792,1.3384,1.3729,1.3857,1.3858,1.3839,1.3734,2.0079,0.0,0.0,0.0,0.0,0.0,0.0,0.0,0.0,0.0,2.0571,0.0,2.081,0.0,2.1493,0.0,2.2168,2.2375,2.2862,2.3211,0.0,2.2824,2.3361,0.0,0.0,0.0,0.0,0.0,2.4009,2.4438,0.0,0.0,0.0,0.0,0.0,0.0,0.0,0.0,2.9205,0.0,0.0,2.994,0.0,0.0,2.9551,2.9375,0.0,2.8975,2.8724,2.8694,2.8507,2.83,2.8264,2.8209,2.8182,2.8182,2.8053,2.7864,2.773,2.7332,0.0,2.6236,2.586,0.0,2.4264,0.0,0.0,0.0,0.0,0.0,0.0,0.0,0.0,0.0,0.0,0.0,0.0,0.0,0.0,0.0,0.0,0.0,0.0,0.0,1.4937,1.5325,1.5369,1.5702,0.0,0.0,1.5957,1.5869,1.587,1.5887,1.583,1.6338,1.6656,1.6832,1.7478,1.7722,1.7592,1.7912,1.7011,1.5195,1.5195,1.4297,1.2881,1.2881,1.2881,1.2959,1.3694,1.397,1.4038,1.4477,1.4501,1.4282,0.0,0.0,0.0,0.0,2.0026,0.0,0.0,0.0,2.0436,0.0,2.1216,2.1769,2.1769,2.2508,2.3028,2.3067,2.3067,0.0,2.305,2.3875,0.0,0.0,2.451,2.4955,2.3992,0.0,0.0,0.0,2.6542,2.7006,0.0,0.0,0.0,0.0,2.983,0.0,3.0102,3.0064,2.9984,2.9905,2.9905,2.9905,2.9905,2.9972,0.0,2.9699,2.9435,2.9126,2.8837,2.8814,2.8608,2.8327,2.83,2.8246,2.8182,2.8209,2.8209,2.8126,2.7836,2.773,2.7624,2.7144,0.0,0.0,0.0,0.0,2.5063,0.0,0.0,0.0,0.0,0.0,0.0,0.0,0.0,0.0,0.0,0.0,0.0,0.0,0.0,0.0,0.0,1.535,1.5249,1.5916,1.5517,1.5602,0.0,0.0,0.0,1.6081,1.6435,1.6608,1.6456,1.6906,1.7376,1.7847,1.7871,1.8194,1.8798,1.8798,1.7787,1.5935,1.5935,1.48,1.2978,1.2978,1.2988,1.3086,1.3861,1.416,1.4243,1.4792,1.5029,1.5029,2.0312,2.0765,2.1344,0.0,2.152,2.1135,0.0,0.0,0.0,0.0,2.2537,2.2746,2.2746,2.2932,2.3335,2.3974,2.4037,0.0,0.0,0.0,0.0,2.4814,2.5182,2.5277,2.5029,2.5832,0.0,2.6576,0.0,0.0,2.8701,0.0,0.0,0.0,0.0,0.0,3.0118,2.9479,2.9497,2.9972,2.9972,2.9972,0.0,0.0,2.9956,2.9991,2.9855,2.9644,2.9358,2.9169,2.886,2.8547,2.8362,2.8246,2.8209,2.8246,2.8237,2.8182,2.8164,2.8109,2.7979,2.7624,2.7517,2.7426,0.0,0.0,0.0,0.0,0.0,0.0,0.0,0.0,0.0,0.0,0.0,0.0,0.0,0.0,0.0,0.0,0.0,0.0,1.5561,1.5797,1.5943,1.5783,1.6096,1.6372,0.0,0.0,0.0,1.6913,1.726,1.7459,1.7446,1.7872,1.8111,1.8244,1.8538,1.8802,1.8946,1.8946,1.8048,1.65,1.65,1.5541,1.3941,1.3941,1.419,1.4552,1.4635,1.4849,1.5117,1.5216,1.5303,1.5303,2.1394,0.0,0.0,2.2748,0.0,0.0,2.2173,0.0,0.0,2.2989,2.3384,0.0,2.3669,2.4012,2.4427,2.4928,2.497,0.0,0.0,0.0,0.0,2.5504,2.5861,2.6036,2.6001,2.6826,0.0,2.7739,0.0,0.0,2.9613,0.0,0.0,0.0,0.0,2.904,0.0,2.8927,2.9098,2.9509,2.9886,0.0,0.0,3.0003,3.0019,3.0087,3.0072,2.9855,2.9626,2.9435,2.9107,2.8718,2.8583,2.8414,2.8291,2.83,2.8273,2.8264,2.8246,2.8237,2.8154,2.7968,2.7922,2.7836,2.7426,2.7269,2.7189,0.0,0.0,0.0,0.0,0.0,0.0,0.0,0.0,0.0,0.0,0.0,0.0,0.0,0.0,0.0,1.6621,1.6369,1.6327,1.6567,1.6449,1.6553,0.0,0.0,0.0,1.7563,1.8016,1.8203,1.8167,1.8544,1.8748,1.8761,1.8907,1.8987,1.8987,1.8987,1.8152,1.6711,1.6711,1.5785,1.4305,1.4305,1.4635,1.5127,1.5216,1.5315,1.541,1.541,1.541,1.541,0.0,0.0,0.0,0.0,0.0,0.0,0.0,2.3499,0.0,2.3439,0.0,2.4564,2.4567,2.5251,2.5699,2.5696,0.0,2.5844,2.5788,2.593,2.598,2.5862,2.6641,2.7045,2.6986,2.7828,0.0,0.0,0.0,0.0,0.0,0.0,0.0,0.0,0.0,0.0,0.0,2.8498,2.8869,0.0,2.9798,3.0102,3.0102,3.0113,3.0098,3.0102,3.0102,2.994,2.9735,2.9626,2.9277,2.8837,2.8814,2.8608,2.838,2.8353,2.8327,2.83,2.8237,2.8209,2.8209,2.8209,2.8182,2.8081,2.7678,2.7601,2.7542,2.7457,2.7224,2.7255,0.0,0.0,0.0,0.0,0.0,0.0,0.0,0.0,0.0,0.0,0.0,0.0,0.0,1.7078,1.6631,1.7598,1.6767,1.6641,0.0,0.0,0.0,0.0,1.8672,0.0,1.877,0.0,1.9223,1.9223,1.9105,1.9052,1.9052,1.8999,1.8203,1.6811,1.6811,1.593,1.449,1.449,1.4763,1.5197,1.569,1.569,1.541,1.541,1.541,1.541,0.0,0.0,0.0,0.0,0.0,2.6637,2.7199,2.6065,2.5164,2.5168,2.5336,0.0,2.5466,2.5604,2.5702,2.5699,2.6365,0.0,0.0,0.0,0.0,2.7803,2.792,2.7978,2.795,2.8746,2.9186,0.0,2.9921,3.0326,0.0,0.0,0.0,0.0,0.0,0.0,2.7746,2.8548,0.0,2.9884,3.0037,3.0098,3.0102,3.0102,3.0098,3.0094,3.0102,3.0038,2.9924,2.9681,2.9397,2.9082,2.886,2.8608,2.8406,2.8458,2.8432,2.838,2.8371,2.8327,2.8273,2.8209,2.8182,2.8182,2.8109,2.8081,2.8081,2.8053,2.7996,2.7876,2.7648,0.0,0.0,0.0,0.0,0.0,0.0,0.0,0.0,0.0,0.0,0.0,0.0,0.0,0.0,0.0,0.0,0.0,0.0,0.0,0.0,0.0,0.0,0.0,0.0,0.0,0.0,1.9512,1.9275,1.917,1.917,1.9052,1.8358,1.7265,1.7265,1.6622,1.5558,1.5558,1.5542,1.5585,1.6537,1.6296,1.541,1.541,1.541,1.541,0.0,0.0,0.0,0.0,0.0,0.0,0.0,2.7534,0.0,2.6999,2.7027,2.705,2.705,2.7051,2.7051,2.7049,2.7421,2.7674,2.767,2.8079,2.8291,2.8307,2.8708,0.0,2.8934,2.9757,3.0112,2.9972,3.037,3.0528,0.0,0.0,0.0,0.0,0.0,2.6745,0.0,0.0,0.0,2.9513,2.9966,3.0142,3.0161,3.0161,3.0142,3.0157,3.0113,3.0083,3.0034,2.9855,2.9626,2.9357,2.9129,2.8897,2.8669,2.8543,2.8484,2.8432,2.8406,2.8353,2.83,2.8246,2.8237,2.8182,2.8182,2.8182,2.8182,2.8182,2.8182,2.8053,2.75,2.7066,0.0,0.0,0.0,0.0,0.0,0.0,0.0,0.0,0.0,0.0,0.0,0.0,0.0,0.0,0.0,0.0,0.0,0.0,0.0,0.0,0.0,0.0,0.0,0.0,0.0,1.9617,1.942,1.9328,1.9328,1.9263,1.8615,1.7605,1.7605,1.701,1.6061,1.6608,1.6598,1.6379,1.7478,1.709,1.5979,1.5979,1.5748,1.541,0.0,2.873,0.0,0.0,2.8628,0.0,2.8779,2.8641,2.845,2.832,2.8301,2.83,2.83,2.83,2.83,2.8301,2.8476,2.8574,2.8572,2.8744,2.886,2.886,2.9502,2.9873,2.9874,3.0556,3.0838,0.0,3.0639,3.0576,0.0,0.0,0.0,0.0,0.0,0.0,0.0,0.0,2.9006,2.9235,2.9917,3.0204,3.0204,3.0204,3.0204,3.0185,3.0142,3.0109,3.0094,3.0034,2.9839,2.9589,2.9435,2.9206,2.8957,2.8694,2.8569,2.851,2.8432,2.838,2.8327,2.83,2.8264,2.8182,2.8182,2.8182,2.8182,2.8182,2.8182,2.8025,2.7457,2.7224,0.0,0.0,0.0,0.0,0.0,0.0,0.0,0.0,0.0,0.0,0.0,0.0,0.0,0.0,0.0,0.0,1.9594,1.9564,0.0,0.0,0.0,1.9926,1.9798,0.0,1.9656,0.0,1.9512,1.942,1.942,1.942,1.883,1.781,1.781,1.7257,1.6446,1.7417,1.7508,1.7193,1.8108,1.7754,1.6708,1.6606,1.6208,1.569,0.0,0.0,0.0,0.0,0.0,0.0,0.0,2.9752,2.8996,2.8376,2.8298,2.8297,2.8297,2.8296,2.8297,2.83,2.9022,2.9473,2.9471,3.0211,3.0659,3.0659,3.0735,3.0772,3.0776,3.0852,3.0838,0.0,0.0,3.0576,3.0482,0.0,0.0,0.0,0.0,0.0,0.0,2.8894,2.9363,3.0089,3.0166,3.0204,3.0204,3.0204,3.0204,3.0204,3.0185,3.0157,3.0109,3.0094,2.9921,2.9699,2.9662,2.9355,2.898,2.8957,2.8767,2.8587,2.851,2.8432,2.8398,2.8327,2.8264,2.8182,2.8182,2.8182,2.8182,2.8182,2.8182,2.8035,2.7572,2.7713,2.763,0.0,0.0,0.0,0.0,0.0,0.0,0.0,0.0,0.0,0.0,0.0,0.0,0.0,0.0,1.9925,1.962,1.9937,2.008,1.999,0.0,1.9798,1.9798,1.9798,0.0,1.9798,1.9656,1.9565,1.9565,1.9473,1.883,1.781,1.781,1.7478,1.6974,1.7564,1.7738,1.7686,1.8248,1.8081,1.7413,1.6922,1.6719,1.6606,0.0,0.0,0.0,0.0,0.0,0.0,0.0,3.0328,2.9991,2.9727,2.9678,2.9687,2.9671,2.9725,2.9737,2.9745,3.0129,3.0389,3.0371,3.0703,3.0897,3.0896,3.0895,3.0895,3.0896,3.0895,3.0871,0.0,0.0,3.0656,3.0607,2.9695,0.0,0.0,0.0,2.8595,2.9255,2.9687,3.0013,3.0267,3.0267,3.0247,3.0204,3.0204,3.0204,3.0204,3.0204,3.0171,3.0157,3.0157,3.0034,2.9855,2.9753,2.9551,2.9334,2.9228,2.9007,2.8839,2.8815,2.8594,2.838,2.8371,2.8291,2.8182,2.8182,2.8182,2.8182,2.8182,2.8182,2.8126,2.7847,2.7742,2.7577,0.0,0.0,0.0,0.0,0.0,0.0,0.0,0.0,0.0,0.0,0.0,0.0,0.0,0.0,2.0879,2.0456,2.0468,2.0398,2.0131,0.0,2.0131,1.9926,1.9926,1.9926,1.9926,1.9759,1.9708,1.9708,1.9656,1.907,1.8024,1.7306,1.7082,1.7277,1.7825,1.8215,1.8545,1.9059,1.8886,1.8221,1.8015,1.7479,1.6775,3.061,0.0,3.0552,0.0,3.0552,3.0532,3.0532,3.0543,3.0543,3.0543,3.0532,3.0571,3.0607,3.0642,3.0682,3.07,3.0794,3.085,3.0874,3.0898,3.0898,3.0898,3.0897,0.0,3.0898,3.0897,3.0897,3.0897,3.0771,0.0,3.0681,0.0,0.0,0.0,2.9195,2.9465,2.9745,3.0285,3.0443,3.0359,3.0359,3.0333,3.0286,3.0247,3.0234,3.0221,3.0199,3.0204,3.0204,3.0204,3.0128,3.0003,2.9855,2.9735,2.9608,2.9435,2.923,2.9093,2.9026,2.8749,2.8448,2.8406,2.8318,2.8209,2.8209,2.8209,2.8209,2.8209,2.8182,2.8154,2.8071,2.7876,2.7636,2.7461,0.0,0.0,0.0,0.0,0.0,0.0,0.0,2.5084,2.5084,0.0,0.0,0.0,0.0,0.0,2.1131,2.0799,0.0,0.0,0.0,0.0,0.0,2.0042,2.0042,2.0042,1.9914,1.9862,1.985,1.9472,1.892,1.8154,1.7187,1.7099,1.7664,1.8216,1.8769,1.9296,1.966,1.9475,1.898,1.8833,1.8244,1.7435,3.0595,3.0501,3.0428,3.0479,3.0439,3.0398,3.0398,3.0394,3.041,3.041,3.041,3.0441,3.0598,3.0593,3.0633,3.0684,3.0696,3.0726,3.0799,3.0859,3.0898,0.0,0.0,3.0898,3.0898,3.0898,3.0897,3.0897,0.0,0.0,3.0685,0.0,2.9917,3.0628,2.9785,2.9886,3.0678,3.056,3.05,3.0501,3.0501,3.0501,3.0482,3.0348,3.0302,3.029,3.0221,3.0204,3.0204,3.0204,3.0157,3.0094,3.0102,2.9907,2.9699,2.9626,2.9436,2.9251,2.9052,2.8855,2.8646,2.844,2.8353,2.8273,2.8209,2.8264,2.8273,2.8209,2.8182,2.8182,2.8182,2.8182,2.7996,2.7396,0.0,0.0,0.0,0.0,0.0,0.0,2.4989,2.4791,2.5256,0.0,0.0,0.0,0.0,0.0,0.0,0.0,0.0,2.0511,2.0296,0.0,2.0182,2.0182,2.0182,2.0182,2.0042,1.999,1.9952,1.8767,1.8216,1.8179,1.7614,1.7689,1.8242,1.8794,1.9321,1.9798,1.9798,1.9798,1.9695,1.9198,1.8987,1.8881,3.0402,3.0371,3.034,3.0352,3.0371,3.0402,3.0402,3.039,3.0398,3.0398,3.0398,3.0414,3.0451,3.051,3.0535,0.0,3.0652,3.0721,0.0,3.0784,3.0855,3.0898,3.0898,3.0898,3.0898,3.0898,3.0898,3.0898,0.0,0.0,0.0,3.0537,3.0528,3.0755,3.0482,3.0513,3.0774,3.0725,3.0685,3.063,3.0603,3.0543,3.0492,3.0443,3.0452,3.0423,3.0411,3.04,3.0389,3.0297,3.026,3.0222,3.0128,3.0007,2.9891,2.9822,2.9662,2.9494,2.9435,2.9107,2.8766,2.8688,2.8525,2.8353,2.8273,2.8264,2.8237,2.8209,2.8182,2.8182,2.8182,2.8182,2.8053,2.7624,2.7426,0.0,0.0,0.0,0.0,0.0,0.0,2.524,0.0,2.4886,0.0,0.0,0.0,0.0,0.0,0.0,0.0,0.0,2.0586,0.0,2.041,2.0398,2.0398,2.041,2.0246,2.0131,2.0093,1.8887,1.8548,1.8852,1.7823,1.7903,1.8781,1.8908,1.9334,1.9798,1.9798,1.9798,1.9798,1.9604,1.9291,1.8987,3.0292,3.0305,3.0292,3.0304,3.0336,3.0367,3.0398,3.0398,3.0294,2.9948,2.991,2.9794,2.9486,2.9494,0.0,2.997,2.9815,2.9693,2.9725,2.979,2.9853,2.9922,2.9922,2.9922,2.9922,0.0,0.0,2.9922,2.9921,3.0093,3.0419,3.0374,3.0506,3.0796,3.0796,3.0791,3.0804,3.0798,3.0774,3.0728,3.0684,3.0652,3.0614,3.0563,3.0535,3.0527,3.051,3.0501,3.0492,3.0402,3.0348,3.0278,3.0188,3.0109,3.0019,2.994,2.9822,2.9698,2.9626,2.9277,2.8929,2.8837,2.8608,2.8406,2.8353,2.8264,2.8182,2.8182,2.8182,2.8182,2.8182,2.8182,2.8126,2.7864,2.7582,2.7195,2.6641,0.0,0.0,0.0,0.0,0.0,0.0,2.4966,0.0,0.0,0.0,0.0,0.0,0.0,0.0,2.1006,2.0785,0.0,2.0562,2.0562,2.0562,2.0562,2.0398,2.0246,2.0093,1.8935,1.8684,1.9068,1.8125,1.8191,1.8995,1.9233,1.951,1.9798,1.9798,1.9798,1.9798,1.9798,1.9604,1.9291,3.0279,3.0279,0.0,0.0,3.0304,0.0,3.0302,3.0302,3.0006,2.9121,2.9006,2.8717,2.7986,2.7852,2.8132,2.8942,0.0,0.0,0.0,2.8164,2.8234,2.8281,2.8301,2.8301,2.8301,2.8301,2.8301,2.8301,2.8299,2.8725,2.9502,2.9576,3.0001,3.0723,3.0782,3.0799,3.0794,3.0794,3.0801,3.0802,3.0802,3.0793,3.0799,3.0665,3.0607,3.0613,3.0535,3.0519,3.0519,3.051,3.0423,3.0314,3.0297,3.0215,3.0079,2.9937,2.9905,2.9872,2.9681,2.9416,2.9148,2.8906,2.8658,2.8484,2.8432,2.8318,2.8182,2.8182,2.8182,2.8182,2.8182,2.8182,2.8154,2.8014,2.7736,2.7355,2.6891,0.0,0.0,0.0,0.0,0.0,0.0,2.4871,2.4589,0.0,0.0,0.0,0.0,0.0,2.118,2.1423,2.0947,2.0699,2.0699,2.0699,2.0699,2.0699,2.0562,2.036,2.0003,1.8974,1.87,1.9045,1.8505,1.8568,1.912,1.961,1.985,1.985,1.9811,1.9798,1.9798,1.9798,1.9798,1.9798,0.0,0.0,3.0234,3.0215,3.0267,3.0093,2.9509,2.9417,2.9102,2.8294,2.8179,2.8102,2.7909,2.7313,2.6986,2.7208,2.7644,2.7956,2.8022,2.8131,2.8207,2.8213,2.8261,2.8301,2.8301,2.8301,2.8301,2.8301,2.83,2.8415,2.8627,2.9287,2.9693,2.9904,3.0528,3.0799,3.0799,3.0794,3.0791,3.0804,3.0798,3.0794,3.081,3.0759,3.075,3.076,3.0725,3.0734,3.0716,3.0605,3.0527,3.0423,3.0333,3.0215,3.0094,3.0053,3.0022,2.9956,2.9924,2.9698,2.9436,2.9233,2.8803,2.8466,2.859,2.8396,2.8182,2.8182,2.8182,2.8182,2.8182,2.8182,2.8154,2.8014,2.7713,2.7348,2.6873,2.6556,0.0,0.0,2.5626,2.553,2.5333,2.5045,2.471,0.0,0.0,0.0,0.0,0.0,2.1969,2.1841,2.1082,2.0699,2.0699,2.0699,2.0699,2.0699,2.0662,2.0599,2.0536,1.971,1.9551,1.9914,1.9341,1.9381,1.98,2.0016,2.0131,2.008,1.9978,1.9926,1.9926,1.9862,1.9798,1.9798,3.0204,3.0199,3.0194,3.0207,3.026,3.0157,2.9728,2.9675,2.939,2.8563,2.8448,2.8313,2.7928,2.7486,2.7198,2.7198,2.693,2.6792,2.6849,2.6934,2.7,2.7054,2.7083,2.7108,2.7109,2.7109,2.7109,2.7109,2.7109,2.7322,2.7711,2.8195,2.8836,2.9613,3.006,3.047,3.0801,3.0796,3.0794,3.0794,3.0807,3.0801,3.0798,3.0798,3.079,3.0802,3.0802,3.0793,3.0774,3.0659,3.056,3.0482,3.0344,3.0228,3.0157,3.0147,3.0102,3.0038,3.0007,2.9822,2.957,2.923,2.8943,2.8749,2.859,2.8456,2.8362,2.8237,2.8182,2.8182,2.8182,2.8182,2.82,2.8099,2.78,2.7457,2.7036,2.6674,0.0,2.5864,2.5738,2.5589,2.5333,2.5123,2.4791,2.4369,0.0,0.0,2.3909,2.3054,2.242,2.2156,2.1264,2.0799,2.0699,2.0699,2.0699,2.0699,2.0699,2.0662,2.0586,1.9889,1.9842,2.0144,1.963,1.9658,2.008,2.0182,2.0182,2.0182,2.0131,2.008,2.008,2.0016,2.0181,2.0384,3.0199,3.0199,3.0199,3.0207,3.0253,3.0235,3.0119,3.0163,2.9879,2.9025,2.8909,2.8659,2.7967,2.789,2.789,2.789,2.6612,2.5801,2.5858,2.5874,2.5921,2.6064,2.6074,2.6085,2.6074,2.5957,2.5898,2.5898,2.5761,2.6073,2.6812,2.6947,2.7782,2.9223,2.9476,2.9982,3.0626,3.0743,3.0799,3.0794,3.0794,3.081,3.0801,3.0801,3.0794,3.0802,3.0802,3.0793,3.0774,3.0659,3.056,3.0482,3.0348,3.0254,3.0204,3.0185,3.0142,3.0102,3.0038,2.9839,2.9589,2.9206,2.9163,2.9079,2.8551,2.8533,2.854,2.8273,2.8209,2.8182,2.8182,2.8182,2.8182,2.8182,2.795,2.7642,2.7244,0.0,2.6419,2.5954,2.5791,2.5605,2.5371,2.5162,2.4926,2.467,2.4467,2.4343,0.0,2.3508,2.2875,2.2452,2.1492,2.0898,2.0699,2.0699,2.0699,2.0699,2.0699,2.0662,2.0498,1.9992,1.992,2.0207,1.9782,1.9847,2.0233,2.0283,2.0283,2.0283,2.0233,2.0284,2.0361,2.0361,2.0707,2.1247,3.0207,3.0207,3.0194,3.0199,3.0207,2.9985,2.9302,2.9262,2.901,2.8198,2.8082,2.8044,2.7909,2.789,2.789,2.789,2.767,2.7527,2.7527,2.7582,2.764,2.7723,2.7784,2.7813,2.7817,2.7147,2.6797,2.6797,2.6055,2.5761,2.5917,2.6656,2.7142,2.7469,2.893,2.9669,2.9826,3.0509,3.0799,3.0799,3.0799,3.0799,3.0796,3.0796,3.081,3.0798,3.0798,3.0802,3.0774,3.0659,3.056,3.0482,3.0348,3.0254,3.0185,3.0123,3.0109,3.0113,3.0102,2.9855,2.9608,2.9532,2.9336,2.9123,2.8808,2.867,2.8522,2.8335,2.8237,2.8182,2.8182,2.8182,2.8182,2.8182,2.8154,2.7911,2.7276,0.0,2.6674,2.599,2.5791,2.568,2.5562,2.5371,2.5178,2.4966,2.471,2.4467,2.4302,2.3867,2.3508,2.3231,2.1766,2.0898,2.0699,2.0699,2.0699,2.0699,2.0699,2.0712,2.0662,2.0557,2.0521,2.0461,2.0508,2.0471,2.0461,2.0562,2.0599,2.0599,2.0511,2.0759,2.112,2.099,2.1362,2.1863,3.0188,3.0234,3.0253,3.0253,3.0247,3.012,2.9761,2.9766,2.9675,2.9313,2.9256,2.9256,2.9256,2.9256,2.9256,2.9256,2.9256,2.9259,2.9303,2.8443,2.7989,2.81,2.8164,2.8215,2.8257,2.789,2.7695,2.7695,2.7305,2.7109,2.7109,2.7029,2.7241,2.7705,2.8053,2.8715,2.9613,3.0001,3.0392,3.0801,3.0801,3.0801,3.0801,3.0796,3.081,3.0798,3.079,3.0798,3.0769,3.061,3.0537,3.0472,3.0304,3.0207,3.0142,3.0109,3.0079,3.0053,3.0038,2.9907,2.9734,2.9626,2.9513,2.9295,2.8842,2.87,2.8572,2.8282,2.8209,2.8182,2.8182,2.8182,2.8182,2.8182,2.8182,0.0,0.0,2.7083,2.674,2.599,2.5791,2.568,2.5616,2.541,2.5256,2.5178,2.4791,2.4549,2.4467,2.4036,2.3739,2.3595,2.2235,2.1471,2.1423,2.1033,2.0848,2.0848,2.0749,2.0699,2.0699,2.0699,2.0662,2.0612,2.0662,2.0832,2.1017,2.1119,2.1302,2.1603,2.1538,2.1681,2.1875,2.1822,2.2185,2.2665,3.0808,3.0874,3.09,3.0887,3.0874,3.0899,3.0899,3.0963,3.0975,3.0975,3.0833,3.0698,3.0698,3.0513,3.0398,3.0398,3.039,3.0425,3.0499,2.9255,2.8558,2.8674,2.8743,2.8814,2.8906,2.8711,2.8594,2.8594,2.8398,2.8301,2.8281,2.7615,2.7652,2.8273,2.7819,2.8344,2.9613,2.9806,3.0235,3.0801,3.0801,3.0799,3.0799,3.0794,3.0804,3.0794,3.0774,3.0774,3.0728,3.0509,3.0443,3.0432,3.0247,3.0157,3.0109,3.0094,3.0034,2.9972,2.9972,2.994,2.9855,2.9644,2.9644,2.9495,2.8888,2.8795,2.8742,2.8327,2.8237,2.8264,2.8209,2.8182,2.8182,2.8182,0.0,0.0,0.0,2.7129,2.6774,2.6082,2.5811,2.568,2.5616,2.5464,2.5333,2.5294,2.4926,2.467,2.4589,2.4177,2.3925,2.3925,2.2799,2.2123,2.1996,2.1554,2.1264,2.1082,2.1033,2.1014,2.1109,2.0996,2.1075,2.1193,2.1092,2.1354,2.1707,2.1707,2.1982,2.24,2.2387,2.2507,2.257,2.2596,2.2949,2.342,3.2691,3.2724,3.2691,3.2626,3.2626,3.264,3.2705,3.2705,3.2718,3.2718,3.2064,3.1602,3.1602,3.0891,3.0398,3.0398,3.0394,3.0428,3.0499,3.0384,3.0337,3.0414,3.0471,3.057,3.0703,2.9922,2.9492,2.9492,2.8691,2.8301,2.8301,2.822,2.8238,2.8334,2.909,2.9476,2.965,3.0392,3.0743,3.0801,3.0801,3.0799,3.0794,3.0794,3.0801,3.0798,3.0728,3.0678,3.0579,3.0383,3.0314,3.029,3.0221,3.0157,3.0094,3.0102,3.0022,2.9924,2.9924,2.9905,2.9855,2.9644,2.9734,2.968,2.8956,2.9082,2.9144,2.844,2.8406,2.8432,2.8237,2.8182,2.8182,2.8182,0.0,0.0,2.7701,2.7286,2.6839,2.6418,2.5994,2.568,2.5616,2.5578,2.5486,2.5333,2.51,2.4846,2.463,2.4385,2.4261,2.4261,2.3334,2.2572,2.1996,2.2249,2.2049,2.1375,2.1746,2.2014,2.2278,2.1947,2.2138,2.2644,2.2391,2.231,2.235,2.235,2.2376,2.2415,2.24,2.2714,2.3158,2.3158,2.3537,2.4047,3.2837,3.2878,3.2885,3.2872,3.2852,3.2885,3.2904,3.2885,3.2897,3.291,3.2622,3.2449,3.2449,3.216,3.1948,3.1948,3.1961,3.1985,3.2042,3.2053,3.1632,3.0691,3.0735,3.0804,3.0898,3.0586,3.041,3.041,3.0078,2.9902,2.9902,2.9353,2.9115,2.9093,2.8893,2.9084,2.9613,2.9923,3.0333,3.0801,3.0801,3.0799,3.0796,3.0807,3.0798,3.0786,3.0678,3.062,3.0571,3.0372,3.0302,3.0278,3.0207,3.0157,3.0094,3.0053,3.0007,2.9956,2.9905,2.9888,2.9872,2.9805,2.9751,2.9626,2.9299,2.9089,2.8883,2.854,2.8396,2.8291,2.8209,2.8182,2.8182,2.8182,0.0,2.8081,2.776,2.747,2.7063,2.647,2.6175,2.5905,2.5654,2.5616,2.5578,2.5486,2.5162,2.4966,2.4831,2.4508,2.4502,2.4918,2.4574,2.4164,2.3759,2.3252,2.3073,2.3224,2.2939,2.2875,2.2954,2.2615,2.2565,2.2778,2.2523,2.257,2.2897,2.2897,2.3119,2.3446,2.3459,2.3589,2.3772,2.3772,2.3916,2.4112,3.3637,3.3678,3.3718,3.3718,3.3718,3.3718,3.3718,3.3718,3.3718,3.3718,3.3487,3.3314,3.3314,3.3064,3.2891,3.2891,3.2916,3.294,3.3006,3.3054,3.2493,3.1169,3.1175,3.1104,3.0898,3.0898,3.0898,3.0898,3.0898,3.0898,3.0897,3.0289,3.0014,2.999,2.9359,2.9416,2.9982,2.9982,3.0294,3.0801,3.0801,3.0799,3.0794,3.0804,3.0794,3.0778,3.062,3.0576,3.0552,3.0337,3.026,3.0248,3.0213,3.0157,3.0094,3.0053,3.0022,2.9988,2.994,2.9924,2.9888,2.9888,2.9805,2.9626,2.9437,2.9153,2.8883,2.8565,2.8396,2.8291,2.8227,2.8182,2.8182,2.8182,2.8182,2.8126,2.7893,2.7695,2.7299,2.6657,2.6402,2.6139,2.5659,2.5637,2.5637,2.5616,2.5294,2.5045,2.4886,2.471,2.4841,2.5302,2.5518,2.5601,2.5606,2.4724,2.437,2.4609,2.4126,2.3933,2.4024,2.3538,2.3366,2.35,2.3378,2.3398,2.3498,2.3668,2.3905,2.4112,2.4112,2.4112,2.4112,2.4112,2.4112,2.4112,3.546,3.5493,3.5493,3.5493,3.5493,3.5493,3.5493,3.5493,3.5493,3.5493,3.4757,3.4199,3.4199,3.343,3.291,3.291,3.2972,3.3006,3.3018,3.3211,3.2927,3.2065,3.2072,3.1749,3.0937,3.0918,3.0918,3.0918,3.0918,3.0918,3.0897,3.0896,3.0892,3.0907,3.0823,3.0801,3.0801,3.0801,3.0801,3.0801,3.0801,3.0794,3.0798,3.0798,3.0802,3.0764,3.0563,3.0501,3.0462,3.026,3.0204,3.0204,3.0204,3.0157,3.0094,3.0102,3.0038,3.0007,3.0007,2.9956,2.9888,2.9888,2.9888,2.9787,2.9314,2.9353,2.927,2.8466,2.8458,2.851,2.8237,2.8182,2.8182,2.8182,2.8182,2.8182,2.8182,2.7922,2.7517,2.7049,2.669,2.6298,2.5758,2.5701,2.568,2.5616,2.5426,2.51,2.4645,2.5033,2.5333,2.5333,2.598,2.6672,2.7396,2.6688,2.5955,2.5316,2.5269,2.535,2.5574,2.4861,2.4723,2.5005,2.53,2.4921,2.4171,2.4778,2.4677,2.4112,2.4112,2.4112,2.4112,2.4112,2.4112,2.4112,3.5412,3.546,3.5493,3.5493,3.5493,3.5493,3.5493,3.5493,3.5493,3.5493,3.5276,3.5122,3.5122,3.4891,3.4718,3.4718,3.4738,3.4786,3.4885,3.4989,3.4696,3.3867,3.3291,3.2909,3.2656,3.2656,3.2383,3.1816,3.1816,3.1504,3.0895,3.0895,3.0871,3.0823,3.0801,3.0801,3.0801,3.0801,3.0801,3.0801,3.0801,3.0796,3.0807,3.0801,3.0769,3.071,3.0554,3.0433,3.0337,3.0234,3.0204,3.0204,3.0204,3.0157,3.0094,3.0102,3.0038,2.9988,2.994,2.9924,2.9888,2.9888,2.9888,2.9839,2.9533,2.9375,2.9148,2.867,2.85,2.8353,2.8209,2.8182,2.8182,2.8182,2.8182,2.8182,2.8182,2.8109,2.7789,2.708,2.692,2.6556,2.5758,2.5701,2.568,2.5616,2.5844,2.5879,2.5611,2.623,2.6698,2.6989,2.7162,2.7566,2.8104,2.7098,2.6753,2.704,2.6713,2.66,2.6638,2.626,2.6097,2.6201,2.604,2.5809,2.555,2.5467,2.53,2.5133,2.4835,2.4607,2.4363,2.4363,2.4261,2.4112,3.5427,3.546,3.5493,3.5493,3.5493,3.5493,3.5493,3.5493,3.5493,3.5493,3.5493,3.5493,3.5493,3.5493,3.5507,3.5501,3.5546,3.565,3.5768,3.5821,3.5627,3.5166,3.4686,3.4101,3.3418,3.3398,3.3164,3.2676,3.2676,3.2402,3.187,3.1539,3.136,3.1309,3.0958,3.0801,3.0801,3.0801,3.0801,3.0801,3.0801,3.0796,3.0791,3.0771,3.073,3.0685,3.051,3.04,3.029,3.0221,3.0204,3.0204,3.0171,3.0123,3.0094,3.0102,3.0038,2.9988,2.9956,2.9924,2.9888,2.9888,2.9888,2.9839,2.9551,2.9334,2.9082,2.8664,2.8422,2.8273,2.8209,2.8182,2.8182,2.8182,2.8182,2.8182,2.8182,2.8182,2.7922,2.7178,2.7083,2.6859,2.6225,2.6145,2.6254,2.6426,2.6615,2.6677,2.657,2.7169,2.7608,2.7839,2.8029,2.8233,2.8525,2.7758,2.7628,2.8039,2.756,2.7393,2.7342,2.7019,2.6797,2.6678,2.673,2.6573,2.6187,2.6201,2.604,2.5769,2.5412,2.5077,2.4908,2.4751,2.4607,2.4447,3.5493,3.5493,3.5493,3.5493,3.5493,3.5493,3.5493,3.5493,3.5493,3.5493,3.5493,3.5493,3.5493,3.5507,3.5501,3.5502,3.562,3.5767,3.589,3.5893,3.5925,3.5996,3.5996,3.5254,3.3672,3.3633,3.3594,3.3516,3.3516,3.3476,3.3374,3.2593,3.2217,3.2187,3.1387,3.1036,3.1036,3.0958,3.0919,3.0919,3.0841,3.0796,3.0788,3.0726,3.0684,3.0664,3.0472,3.0344,3.0266,3.0207,3.0204,3.0185,3.0123,3.0094,3.0094,3.0083,3.0038,2.9988,2.9988,2.9956,2.9888,2.9888,2.9888,2.9769,2.9395,2.9251,2.9056,2.8492,2.8353,2.8273,2.8209,2.8182,2.8182,2.8182,2.8182,2.8182,2.8182,2.8253,2.8074,2.7379,2.7353,2.73,2.7059,2.7011,2.7173,2.7656,2.7589,2.7538,2.7538,2.7969,2.8234,2.8234,2.856,2.8732,2.8685,2.8477,2.8411,2.8411,2.8039,2.784,2.784,2.7393,2.7056,2.6901,2.7444,2.7174,2.6453,2.6953,2.6849,2.6293,2.5877,2.5673,2.5632,2.5216,2.5061,2.5005,3.5493,3.5493,3.5493,3.5493,3.5493,3.5493,3.5493,3.5493,3.5493,3.5493,3.5493,3.5493,3.5493,3.5495,3.5502,3.5502,3.562,3.5767,3.589,3.5893,3.5925,3.5996,3.5996,3.582,3.5449,3.5449,3.5098,3.4414,3.4414,3.406,3.3393,3.3215,3.3112,3.3105,3.2929,3.2831,3.2792,3.2109,3.1816,3.1758,3.1075,3.0796,3.0788,3.0726,3.0639,3.0535,3.0432,3.0316,3.0226,3.0199,3.0204,3.0185,3.0123,3.0113,3.0102,3.0038,2.9972,2.9905,2.9905,2.9905,2.9888,2.9888,2.9769,2.9608,2.9355,2.9293,2.9123,2.8518,2.838,2.8345,2.8209,2.8182,2.8182,2.8182,2.8182,2.8182,2.8182,2.8744,2.8871,2.8157,2.8627,2.8714,2.7982,2.7781,2.7688,2.7705,2.8181,2.8505,2.8505,2.9157,2.9396,2.9201,2.9088,2.8936,2.8685,2.8477,2.8411,2.8411,2.8299,2.825,2.825,2.8137,2.8088,2.8024,2.8186,2.8137,2.7925,2.7725,2.7575,2.7408,2.6967,2.6428,2.596,2.5906,2.5481,2.5005,3.5493,3.5493,3.5493,3.5493,3.5493,3.5493,3.5493,3.5493,3.5493,3.5493,3.5493,3.5493,3.5493,3.5495,3.5538,3.5631,3.5733,3.5831,3.5948,3.595,3.5954,3.5996,3.5996,3.5996,3.5996,3.5996,3.5781,3.5312,3.5312,3.5095,3.4624,3.4209,3.4027,3.4003,3.3593,3.3398,3.3378,3.291,3.2714,3.2675,3.2226,3.202,3.1937,3.1454,3.1185,3.1013,3.0487,3.026,3.0204,3.0204,3.0204,3.0204,3.0113,3.0098,3.0087,2.9972,2.994,2.9888,2.9888,2.9888,2.9888,2.9888,2.9751,2.9551,2.9355,2.9169,2.8948,2.8543,2.8406,2.8479,2.8792,2.8836,2.8915,2.9262,2.9315,2.9315,2.9315,2.9672,2.9727,2.9196,2.9349,2.9293,2.8797,2.8821,2.8851,2.8809,2.9124,2.9335,2.9335,2.9708,2.9814,2.9726,2.9441,2.9167,2.8889,2.8653,2.8477,2.8411,2.8411,2.8411,2.8411,2.8411,2.8411,2.8411,2.8411,2.8411,2.8396,2.8152,2.8103,2.8039,2.761,2.724,2.6878,2.6443,2.592,2.5453,3.5493,3.5493,3.5493,3.5493,3.5493,3.5493,3.5493,3.5493,3.5493,3.5493,3.5493,3.5507,3.5488,3.5515,3.5609,3.5781,3.5869,3.5925,3.5996,3.5996,3.5996,3.5996,3.5996,3.5996,3.5996,3.5996,3.5996,3.5996,3.5995,3.5993,3.5971,3.5263,3.4925,3.4881,3.4178,3.3846,3.3827,3.369,3.3612,3.361,3.3451,3.3349,3.3204,3.24,3.2019,3.1788,3.0944,3.0557,3.0414,3.0414,3.0319,3.0209,3.0289,3.0316,3.0319,3.0319,3.0324,3.0324,3.0324,3.0324,3.0324,3.0324,3.0131,2.9925,2.9744,2.9355,2.8998,2.8923,2.8873,2.9008,2.96,2.9697,2.9866,3.0404,3.0511,3.0511,3.0511,3.0618,3.0587,3.024,2.9953,2.9697,2.9518,2.9819,3.0017,3.0017,2.9946,2.9918,2.9918,2.9918,2.9918,2.9918,2.9621,2.938,2.9167,2.8889,2.8605,2.8444,2.8396,2.8411,2.8411,2.8411,2.8411,2.8411,2.8411,2.8411,2.8411,2.8411,2.8411,2.8363,2.8039,2.784,2.7675,2.6826,2.6258,2.5893,3.5493,3.5493,3.5493,3.5493,3.5493,3.5493,3.5493,3.5493,3.5493,3.5493,3.5493,3.5501,3.5502,3.5607,3.5713,3.578,3.5853,3.5925,3.5996,3.5996,3.5996,3.5996,3.5996,3.5996,3.5996,3.5996,3.5996,3.5995,3.5993,3.601,3.6005,3.5882,3.5818,3.5818,3.5698,3.5639,3.56,3.4842,3.451,3.4449,3.3633,3.3273,3.318,3.2948,3.2806,3.2704,3.2522,3.1953,3.1312,3.1255,3.0729,3.0242,3.0925,3.114,3.126,3.1893,3.2065,3.2065,3.2065,3.2065,3.2065,3.2065,3.1749,3.1418,3.1374,3.0614,3.0051,3.0505,3.0585,3.0566,3.0532,3.055,3.0539,3.0493,3.0511,3.0511,3.0511,3.11,3.1386,3.0999,3.0917,3.0712,3.0294,3.0225,3.0103,3.0017,2.9946,2.9918,2.9918,2.9918,2.9918,2.9918,2.9621,2.947,2.9425,2.8967,2.8685,2.8653,2.8477,2.8411,2.8411,2.8411,2.8411,2.8411,2.8411,2.8411,2.8411,2.8411,2.8411,2.8411,2.8348,2.8103,2.7675,2.6826,2.6258,2.5893,3.5493,3.5493,3.5493,3.5493,3.5493,3.5493,3.5493,3.5493,3.5493,3.5493,3.5493,3.5501,3.5502,3.565,3.5775,3.5845,3.5921,3.5974,3.5996,3.5996,3.5996,3.5996,3.5996,3.5996,3.5996,3.5996,3.5996,3.5993,3.5992,3.5991,3.6009,3.5999,3.5991,3.5991,3.5991,3.5991,3.5971,3.5584,3.5428,3.5386,3.4935,3.4685,3.4536,3.3905,3.3602,3.3445,3.2938,3.2512,3.2172,3.2153,3.187,3.1611,3.193,3.2031,3.2091,3.2329,3.2406,3.2406,3.2406,3.2316,3.2222,3.2222,3.184,3.1586,3.2047,3.1701,3.121,3.1021,3.0948,3.1064,3.1361,3.1422,3.1518,3.1809,3.1831,3.1831,3.1831,3.2135,3.2222,3.1825,3.1579,3.1278,3.0821,3.0426,3.0205,3.0119,2.9989,2.9918,2.9918,2.9918,2.9918,2.9918,2.977,2.9665,2.9515,2.9289,2.9059,2.8936,2.8858,2.8621,2.8411,2.8411,2.8411,2.8411,2.8411,2.8411,2.8411,2.8411,2.8411,2.8411,2.8411,2.8152,2.774,2.7372,2.6945,2.6563]}]]